[[{"header":{"parameterUnit":"m.s-1","parameterCategory":1,"la1":30.6,"la2":29.2853,"lo1":-89.7004,"lo2":-87.6739,"dy":0.0162,"dx":0.0183,"nx":112,"ny":82,"refTime":"2024-03-17T12:00:00:Z","depth":0,"parameterNumber":2,"parameterNumberName":"U-component_of_WINDS"},"data":[0.0,0.0,0.0,0.0,0.0,0.0,0.0,0.0,0.0,0.0,0.0,0.0,0.0,0.0,0.0,0.0,0.0,0.0,0.0,0.0,0.0,0.0,0.0,0.0,0.0,0.0,0.0,0.0,0.0,0.0,0.0,0.0,0.0,0.0,0.0,0.0,0.0,0.0,0.0,0.0,0.0,0.0,0.0,0.0,0.0,0.0,0.0,0.0,0.0,0.0,0.0,0.0,0.0,0.0,0.0,0.0,0.0,0.0,0.0,0.0,0.0,0.0,0.0,0.0,0.0,0.0,0.0,0.0,0.0,0.0,0.0,0.0,0.0,0.0,0.0,0.0,0.0,0.0,0.0,0.0,0.0,0.0,0.0,0.0,0.0,0.0,0.0,0.0,0.0,0.0,0.0,0.9677,1.08,1.1316,1.1318,1.0621,0.9425,0.7636,0.0,0.0,0.0,0.0,0.0,0.0,0.0,0.0,0.0,0.0,0.0,0.0,0.0,0.0,0.0,0.0,0.0,0.0,0.0,0.0,0.0,0.0,0.0,0.0,0.0,0.0,0.0,0.0,0.0,0.0,0.0,0.0,0.0,0.0,0.0,0.0,0.0,0.0,0.0,0.0,0.0,0.0,0.0,0.0,0.0,0.0,0.0,0.0,0.0,0.0,0.0,0.0,0.0,0.0,0.0,0.0,0.0,0.0,0.0,0.0,0.0,0.0,0.0,0.0,0.0,0.0,0.0,0.0,0.0,0.0,0.0,0.0,0.0,0.0,0.0,0.0,0.0,0.0,0.0,0.0,0.0,0.0,0.0,0.0,0.0,0.0,0.0,0.0,0.0,0.0,0.0,0.0,0.0,0.0,0.0,0.0,0.0,0.0,0.0,0.0,0.0,0.0,0.0,0.0,0.6091,0.9774,1.0351,1.0485,1.0483,1.0263,0.9394,0.7686,0.0,0.0,0.0,0.0,0.0,0.0,0.0,0.0,0.0,0.0,0.0,0.0,0.0,0.0,0.0,0.0,0.0,0.0,0.0,0.0,0.0,0.0,0.0,0.0,0.0,0.0,0.0,0.0,0.0,0.0,0.0,0.0,0.0,0.0,0.0,0.0,0.0,0.0,0.0,0.0,0.0,0.0,0.0,0.0,0.0,0.0,0.0,0.0,0.0,0.0,0.0,0.0,0.0,0.0,0.0,0.0,0.0,0.0,0.0,0.0,0.0,0.0,0.0,0.0,0.0,0.0,0.0,0.0,0.0,0.0,0.0,0.0,0.0,0.0,0.0,0.0,0.0,0.0,0.0,0.0,0.0,0.0,0.0,0.0,0.0,0.0,0.0,0.0,0.0,0.0,0.0,0.0,0.0,0.0,0.0,0.0,0.0,0.0,0.0,0.0,0.0,0.0,0.0,0.5858,0.7036,0.9889,1.0264,1.0293,1.0292,1.0217,0.9425,0.7705,0.7541,0.0,0.0,0.0,0.0,0.0,0.0,0.0,0.0,0.0,0.0,0.0,0.0,0.0,0.0,0.0,0.0,0.0,0.0,0.0,0.0,0.0,0.0,0.0,0.0,0.0,0.0,0.0,0.0,0.0,0.0,0.0,0.0,0.0,0.0,0.0,0.0,0.0,0.0,0.0,0.0,0.0,0.0,0.0,0.0,0.0,0.0,0.0,0.0,0.0,0.0,0.0,0.0,0.0,0.0,0.0,0.0,0.0,0.0,0.0,0.0,0.0,0.0,0.0,0.0,0.0,0.0,0.0,0.0,0.0,0.0,0.0,0.0,0.0,0.0,0.0,0.0,0.0,0.0,0.0,0.0,0.0,0.0,0.0,0.0,0.0,0.0,0.0,0.0,0.0,0.0,0.0,0.0,0.0,0.0,0.0,0.0,0.0,0.0,0.0,0.0,0.0,0.0,0.7425,0.8382,1.0039,1.0251,1.029,1.0293,1.0045,0.9212,0.7672,0.7311,0.0,0.0,0.0,0.0,0.0,0.0,0.0,0.0,0.0,0.0,0.0,0.0,0.0,0.0,0.0,0.0,0.0,0.0,0.0,0.0,0.0,0.0,0.0,0.0,0.0,0.0,0.0,0.0,0.0,0.0,0.0,0.0,0.0,0.0,0.0,0.0,0.0,0.0,0.0,0.0,0.0,0.0,0.0,0.0,0.0,0.0,0.0,0.0,0.0,0.0,0.0,0.0,0.0,0.0,0.0,0.0,0.0,0.0,0.0,0.0,0.0,0.0,0.0,0.0,0.0,0.0,0.0,0.0,0.0,0.0,0.0,0.0,0.0,0.0,0.0,0.0,0.0,0.0,0.0,0.0,0.0,0.0,0.0,0.0,0.0,0.0,0.0,0.0,0.0,0.0,0.0,0.0,0.0,0.0,0.0,0.0,0.0,0.0,0.0,0.0,0.0,0.0,0.8397,0.9824,1.0157,1.0251,1.0293,1.0307,0.944,0.8501,0.7569,0.6682,0.0,0.0,0.0,0.0,0.0,0.0,0.0,0.0,0.0,0.0,0.0,0.0,0.0,0.0,0.0,0.0,0.0,0.0,0.0,0.0,0.0,0.0,0.0,0.0,0.0,0.0,0.0,0.0,0.0,0.0,0.0,0.0,0.0,0.0,0.0,0.0,0.0,0.0,0.0,0.0,0.0,0.0,0.0,0.0,0.0,0.0,0.0,0.0,0.0,0.0,0.0,0.0,0.0,0.0,0.0,0.0,0.0,0.0,0.0,0.0,0.0,0.0,0.0,0.0,0.0,0.0,0.0,0.0,0.0,0.0,0.0,0.0,0.0,0.0,0.0,0.0,0.0,0.0,0.0,0.0,0.0,0.0,0.0,0.0,0.0,0.0,0.0,0.0,0.0,0.0,0.0,0.0,0.0,0.0,0.0,0.0,0.0,0.0,0.0,0.0,0.0,0.0,0.8486,0.9319,0.0,1.0228,1.0038,0.9541,0.9062,0.8286,0.7073,0.0,0.0,0.0,0.0,0.0,0.0,0.0,0.0,0.0,0.0,0.0,0.0,0.0,0.0,0.0,0.0,0.0,0.0,0.0,0.0,0.0,0.0,0.0,0.0,0.0,0.0,0.0,0.0,0.0,0.0,0.0,0.0,0.0,0.0,0.0,0.0,0.0,0.0,0.0,0.0,0.0,0.0,0.0,0.0,0.0,0.0,0.0,0.0,0.0,0.0,0.0,0.0,0.0,0.0,0.0,0.0,0.0,0.0,0.0,0.0,0.0,0.0,0.0,0.0,0.0,0.0,0.0,0.0,0.0,0.0,0.0,0.0,0.0,0.0,0.0,0.0,0.0,0.0,0.0,0.0,0.0,0.0,0.0,0.0,0.0,0.0,0.0,0.0,0.0,0.0,0.0,0.0,0.0,0.0,0.0,0.0,0.0,0.0,0.0,0.0,0.0,0.0,0.8376,0.883,0.9317,0.0,1.0195,0.9871,0.9046,0.8775,0.8069,0.6746,0.0,0.0,0.0,0.0,0.0,0.0,0.0,0.0,0.0,0.0,0.0,0.0,0.0,0.0,0.0,0.0,0.0,0.0,0.0,0.0,0.0,0.0,0.0,0.0,0.0,0.0,0.0,0.0,0.0,0.0,0.0,0.0,0.0,0.0,0.0,0.0,0.0,0.0,0.0,0.0,0.0,0.0,0.0,0.0,0.0,0.0,0.0,0.0,0.0,0.0,0.0,0.0,0.0,0.0,0.0,0.0,0.0,0.0,0.0,0.0,0.0,0.0,0.0,0.0,0.0,0.0,0.0,0.0,0.0,0.0,0.0,0.0,0.0,0.0,0.0,0.0,0.0,0.0,0.0,0.0,0.0,0.0,0.0,0.0,0.0,0.0,0.0,0.0,0.0,0.0,0.0,0.0,0.0,0.0,0.0,0.0,0.0,0.0,0.0,0.0,0.0,0.0,0.8717,0.9519,1.0137,1.0195,1.0184,0.9829,0.8967,0.8517,0.7776,0.0,0.0,0.0,0.0,0.0,0.0,0.0,0.0,0.0,0.0,0.0,0.0,0.0,0.0,0.0,0.0,0.0,0.0,0.0,0.0,0.0,0.0,0.0,0.0,0.0,0.0,0.0,0.0,0.0,0.0,0.0,0.0,0.0,0.0,0.0,0.0,0.0,0.0,0.0,0.0,0.0,0.0,0.0,0.0,0.0,0.0,0.0,0.0,0.0,0.0,0.0,0.0,0.0,0.0,0.0,0.0,0.0,0.0,0.0,0.0,0.0,0.0,0.0,0.0,0.0,0.0,0.0,0.0,0.0,0.0,0.0,0.0,0.0,0.0,0.0,0.0,0.0,0.0,0.0,0.0,0.0,0.0,0.0,0.0,0.0,0.0,0.0,0.0,0.0,0.0,0.0,0.0,0.0,0.0,0.0,0.0,0.0,0.0,0.0,0.0,0.0,0.0,0.0,0.9602,0.9927,1.0117,1.0128,0.9613,0.8903,0.7988,0.7239,0.5932,0.3845,0.0,0.0,0.0,0.0,0.0,0.0,0.0,0.0,0.0,0.0,0.0,0.0,0.0,0.0,0.0,0.0,0.0,0.0,0.0,0.0,0.0,0.0,0.0,0.0,0.0,0.0,0.0,0.0,0.0,0.0,0.0,0.0,0.0,0.0,0.0,0.0,0.0,0.0,0.0,0.0,0.0,0.0,0.0,0.0,0.0,0.0,0.0,0.0,0.0,0.0,0.0,0.0,0.0,0.0,0.0,0.0,0.0,0.0,0.0,0.0,0.0,0.0,0.0,0.0,0.0,0.0,0.0,0.0,0.0,0.0,0.0,0.0,0.0,0.0,0.0,0.0,0.0,0.0,0.0,0.0,0.0,0.0,0.0,0.0,0.0,0.0,0.0,0.0,0.0,0.0,0.0,0.0,0.0,0.0,0.0,0.0,0.0,0.0,0.0,0.0,0.0,0.0,1.0077,1.0383,1.0459,1.0096,0.9598,0.8934,0.8016,0.6962,0.5502,0.3459,0.0,0.0,0.0,0.0,0.0,0.0,0.0,0.0,0.0,0.0,0.0,0.0,0.0,0.0,0.0,0.0,0.0,0.0,0.0,0.0,0.0,0.0,0.0,0.0,0.0,0.0,0.0,0.0,0.0,0.0,0.0,0.0,0.0,0.0,0.0,0.0,0.0,0.0,0.0,0.0,0.0,0.0,0.0,0.0,0.0,0.0,0.0,0.0,0.0,0.0,0.0,0.0,0.0,0.0,0.0,0.0,0.0,0.0,0.0,0.0,0.0,0.0,0.0,0.0,0.0,0.0,0.0,0.0,0.0,0.0,0.0,0.0,0.0,0.0,0.0,0.0,0.0,0.0,0.0,0.0,0.0,0.0,0.0,0.0,0.0,0.0,0.0,0.0,0.0,0.0,0.0,0.0,0.0,0.0,0.0,0.0,0.0,0.0,0.0,0.0,0.0,0.0,1.0195,1.0789,1.0942,1.0085,0.9853,0.9452,0.8654,0.7327,0.5994,0.4707,0.0,0.0,0.0,0.0,0.0,0.0,0.0,0.0,0.0,0.0,0.0,0.0,0.0,0.0,0.0,0.0,0.0,0.0,0.0,0.0,0.0,0.0,0.0,0.0,0.0,0.0,0.0,0.0,0.0,0.0,0.0,0.0,0.0,0.0,0.0,0.0,0.0,0.0,0.0,0.0,0.0,0.0,0.0,0.0,0.0,0.0,0.0,0.0,0.0,0.0,0.0,0.0,0.0,0.0,0.0,0.0,0.0,0.0,0.0,0.0,0.1966,0.0,0.0,0.0,0.0,0.0,0.0,0.0,0.0,0.0,0.0,0.0,0.0,0.0,0.0,0.0,0.0,0.0,0.0,0.0,0.0,0.0,0.0,0.0,0.0,0.0,0.0,0.0,0.0,0.0,0.0,0.0,0.0,0.0,0.0,0.0,0.0,0.0,0.0,0.0,0.0,0.0,1.0127,1.0727,1.0866,0.9942,0.9267,0.879,0.8551,0.7054,0.5735,0.4818,0.0,0.0,0.0,0.0,0.0,0.0,0.0,0.0,0.0,0.0,0.0,0.0,0.0,0.0,0.0,0.0,0.0,0.0,0.0,0.0,0.0,0.0,0.0,0.0,0.0,0.0,0.0,0.0,0.0,0.0,0.0,0.0,0.0,0.0,0.0,0.0,0.0,0.0,0.0,0.0,0.0,0.0,0.0,0.0,0.0,0.0,0.0,0.0,0.0,0.0,0.0,0.0,0.0,0.0,0.0,0.0,0.0,0.0,0.0,0.0,0.0,0.0886,0.0,0.0,0.0,0.0,0.0,0.0,0.0,0.0,0.0,0.0,0.0,0.0,0.0,0.0,0.0,0.0,0.0,0.0,0.0,0.0,0.0,0.0,0.0,0.0,0.0,0.0,0.0,0.0,0.0,0.0,0.0,0.0,0.0,0.0,0.0,0.0,0.0,0.0,0.0,0.0,1.1169,1.1843,1.1989,1.1042,1.0238,0.9733,0.9698,0.8187,0.7051,0.6564,0.5252,0.0,0.0,0.0,0.0,0.0,0.0,0.0,0.0,0.0,0.0,0.0,0.0,0.0,0.0,0.0,0.0,0.0,0.0,0.0,0.0,0.0,0.0,0.0,0.0,0.0,0.0,0.0,0.0,0.0,0.0,0.0,0.0,0.0,0.0,0.0,0.0,0.0,0.0,0.0,0.0,0.0,0.0,0.0,0.0,0.0,0.0,0.0,0.0,0.0,0.0,0.0,0.0,0.0,0.0827,0.0627,0.0515,0.0567,0.0443,0.0186,0.0102,0.0059,-0.0011,0.0,0.0,0.0,0.0,0.0,0.0,0.0,0.0,0.0,0.0,0.0,0.0,0.0,0.0,0.0,0.0,0.0,0.0,0.0,0.0,0.0,0.0,0.0,0.0,0.0,1.4351,1.3189,0.0,0.0,0.0,0.0,0.0,0.0,0.0,0.0,0.0,0.0,0.0,0.0,1.2317,1.3034,1.3231,1.2306,1.1612,1.1166,1.1037,0.9661,0.8712,0.8454,0.6405,0.5085,0.0,0.0,0.0,0.0,0.0,0.0,0.0,0.0,0.0,0.0,0.0,0.0,0.0,0.0,0.0,0.0,0.0,0.0,0.0,0.0,0.0,0.0,0.0,0.0,0.0,0.0,0.0,0.0,0.0,0.0,0.0,0.0,0.5008,0.554,0.0,0.0,0.0,0.0,0.0,0.0,0.0,0.0,0.0,0.0,0.0,0.0,0.0,0.0,0.002,0.0695,0.0637,-0.0152,0.0424,0.0361,-0.026,-0.0247,-0.0389,-0.065,-0.077,0.0,-0.0282,-0.0715,0.0,0.0,0.0,0.0,0.0,0.0,0.0,0.0,0.0,0.0,0.0,0.0,0.0,0.0,0.0,0.0,0.0,0.0,0.0,0.0,0.0,0.0,1.6385,1.6313,1.5679,1.5064,0.0,1.2907,1.1082,1.1011,1.1107,0.0,0.0,0.0,0.0,0.0,0.0,0.0,1.2306,1.2964,1.3187,1.2296,1.2164,1.1844,1.1139,1.025,0.9401,0.8631,0.7451,0.6832,0.6908,0.6821,0.0,0.0,0.0,0.0,0.0,0.0,0.0,0.0,0.0,0.0,0.0,0.0,0.0,0.0,0.0,0.0,0.0,0.0,0.0,0.0,0.0,0.0,0.0,0.0,0.0,0.0,0.0,0.0,0.0,0.4442,0.5097,0.583,0.5569,0.5325,0.0,0.0,0.0,0.0,0.0,0.0,0.0,0.0,0.0,0.0959,0.1285,0.1192,0.0641,0.0891,0.0676,0.0,0.006,-0.0154,-0.0575,-0.0573,-0.0656,-0.0801,-0.071,-0.0552,-0.0374,-0.0704,-0.0767,-0.0625,0.0,0.0,0.0,0.0,0.2301,0.2999,0.4152,0.5156,0.0,0.0,0.0,0.0,0.0,0.0,0.0,0.0,0.0,0.0,0.0,0.0,0.0,1.7255,1.6703,1.6167,1.6126,1.4834,1.3549,0.0,1.3118,1.2979,1.2235,0.0,0.0,0.0,0.0,0.0,1.4987,1.5384,1.532,1.4476,1.4015,1.3438,1.2621,1.1402,1.0505,1.0092,0.8803,0.8058,0.809,0.7563,0.6943,0.0,0.0,0.0,0.0,0.0,0.0,0.0,0.0,0.0,0.0,0.0,0.0,0.0,0.0,0.0,0.0,0.0,0.0,0.0,0.0,0.0,0.0,0.0,0.0,0.0,0.0,0.0,0.0,0.4441,0.5093,0.5804,0.5781,0.5631,0.0,0.0,0.0,0.0,0.0,0.0,0.1161,0.0917,0.0942,0.1235,0.1125,0.1034,0.095,0.0682,0.0382,0.0033,-0.0396,-0.0733,-0.0956,-0.0965,-0.1028,-0.1111,-0.0865,-0.0708,-0.0604,-0.0673,-0.0549,-0.0282,0.0099,0.0619,0.1251,0.2239,0.3092,0.3957,0.5358,0.6419,0.7239,0.7827,0.0,1.0342,1.0086,0.0,0.0,0.0,0.0,1.677,1.7075,1.7599,1.8031,1.7966,1.7565,1.7195,1.7058,1.671,1.6098,0.0,1.4932,1.4674,1.3671,0.0,0.0,0.0,0.0,1.6409,1.7132,1.7273,1.71,1.6527,1.5731,1.4938,1.4147,1.2781,1.1861,1.1596,1.0235,0.9415,0.9358,0.8533,0.7688,0.6896,0.0,0.0,0.0,0.0,0.0,0.0,0.0,0.0,0.0,0.0,0.0,0.0,0.0,0.0,0.0,0.0,0.0,0.0,0.0,0.0,0.0,0.0,0.0,0.0,0.0,0.0,0.0,0.0,0.0,0.5585,0.5167,0.0,0.0,0.0,0.0,0.255,0.2025,0.1571,0.1215,0.0951,0.0804,0.0827,0.0761,0.0578,0.0247,-0.0017,-0.0315,-0.0649,-0.0999,-0.1336,-0.1646,-0.172,-0.1862,-0.2019,-0.1814,-0.1507,-0.1119,-0.0622,-0.0084,0.0465,0.0614,0.1234,0.2148,0.3086,0.387,0.4678,0.628,0.7113,0.7733,0.9265,1.0784,1.202,1.2202,1.3138,0.0,0.0,1.6079,1.691,1.7889,1.8163,1.8208,1.827,1.831,1.8296,1.8238,1.8241,1.7728,0.0,1.5723,1.587,1.5906,0.0,1.6481,1.6739,1.6916,1.7107,1.7259,1.7344,1.7396,1.7424,1.6704,1.5931,1.5195,1.4286,1.344,1.2671,1.1715,1.1173,1.1173,1.0321,0.9517,0.8774,0.7945,0.0,0.0,0.0,0.0,0.0,0.0,0.0,0.0,0.0,0.0,0.0,0.0,0.0,0.0,0.0,0.0,0.0,0.0,0.0,0.0,0.0,0.0,0.0,0.0,0.0,0.0,0.0,0.0,0.5243,0.4999,0.0,0.0,0.4117,0.3336,0.2619,0.2027,0.1397,0.0723,0.0627,0.0584,0.0541,0.0485,0.0259,-0.011,-0.043,-0.0844,-0.1346,-0.1648,-0.2091,-0.2655,-0.2417,-0.2399,-0.2515,-0.1979,-0.1493,-0.1023,-0.0545,-0.0041,0.0506,0.1208,0.1862,0.2552,0.3624,0.4388,0.5072,0.6431,0.7405,0.8371,1.0156,1.1329,1.2234,1.3352,1.4159,1.5009,1.6337,1.7076,1.7565,1.8023,1.8263,1.8406,1.8385,1.8448,1.8506,1.8428,1.8506,1.8547,1.834,1.8362,1.7964,1.6601,1.7749,1.8616,1.7778,1.8254,1.8777,1.8953,1.902,1.8896,1.8458,1.8147,1.7428,1.6087,1.524,1.4434,1.36,1.2742,1.2003,1.1449,1.11,1.0263,0.8932,0.8052,0.7253,0.0,0.0,0.0,0.0,0.0,0.0,0.0,0.0,0.0,0.0,0.0,0.0,0.0,0.0,0.0,0.0,0.0,0.0,0.0,0.0,0.0,0.0,0.0,0.0,0.0,0.0,0.4535,0.4853,0.4717,0.4609,0.46,0.3872,0.3109,0.2426,0.177,0.1117,0.0475,0.0324,0.0253,0.0235,0.0,-0.0327,-0.0732,-0.1235,-0.1763,-0.2309,-0.2683,-0.3109,-0.3564,-0.3276,-0.3144,-0.3109,-0.2504,-0.1923,-0.1369,-0.0861,-0.0252,0.0445,0.135,0.209,0.2778,0.3736,0.4472,0.5224,0.6773,0.8057,0.925,1.068,1.1474,1.2167,1.3581,1.446,1.5283,1.6712,1.7502,1.7936,1.7849,1.8213,1.8492,1.8246,1.8463,1.8715,1.8641,1.8734,1.8986,1.9467,1.9749,1.9536,1.8375,1.9577,2.0422,1.9552,1.9783,2.0118,2.0288,2.0145,1.9859,1.939,1.9131,1.8407,1.699,1.6174,1.5364,1.4492,1.3674,1.2986,1.2405,1.177,1.0906,0.9806,0.8562,0.7287,0.5963,0.0,0.0,0.0,0.0,0.0,0.0,0.0,0.0,0.0,0.0,0.0,0.0,0.0,0.0,0.0,0.0,0.0,0.0,0.0,0.0,0.0,0.0,0.0,0.3105,0.3695,0.4171,0.4426,0.4277,0.4106,0.3971,0.3111,0.2388,0.192,0.1198,0.0692,0.0492,0.0045,-0.0179,-0.0156,-0.0715,-0.1232,-0.1655,-0.2444,-0.3093,-0.3579,-0.4095,-0.4336,-0.4349,-0.427,-0.4092,-0.3826,-0.3478,-0.2903,-0.217,-0.1576,-0.0694,0.0335,0.1042,0.1916,0.2874,0.348,0.4216,0.5194,0.736,0.9036,1.0285,1.0825,1.1324,1.1888,1.2899,1.4034,1.5163,1.6192,1.7168,1.783,1.7371,1.7948,1.8467,1.7858,1.8356,1.8948,1.8913,1.9018,1.9122,1.914,1.9687,2.0388,2.1279,2.1589,2.1748,2.1903,2.1382,0.0,2.1061,2.0503,2.0135,2.0208,1.9564,1.8782,1.7901,1.7137,1.6292,1.5399,1.462,1.4153,1.4101,1.2471,1.1541,1.1468,0.9619,0.7498,0.5175,0.0,0.0,0.0,0.0,0.0,0.0,0.0,0.0,0.0,0.0,0.0,0.0,0.0,0.0,0.0,0.0,0.0,0.0,0.0,0.0,0.0,0.0,0.2176,0.2894,0.33,0.3584,0.3764,0.3466,0.3214,0.3075,0.2479,0.1898,0.1424,0.089,0.0369,-0.0122,-0.0282,-0.0627,-0.1245,-0.1623,-0.2197,-0.3043,-0.3696,-0.4304,-0.4871,-0.5115,-0.533,-0.5459,-0.5087,-0.4864,-0.4704,-0.4173,-0.352,-0.2797,-0.2054,-0.1188,-0.024,0.097,0.1999,0.289,0.3702,0.5177,0.6914,0.8075,0.9327,1.0485,1.0825,1.1347,1.2011,1.2988,1.3706,1.4411,1.5363,1.6055,1.6467,1.6446,1.6764,1.7196,1.7606,1.7989,1.8411,1.8925,1.9102,1.935,1.993,2.024,2.0293,2.003,2.0976,2.1475,2.0541,2.0245,0.0,2.0359,2.0203,2.0144,2.0269,2.0087,1.9632,1.8813,1.8571,1.7839,1.6331,1.6071,1.5429,1.4153,1.3632,1.2526,1.0677,1.0098,0.8897,0.0,0.0,0.0,0.0,0.0,0.0,0.0,0.0,0.0,0.0,0.0,0.0,0.0,0.0,0.0,0.0,0.0,0.0,0.0,0.0,0.0,0.0,0.1245,0.1675,0.2238,0.2688,0.2944,0.2917,0.2703,0.2488,0.2293,0.188,0.1422,0.0981,0.0512,0.0022,-0.0497,-0.0787,-0.1291,-0.2007,-0.2457,-0.3134,-0.4094,-0.4755,-0.542,-0.6073,-0.6304,-0.6456,-0.6556,-0.619,-0.592,0.0,-0.5068,-0.4377,-0.3578,-0.2721,-0.175,0.0,0.0,0.0,0.0,0.0,0.5628,0.737,0.831,0.9379,1.0411,1.0873,1.1392,1.2054,1.3075,1.3642,1.4136,1.5141,1.5678,1.5904,1.5679,1.6088,1.6576,1.6736,1.7403,1.8128,1.8635,1.9013,1.9392,1.9916,2.0347,0.0,1.9637,2.084,2.1643,2.0913,2.0872,2.0979,2.1096,2.0881,2.0751,2.08,2.0539,1.9999,1.9167,1.9158,0.0,0.0,0.0,1.5923,1.4177,1.4104,0.0,0.0,0.0,1.0672,0.9296,0.0,0.0,0.0,0.5562,0.5673,0.0,0.0,0.0,0.0,0.0,0.0,0.0,0.0,0.0,0.0,0.0,0.0,0.0,0.0,0.0,0.0,0.0865,0.1039,0.134,0.1902,0.2207,0.2037,0.1993,0.1887,0.1623,0.1316,0.0942,0.0542,0.0068,-0.0385,-0.0802,0.0,0.0,0.0,0.0,-0.4109,-0.4985,-0.5778,-0.6518,-0.7205,-0.7502,-0.7645,-0.7586,-0.7372,-0.7008,-0.6518,-0.6014,-0.5306,-0.4392,-0.3486,-0.2286,-0.0835,0.0565,0.1511,0.2351,0.4279,0.5778,0.7042,0.832,0.0,0.0,1.0977,1.1482,1.2024,1.3089,1.3654,1.412,1.5078,1.5552,1.5627,1.503,1.5617,1.6219,1.5773,1.6809,1.796,1.829,1.8875,1.9368,1.9512,2.0158,2.049,1.9825,2.0928,2.1936,2.2074,2.2255,2.241,2.2528,2.1981,2.1621,2.1641,0.0,0.0,1.9602,1.959,1.9219,1.8243,1.7346,1.6154,1.4606,1.4541,1.4137,1.326,1.3146,1.2665,1.1793,1.0814,0.9924,0.9067,0.7863,0.7092,0.0,0.0,0.0,0.0,0.0,0.0,0.0,0.0,0.0,0.0,0.0,0.0,0.0,0.0,0.0,0.0136,0.0374,0.0546,0.0599,0.0822,0.1088,0.1419,0.1402,0.1294,0.107,0.0801,0.0435,0.0,-0.0541,-0.106,-0.155,-0.216,0.0,-0.3518,-0.4351,-0.5233,-0.6147,-0.7342,-0.8066,-0.8379,0.0,0.0,-0.8211,-0.7841,-0.7383,-0.6816,-0.6609,-0.5927,-0.4901,-0.4194,-0.2469,-0.0147,0.1201,0.2192,0.3089,0.4886,0.6011,0.6896,0.8527,0.9626,1.0371,1.1043,1.1586,1.2081,1.2669,1.3121,0.0,1.3752,1.4102,1.4362,1.4232,1.4513,1.5121,1.6342,1.6922,1.7596,1.9022,1.9444,1.9583,1.9718,1.987,1.9981,1.9889,2.0609,2.1262,2.1445,2.1518,2.1837,2.2632,2.204,2.181,2.255,2.192,2.1659,2.2194,2.2265,2.1623,2.0099,1.8585,1.7599,1.726,1.7248,1.6841,1.5957,1.5264,1.4467,1.3588,1.2016,1.1157,1.0928,0.8446,0.762,0.0,0.0,0.0,0.0,0.0,0.0,0.0,0.0,0.0,0.0,0.0,-0.0795,-0.0802,0.0,-0.0438,-0.023,-0.0087,0.0045,0.0134,0.0268,0.047,0.0803,0.0918,0.0852,0.0582,0.0402,0.0023,-0.0647,-0.1003,-0.1576,-0.2403,-0.2966,-0.3604,-0.4433,-0.5297,-0.6142,-0.699,-0.7801,-0.846,-0.8942,-0.885,-0.8898,-0.9084,-0.8487,-0.8028,-0.7682,-0.7209,-0.65,-0.5554,-0.4124,-0.2292,-0.024,0.0875,0.2047,0.334,0.4875,0.5954,0.6917,0.8734,0.9817,1.0567,1.1273,1.1796,1.2231,1.2703,1.3052,1.3329,1.3509,1.3803,1.4078,1.4132,1.4295,1.4786,1.6097,1.6725,1.7424,1.8796,1.9426,1.9732,1.9816,1.9907,2.0095,2.0565,2.1014,2.1311,2.1359,2.2153,2.2917,2.3392,2.313,2.3075,2.3554,2.2871,2.2581,2.3014,2.3043,2.2507,2.1235,2.0354,1.9714,1.9263,1.8821,1.8415,1.8006,1.7112,1.6447,1.6052,1.4707,1.3824,1.3369,1.1489,1.0378,0.0,0.0,0.0,0.0,0.0,0.0,0.0,0.0,-0.1581,-0.1296,-0.1209,-0.1124,-0.0906,-0.0842,-0.074,-0.0488,-0.0405,-0.0337,-0.018,0.0,0.0157,0.0247,0.045,0.045,0.018,-0.0045,-0.047,-0.1244,-0.1527,-0.2143,-0.3204,-0.3692,-0.4323,-0.5153,-0.5966,-0.6743,-0.7443,-0.7881,-0.8488,-0.9213,-0.892,-0.9124,-0.971,-0.8985,-0.8515,-0.8275,-0.7414,-0.6661,-0.5845,-0.3821,-0.208,-0.058,0.0332,0.1752,0.3481,0.4758,0.5916,0.7091,0.8912,1.0046,1.077,1.1498,1.2024,1.2447,1.2906,1.3192,1.3411,1.3682,1.3931,1.4175,1.4301,1.4439,1.4818,1.5913,1.6683,1.7495,1.8644,1.9401,1.9885,1.9944,2.0184,2.0619,2.1331,2.1833,2.2072,2.1961,2.3237,2.4254,2.4382,2.4348,2.4352,2.4538,2.3825,2.3396,2.3575,2.3435,2.3046,2.2349,2.2142,2.1737,2.1032,2.0335,1.999,2.0038,1.8955,1.8423,1.8484,1.7384,1.6483,1.5776,1.4999,1.3712,-0.4251,-0.408,0.0,-0.3526,-0.3201,-0.2795,0.0,0.0,-0.1496,-0.1394,-0.1231,-0.1126,-0.1149,-0.1012,-0.0839,-0.0696,-0.0472,-0.0315,-0.036,-0.0045,0.009,-0.018,-0.0045,0.0045,-0.0067,-0.0667,-0.1221,-0.1617,-0.2262,-0.2974,-0.377,-0.4252,-0.4796,-0.5439,-0.6075,-0.6678,-0.7225,-0.8025,-0.872,-0.9294,-0.9431,-0.9472,-0.9443,-0.8983,-0.84,-0.7656,-0.6612,-0.5789,-0.5117,-0.3625,-0.2154,-0.0769,0.0228,0.1899,0.385,0.4967,0.6155,0.7478,0.9185,1.0258,1.0964,1.1659,1.2179,1.2649,1.3053,1.3362,1.362,1.3818,1.4083,1.4296,1.4368,1.4585,1.5159,1.6759,1.7311,1.7919,1.9574,1.9993,2.0087,2.0142,2.0853,2.1469,2.1565,2.2924,2.3969,2.3902,2.4064,2.4491,2.5331,2.476,2.4597,2.5365,2.4681,2.449,2.5247,2.4678,2.4211,2.4117,2.3387,2.29,2.2815,2.273,2.2672,2.2663,2.1044,2.02,2.0227,1.8566,1.7679,1.751,1.7402,1.6406,-0.4405,0.0,0.0,0.0,-0.3096,-0.2647,-0.2447,-0.2014,-0.1636,-0.1532,-0.1462,-0.1351,-0.122,-0.1163,-0.1029,0.0,-0.0472,-0.036,-0.0337,-0.0135,-0.0067,-0.0337,-0.0381,-0.0479,-0.067,-0.1127,-0.1729,-0.2402,-0.2743,-0.3286,-0.414,-0.4494,-0.4903,-0.5494,-0.6206,-0.6708,-0.7026,-0.7641,-0.8193,-0.8665,-0.8743,-0.898,-0.9332,-0.8738,-0.7942,-0.7029,-0.6244,-0.5439,-0.4656,-0.3477,-0.2163,-0.0773,0.0333,0.2089,0.4095,0.5049,0.6351,0.7864,0.9288,1.0405,1.1222,1.1824,1.232,1.2764,1.3158,1.3477,1.3761,1.3959,1.4201,1.4561,1.5213,1.5131,1.5432,1.7699,1.7912,1.8099,1.9846,2.0246,2.0276,2.0307,2.0657,2.1289,2.2294,2.3104,2.393,2.4919,2.504,2.5152,2.5551,2.5313,2.5449,2.6326,2.5632,2.5464,2.6347,2.5636,2.5375,2.5882,2.5102,2.4826,2.529,2.4366,2.386,2.3867,2.2594,2.1963,2.201,2.1235,2.0589,2.0064,1.9552,1.9162,-0.5058,0.0,0.0,-0.3805,-0.3178,-0.2662,-0.2641,-0.2218,-0.1815,-0.1667,-0.1607,-0.1524,-0.1274,-0.1185,0.0,-0.0627,-0.0404,-0.027,-0.0247,-0.0135,-0.018,-0.0471,-0.0706,-0.0975,-0.134,-0.16,-0.2119,-0.2954,-0.3046,-0.3447,-0.4307,-0.4526,-0.4865,-0.5394,-0.6052,-0.6466,-0.6695,-0.7017,-0.7427,-0.7945,-0.7959,-0.8303,-0.8898,-0.8201,-0.7461,-0.6669,-0.606,-0.5282,-0.437,-0.3331,-0.2092,-0.069,0.0462,0.2185,0.4143,0.5132,0.6594,0.8231,0.949,1.0562,1.1475,1.2014,1.2498,1.2946,1.3261,1.3744,1.4191,1.4141,1.449,1.5018,1.5611,1.5364,1.557,1.7999,1.8131,1.821,1.9941,2.0377,2.042,2.0413,2.0667,2.1344,2.2845,2.3305,2.3974,2.547,2.5668,2.5632,2.5639,2.5671,2.5948,2.6571,2.6086,2.6049,2.693,2.6412,2.6422,2.7296,2.6766,2.6685,2.7266,2.6104,2.534,2.5118,2.4438,2.3859,2.3426,2.3373,2.2821,2.1801,2.1163,2.1352,0.0,0.0,-0.5239,-0.4395,-0.3626,-0.3008,-0.2762,-0.2328,-0.1935,-0.1733,-0.1651,-0.1547,-0.1343,-0.1027,-0.0736,-0.0535,-0.0224,-0.0045,-0.009,-0.0045,-0.0202,-0.0736,-0.1025,-0.1412,0.0,-0.2152,-0.2442,-0.3048,-0.3166,-0.3528,-0.4248,-0.4366,-0.4642,-0.5206,-0.5414,-0.5734,-0.6129,-0.6121,-0.6552,-0.7312,-0.7312,-0.7549,-0.7936,-0.7384,-0.6966,-0.6669,-0.6075,-0.5226,-0.422,-0.3151,-0.1843,-0.042,0.0536,0.208,0.3976,0.5307,0.6933,0.8656,0.9779,1.08,1.1687,1.2209,1.2708,1.3139,1.3413,1.4268,1.5012,1.4383,1.5013,1.5716,1.5094,1.5011,1.5548,1.7317,1.778,1.8277,2.0016,2.0405,2.0413,2.0477,2.1188,2.204,2.294,2.3804,2.4664,2.5562,2.5693,2.5696,2.5703,2.5707,2.5717,2.5749,2.5729,2.6047,2.6937,2.6974,2.7323,2.8212,2.8235,2.8232,2.8265,2.8158,2.7721,2.6945,2.6826,2.5949,2.4263,2.4252,2.3512,2.2092,2.2053,2.266,-0.6318,0.0,-0.48,-0.3848,-0.3416,-0.3105,-0.2664,-0.2446,-0.2272,-0.2062,-0.2022,-0.1891,-0.1513,-0.1333,-0.109,-0.0579,-0.0359,-0.0247,-0.018,-0.0268,-0.0513,-0.1005,-0.1144,0.0,0.0,0.0,0.0,-0.3202,-0.3208,-0.3372,-0.3826,-0.4021,-0.4237,-0.4451,-0.4845,-0.5201,-0.5554,-0.5696,-0.6067,-0.664,-0.6921,-0.6977,-0.6901,-0.6678,-0.6268,-0.5734,-0.5036,-0.4231,-0.3289,-0.2311,-0.1209,-0.0057,0.0907,0.2246,0.3743,0.4962,0.6384,0.7947,0.9715,1.0978,1.1882,1.238,1.2783,1.3176,1.3575,1.4059,1.4463,1.4367,1.4744,1.5375,1.6328,1.626,1.6539,1.8876,1.9034,1.8971,2.0157,2.0428,2.048,2.0503,2.0745,2.1225,2.2141,2.2999,2.403,2.5478,2.5705,2.5693,2.5701,2.5704,2.5921,2.6493,2.6559,2.6915,2.7795,2.7866,2.824,2.9114,2.8621,2.8537,2.9079,2.8558,2.8119,2.7803,2.777,2.7186,2.6038,2.6026,2.5459,2.4444,2.5201,2.5356,-0.6531,-0.5752,-0.4902,-0.3717,-0.3275,-0.3046,-0.2664,-0.2577,-0.2507,-0.2307,-0.2285,-0.2198,-0.1843,-0.1752,-0.1507,-0.0866,-0.069,-0.0559,-0.0336,-0.0537,-0.087,-0.1252,-0.1385,0.0,0.0,0.0,0.0,-0.3126,-0.3051,-0.3107,-0.3331,-0.3528,-0.3691,-0.3881,-0.4205,-0.45,-0.4794,-0.5093,-0.5533,-0.6145,-0.649,-0.6551,-0.6367,-0.6293,-0.5974,-0.5428,-0.4647,-0.3789,-0.2881,-0.1841,-0.0805,0.0213,0.1218,0.2355,0.3603,0.5054,0.6446,0.7838,0.9566,1.0775,1.1647,1.2454,1.2946,1.3312,1.37,1.419,1.4603,1.4472,1.5062,1.5913,1.6753,1.6897,1.7344,1.9365,1.9445,1.9302,2.021,2.0428,2.0476,2.0494,2.0492,2.0798,2.1707,2.28,2.4048,2.5473,2.5705,2.5701,2.5693,2.5693,2.5908,2.6476,2.6542,2.6898,2.7756,2.8123,2.8672,2.9531,2.9336,2.9432,2.997,2.9472,2.9032,2.8668,2.8944,2.851,2.7332,2.7542,2.6941,2.564,2.698,2.7524,-0.7147,-0.641,-0.5473,-0.3966,-0.3236,-0.288,-0.2718,-0.2707,-0.2659,-0.2464,-0.249,-0.2512,0.0,0.0,-0.1945,-0.1328,-0.1152,-0.0975,-0.0579,-0.0847,-0.1208,0.0,0.0,0.0,0.0,0.0,0.0,-0.282,0.0,-0.2689,-0.2867,-0.2878,-0.3078,-0.3482,-0.3551,-0.3719,-0.3923,-0.4392,-0.5055,-0.5882,-0.6098,-0.6199,-0.6253,-0.6199,-0.6005,-0.5674,-0.4812,-0.3889,-0.2938,-0.1664,-0.0549,0.0448,0.1448,0.245,0.3596,0.5547,0.7056,0.8248,0.9406,1.0275,1.1093,1.2461,1.3174,1.3528,1.3743,1.462,1.5384,1.4696,1.587,1.7178,1.6459,1.6965,1.7895,1.8831,1.9064,1.931,2.02,2.0386,2.0405,2.0476,2.0506,2.0796,2.1718,2.3231,2.4641,2.5553,2.5697,2.5697,2.5698,2.5698,2.5698,2.5696,2.5742,2.6097,2.6939,2.783,2.8728,2.9552,3.035,3.0832,3.0897,3.0849,3.0409,2.9578,3.0321,2.9868,2.8176,2.8741,2.7899,2.5815,2.7421,2.9078,-0.6346,-0.5632,-0.4851,-0.3608,-0.3161,-0.2978,-0.2698,-0.2667,-0.2745,-0.2896,-0.3105,-0.3247,0.0,0.0,0.0,-0.1818,-0.1372,0.0,-0.0825,-0.1005,0.0,0.0,0.0,-0.1839,-0.2103,-0.1997,0.0,0.0,-0.2304,-0.2502,-0.26,-0.2695,-0.2989,-0.3492,-0.3562,-0.3827,-0.4285,-0.4826,-0.5264,-0.554,-0.5866,-0.5936,-0.571,-0.5686,-0.5274,-0.458,-0.3844,-0.293,-0.1897,-0.0831,0.0125,0.0991,0.1892,0.3018,0.4275,0.5486,0.6761,0.8094,0.9646,1.0872,1.1887,1.2641,1.3174,1.356,1.3848,1.4298,1.4685,1.46,1.5474,1.6526,1.697,1.7823,1.8778,1.9687,1.9884,1.9961,2.0257,2.0334,2.0357,2.041,2.048,2.0976,2.2503,2.313,2.3942,2.5468,2.5703,2.5703,2.5707,2.5698,2.5693,2.569,2.6288,2.6763,2.6978,2.8397,2.9354,2.9591,3.0389,3.0866,3.0839,3.0859,3.0758,3.0474,3.0677,3.0234,2.9138,2.9252,2.8903,2.8152,2.8787,2.962,-0.61,-0.5452,-0.4757,-0.3751,-0.3465,-0.3311,-0.2983,-0.2986,-0.3113,-0.3364,-0.3479,0.0,0.0,0.0,0.0,0.0,0.0,0.0,-0.1094,-0.1163,-0.1363,0.0,-0.1673,0.0,-0.1862,-0.1759,-0.1641,0.0,-0.1972,-0.2241,-0.2311,-0.2342,-0.2577,-0.3049,-0.3107,-0.3489,-0.4221,-0.4704,-0.5106,-0.5453,-0.5596,-0.5591,-0.5373,-0.5091,-0.4594,-0.3901,0.0,-0.2272,-0.1377,-0.0127,0.0847,0.1656,0.2502,0.3622,0.4877,0.5931,0.7147,0.8465,1.0082,1.1262,1.2154,1.2783,1.3261,1.3655,1.3963,1.4193,1.4399,1.4549,1.5295,1.6176,1.6695,1.753,1.8373,1.8939,1.9328,1.9602,1.9706,2.0017,2.0288,2.0338,2.0415,2.0908,2.2283,2.2853,2.357,2.4921,2.5468,2.5702,2.5703,2.5697,2.5709,2.5693,2.6138,2.6571,2.6971,2.7891,2.8629,2.9006,2.9823,3.0274,3.0263,3.0658,3.084,3.0792,3.0791,3.0548,3.0024,2.9997,2.9888,2.9744,2.9901,3.0489,-0.6045,-0.5441,-0.4825,-0.4019,-0.378,-0.3647,-0.3367,-0.3411,-0.3562,-0.3766,0.0,-0.364,-0.3563,0.0,-0.2938,-0.2228,0.0,-0.1469,-0.1296,-0.1274,-0.1321,-0.148,-0.1524,-0.1521,-0.1491,-0.143,-0.1321,-0.1185,-0.1549,-0.1858,-0.1979,-0.1848,-0.1989,-0.2496,-0.2546,-0.3015,-0.398,-0.4256,-0.4705,-0.5304,-0.5187,-0.509,-0.5012,-0.4448,-0.3915,-0.3393,0.0,0.0,-0.1008,0.0441,0.1493,0.2271,0.307,0.4124,0.5373,0.6515,0.7713,0.8934,1.0467,1.1358,1.1959,1.2657,1.3227,1.3682,1.3849,1.4072,1.4332,1.4519,1.5253,1.6012,1.6082,1.6744,1.7454,1.7706,1.8295,1.8847,1.9092,1.97,2.0212,2.0289,2.0344,2.0735,2.1789,2.2591,2.3444,2.4428,2.5215,2.57,2.5709,2.5702,2.5702,2.5703,2.5697,2.6009,2.6756,2.6929,2.7376,2.8231,2.8945,2.9469,2.9767,3.0333,3.0698,3.0795,3.0796,3.0767,3.0706,3.0697,3.0697,3.0692,3.0697,3.1215,-0.5277,-0.4866,-0.4425,-0.3674,-0.3396,-0.3306,-0.3382,-0.3453,0.0,0.0,0.0,-0.3918,-0.3848,-0.3353,0.0,-0.2263,0.0,0.0,0.0,0.0,-0.1208,0.0,0.0,0.0,0.0,0.0,0.0,0.0,0.0,0.0,-0.133,-0.1235,-0.1578,-0.2482,-0.2722,-0.3175,-0.3897,-0.3914,-0.4057,-0.4335,-0.4323,-0.4271,-0.4194,-0.3757,-0.3184,-0.2491,-0.1948,0.0,-0.0159,0.0791,0.1536,0.2191,0.2935,0.4134,0.5541,0.6367,0.7392,0.8572,0.9902,1.0613,1.103,1.1659,1.2538,1.3308,1.2959,1.3498,1.427,1.4458,1.5199,1.5943,1.6003,1.6704,1.7595,1.8403,1.8669,1.8935,1.9735,2.0054,2.0215,2.0295,2.0346,2.0924,2.2594,2.2997,2.3645,2.5238,2.5598,2.5703,2.5691,2.5701,2.5702,2.5694,2.5709,2.5751,2.5916,2.6596,2.7375,2.8242,2.8432,2.9168,3.0601,3.0123,3.0128,3.0781,3.0807,3.0784,3.0784,3.073,3.0697,3.07,3.0703,3.0785,-0.5147,-0.4772,-0.4381,-0.4034,-0.3922,-0.3878,-0.3876,0.0,0.0,0.0,0.0,-0.398,-0.3965,0.0,0.0,0.0,0.0,0.0,0.0,0.0,0.0,0.0,0.0,0.0,0.0,0.0,0.0,0.0,0.0,0.0,-0.0803,-0.0936,-0.1318,-0.2015,-0.2324,-0.2765,-0.3382,-0.3491,-0.3551,-0.358,-0.3552,-0.3351,-0.3058,-0.2693,-0.2211,-0.1652,-0.1223,0.0,0.0223,0.1068,0.1954,0.2841,0.3429,0.4474,0.5767,0.6598,0.7461,0.8398,0.9729,1.0433,1.0685,1.0587,1.175,1.3177,1.3091,1.3528,1.4101,1.4282,1.4684,1.5088,1.5184,1.5596,1.6223,1.714,1.8049,1.8961,1.9848,2.0098,2.0171,2.0219,2.0301,2.0642,2.1536,2.2453,2.3341,2.4222,2.5115,2.5694,2.5703,2.5703,2.5703,2.5697,2.5691,2.5871,2.6348,2.6348,2.6894,2.822,2.8298,2.8884,3.0173,3.0228,3.0425,3.084,3.0821,3.0806,3.0794,3.0736,3.0671,3.0645,3.0645,3.0873,-0.5108,-0.4677,-0.4318,-0.4318,-0.4363,-0.436,-0.4336,-0.4249,0.0,0.0,-0.4289,-0.3952,-0.3917,0.0,0.0,0.0,0.0,0.0,0.0,0.0,0.0,0.0,0.0,0.0,0.0,0.0,0.0,0.0,0.0,0.0,-0.0267,-0.0647,-0.1011,-0.1439,-0.1784,-0.2205,-0.2723,-0.298,-0.3035,-0.2888,-0.2794,-0.2476,-0.1991,-0.1647,-0.1292,-0.0914,-0.049,0.0,0.0,0.1312,0.2288,0.3293,0.3727,0.4578,0.5683,0.6482,0.7229,0.8026,0.9355,1.0076,1.0358,0.998,1.1227,1.2901,1.2904,1.3309,1.383,1.4051,1.4183,1.4283,1.4444,1.4574,1.4929,1.598,1.7482,1.8888,1.9771,2.0007,2.0088,2.0183,2.0246,2.0372,2.0634,2.1964,2.3086,2.3334,2.468,2.5671,2.5703,2.5702,2.5703,2.5699,2.5693,2.597,2.6659,2.609,2.6364,2.792,2.8026,2.8496,2.957,3.0214,3.0644,3.0878,3.0823,3.0794,3.0779,3.073,3.0668,3.0604,3.0595,3.0917,-0.479,-0.4313,-0.3999,-0.3813,-0.3873,-0.4043,-0.4323,0.0,0.0,-0.4561,-0.4191,-0.3772,-0.3654,-0.2957,0.0,0.0,0.0,0.0,0.0,0.0,0.0,0.0,0.0,0.0,0.0,0.0,0.0,0.0,0.0,0.0,0.0334,-0.0067,-0.0495,-0.0947,-0.1352,-0.1767,-0.2183,-0.2384,-0.2384,-0.218,-0.1989,-0.1724,-0.1366,-0.0983,-0.0668,-0.0446,0.0089,0.0,0.0,0.1572,0.2164,0.2803,0.3072,0.388,0.4931,0.5269,0.6077,0.7153,0.8125,0.8936,0.9636,1.044,1.1403,1.2109,1.1222,1.212,1.3509,1.3763,1.3979,1.4157,1.4362,1.4456,1.494,1.6594,1.7781,1.8756,1.963,1.987,1.9969,2.0162,2.0246,2.0571,2.1435,2.2366,2.3291,2.4144,2.5044,2.5625,2.5693,2.5694,2.5699,2.5709,2.5707,2.5732,2.5818,2.5753,2.6106,2.7051,2.7129,2.7871,2.9529,2.9677,3.0062,3.0784,3.0802,3.0774,3.0701,3.0711,3.066,3.0608,3.053,3.0559,-0.4739,-0.4342,-0.412,-0.4117,-0.407,-0.4098,-0.4441,0.0,-0.4338,-0.4601,-0.433,-0.3945,-0.3662,-0.3014,-0.2349,0.0,0.0,0.0,0.0,0.0,0.0,0.0,0.0,0.0,0.0,0.0,0.0,0.0,0.0,0.0,0.0512,0.0022,-0.0436,-0.0839,-0.1111,-0.1301,-0.1387,-0.1448,-0.1304,-0.0945,-0.062,-0.0401,-0.0266,0.0047,0.0209,0.0222,0.0468,0.0,0.0,0.1957,0.2635,0.3566,0.3664,0.4242,0.5127,0.5802,0.6575,0.7453,0.8394,0.9151,0.9738,1.0004,1.0793,1.1574,1.1124,1.1694,1.2471,1.2287,1.3025,1.3779,1.3505,1.4307,1.535,1.6134,1.7368,1.8503,1.8933,1.9449,1.9892,2.0059,2.0162,2.0539,2.1481,2.2404,2.3298,2.4204,2.506,2.5619,2.5648,2.5684,2.5703,2.5707,2.5697,2.57,2.57,2.57,2.6074,2.6948,2.7499,2.833,2.9558,3.0101,3.0501,3.0781,3.0793,3.0778,3.0691,3.0626,3.0559,3.0488,3.0409,3.0386,-0.4868,-0.4535,-0.435,-0.4289,-0.4222,-0.4238,0.0,0.0,-0.4387,-0.4662,-0.4391,-0.3995,-0.3619,-0.3034,-0.2404,-0.1707,0.0,-0.0865,0.0,0.0,0.0,0.0,0.0,0.0,0.0,0.0,0.0,0.0,0.0,0.0,0.0,0.032,-0.0094,-0.0608,-0.0693,-0.0707,-0.0669,-0.0451,-0.0148,0.0222,0.0635,0.0865,0.0999,0.1227,0.1298,0.126,0.0,0.0,0.0,0.2742,0.3344,0.4218,0.4316,0.4733,0.5414,0.6249,0.6959,0.7643,0.8645,0.9312,0.9766,0.9904,1.0413,1.0943,1.1002,1.1537,1.2057,1.1771,1.2641,1.3507,1.2922,1.3935,1.5207,1.5599,1.6607,1.7575,1.7969,1.874,1.9411,1.9576,1.9917,2.0397,2.1077,2.1952,2.2811,2.3442,2.4499,2.5215,2.5226,2.5472,2.5678,2.5698,2.5699,2.5703,2.5702,2.5937,2.6249,2.6595,2.7929,2.8838,2.9207,3.0274,3.069,3.0295,3.0375,3.0164,2.9666,2.9984,3.0115,3.0059,3.0213,3.0292,-0.518,-0.4836,-0.466,-0.4149,-0.4143,-0.436,0.0,0.0,-0.4407,-0.4733,-0.4321,-0.3807,-0.3454,-0.3018,-0.2458,-0.1726,-0.1264,0.0,0.0,0.0,0.0,0.0,0.0,0.0,0.0,0.0,0.0,0.0,0.0,0.0,0.0,0.1008,0.075,-0.018,0.0052,0.0081,-0.0101,0.0626,0.1054,0.1186,0.1587,0.1992,0.238,0.2519,0.2662,0.0,0.0,0.0,0.0,0.4027,0.4303,0.4513,0.4785,0.517,0.565,0.6208,0.6782,0.7451,0.8525,0.9122,0.9563,1.0478,1.0496,1.0172,1.0515,1.1539,1.2633,1.2836,1.3193,1.3382,1.2836,1.331,1.4175,1.5164,1.5474,1.58,1.6791,1.7701,1.8385,1.8653,1.9458,2.0126,2.0192,2.0981,2.1636,2.1727,2.3198,2.4315,2.4316,2.507,2.5628,2.5697,2.5696,2.5703,2.5703,2.6484,2.6621,2.5762,2.8144,2.9199,2.8359,2.9904,3.0264,2.9137,2.9372,2.8765,2.7249,2.862,2.9274,2.9228,2.9963,3.0267,-0.4838,-0.4533,-0.4415,-0.4461,-0.4424,-0.4434,-0.4634,0.0,-0.4541,-0.4483,-0.4281,-0.3846,-0.2951,-0.2662,-0.2073,-0.0548,-0.0239,0.0,0.0,0.0,0.0,0.0,0.0,0.0,0.0,0.0,0.0,0.0,0.0,0.0,0.0,0.1603,0.1446,0.0978,0.1263,0.1598,0.1933,0.2169,0.2502,0.2901,0.3274,0.3371,0.3232,0.3649,0.0,0.0,0.0,0.0,0.0,0.5127,0.5362,0.5786,0.5832,0.6225,0.6791,0.6965,0.7648,0.855,0.8803,0.9352,1.0001,1.0282,1.0569,1.079,1.0903,1.1275,1.1816,1.2722,1.2705,1.2537,1.3096,1.3463,1.3811,1.4328,1.4948,1.5551,1.6015,1.683,1.7701,1.8485,1.8953,1.9611,2.0875,2.1359,2.181,2.2494,2.3054,2.363,2.4224,2.4572,2.5013,2.5625,2.571,2.5694,2.5702,2.5957,2.5996,2.5723,2.7031,2.7695,2.742,2.8847,2.9269,2.8496,2.8149,2.7912,2.7755,2.8144,2.8298,2.8195,2.902,2.9404,-0.4683,-0.4621,-0.4539,-0.4545,-0.448,0.0,0.0,0.0,-0.45,-0.4333,-0.4075,-0.3588,-0.2699,-0.233,-0.1699,-0.0307,0.0065,0.0,0.0,0.0,0.0,0.0,0.0,0.0,0.0,0.0,0.0,0.0,0.0,0.0,0.0,0.2195,0.2283,0.2184,0.2303,0.2482,0.2664,0.3201,0.3539,0.3662,0.4192,0.4369,0.4284,0.4666,0.0,0.0,0.0,0.0,0.0,0.617,0.6264,0.6433,0.6728,0.7027,0.7348,0.7704,0.8235,0.8835,0.91,0.9487,0.9852,1.0145,1.0605,1.1085,1.1164,1.1335,1.1602,1.2215,1.2297,1.2321,1.2774,1.3159,1.3526,1.3824,1.4381,1.4994,1.5535,1.6398,1.7355,1.8373,1.8928,1.9592,2.0775,2.1026,2.129,2.1894,2.2268,2.2807,2.3689,2.4122,2.4704,2.557,2.566,2.5668,2.5701,2.5996,2.6055,2.5722,2.6835,2.7342,2.7002,2.8132,2.8431,2.7717,2.7291,2.704,2.6987,2.7218,2.7447,2.7676,2.8224,2.8466,0.0,-0.4883,-0.4931,-0.4426,-0.4395,-0.4501,-0.4581,0.0,0.0,-0.4252,-0.3709,-0.3108,-0.2592,-0.1982,-0.1328,-0.066,0.0,0.0,0.0,0.0,0.0,0.0,0.0,0.0,0.0,0.0,0.0,0.0,0.0,0.0,0.0,0.2679,0.2995,0.3157,0.2998,0.2753,0.246,0.3761,0.4168,0.3682,0.4433,0.5011,0.5417,0.5559,0.0,0.0,0.0,0.0,0.0,0.7038,0.6978,0.6565,0.7326,0.7521,0.7424,0.8259,0.8398,0.835,0.9199,0.933,0.9247,0.9939,1.0465,1.0861,1.1156,1.1549,1.1797,1.1512,1.2021,1.2539,1.2052,1.2538,1.3261,1.3591,1.3791,1.4186,1.5256,1.6193,1.7114,1.8139,1.9039,1.9714,1.9954,2.006,2.015,2.0269,2.0996,2.1855,2.2797,2.3681,2.4544,2.5411,2.5552,2.5632,2.5684,2.6439,2.6561,2.5738,2.7223,2.7744,2.6939,2.7628,2.7634,2.681,2.6602,2.6069,2.5206,2.588,2.6626,2.742,2.7475,2.7513,-0.3901,0.0,-0.4425,-0.4445,-0.4395,-0.4391,0.0,0.0,0.0,0.0,0.0,-0.2559,-0.1629,-0.1192,-0.0562,0.0,0.0,0.0,0.0,0.0,0.0,0.0,0.0,0.0,0.0,0.0,0.0,0.0,0.0,0.0,0.0,0.2104,0.2095,0.1921,0.1872,0.2553,0.4043,0.433,0.4468,0.4454,0.4746,0.5048,0.5417,0.5582,0.0,0.0,0.0,0.0,0.7017,0.7273,0.7303,0.7168,0.7111,0.7242,0.7433,0.7184,0.7282,0.7528,0.7424,0.7829,0.8401,0.8742,0.8815,0.8924,0.9642,1.0694,1.1615,1.1737,1.1938,1.2118,1.2249,1.2595,1.2982,1.3312,1.3653,1.3994,1.4374,1.4788,1.5369,1.6391,1.6855,1.7511,1.8859,1.916,1.9438,2.0119,2.0481,2.101,2.1892,2.2768,2.3645,2.451,2.5211,2.5615,2.5624,2.5866,2.591,2.5633,2.6062,2.62,2.5931,2.6112,2.6075,2.5762,2.4975,2.4445,2.4232,2.4307,2.4778,2.5627,2.6293,2.6624,-0.3577,-0.3807,-0.4065,-0.4122,-0.4094,-0.4101,-0.4211,0.0,0.0,0.0,0.0,0.0,-0.0966,0.0,0.0,0.0,0.0,0.0,0.0,0.0,0.0,0.0,0.0,0.0,0.0,0.0,0.0,0.0,0.0,0.0,0.0,0.0849,0.0695,0.0501,0.0579,0.1337,0.2841,0.2993,0.3043,0.2995,0.3167,0.3481,0.3893,0.412,0.4623,0.0,0.0,0.0,0.5344,0.5474,0.5411,0.5299,0.522,0.5291,0.5412,0.5274,0.5427,0.5652,0.5451,0.5893,0.6568,0.6694,0.6776,0.6952,0.7772,0.8407,0.915,1.0735,1.1014,1.0941,1.1215,1.1508,1.1789,1.2091,1.2391,1.286,1.3813,1.4183,1.4787,1.6186,1.6533,1.6949,1.7985,1.821,1.8439,1.8974,1.9143,1.9513,2.0396,2.1293,2.2187,2.3012,2.3883,2.4413,2.4413,2.4438,2.4793,2.5561,2.5619,2.5613,2.5564,2.5149,2.4621,2.4044,2.4209,2.3923,2.3158,2.3825,2.4233,2.4369,2.5243,2.5663,-0.332,-0.3441,-0.3577,-0.3598,-0.3619,-0.3654,-0.3646,0.0,0.0,0.0,0.0,0.0,0.0,0.0,0.0,0.0,0.0,0.0,0.0,0.0,0.0,0.0,0.0,0.0,0.0,0.0,0.0,0.0,0.0,0.0,0.0,-0.0702,-0.0933,-0.1206,-0.1081,-0.0731,-0.0195,0.0691,0.0944,0.0623,0.0846,0.1173,0.155,0.1832,0.2227,0.0,0.0,0.0,0.2434,0.2642,0.249,0.2115,0.2416,0.244,0.2367,0.2636,0.2821,0.2956,0.2943,0.3219,0.3633,0.3756,0.4012,0.4393,0.5164,0.5119,0.5334,0.8036,0.9021,0.9317,0.9497,0.9748,1.0009,1.0288,1.0474,1.101,1.2588,1.3055,1.3606,1.5088,1.5637,1.5942,1.6246,1.6663,1.7085,1.7373,1.7617,1.8011,1.8763,1.9685,2.0526,2.1202,2.2041,2.2571,2.259,2.2708,2.3398,2.488,2.5093,2.5201,2.5255,2.4334,2.3381,2.2393,2.3591,2.3503,2.2093,2.3454,2.3863,2.3413,2.4261,2.4639,-0.2505,-0.2305,-0.2273,-0.2951,-0.3078,-0.3013,-0.2886,0.0,0.0,0.0,0.0,0.0,0.0,0.0,0.0,0.0,0.0,0.0,0.0,0.0,0.0,0.0,0.0,0.0,0.0,0.0,0.0,0.0,0.0,0.0,0.0,0.0,-0.2621,-0.355,-0.3656,-0.4029,-0.4699,-0.1652,-0.0451,-0.1115,-0.0735,-0.073,-0.1027,-0.0632,-0.0176,0.0,0.0,-0.0095,-0.0575,-0.0047,-0.0326,-0.1072,-0.074,-0.0658,-0.0762,-0.1047,-0.1063,-0.0948,-0.0929,-0.1132,-0.1327,-0.0854,-0.0636,-0.0357,0.0611,0.0775,0.0819,0.175,0.4584,0.7341,0.7434,0.7711,0.8017,0.8276,0.8245,0.8223,0.8503,0.8512,0.8366,0.808,0.9214,1.0455,1.1113,1.3117,1.4959,1.5936,1.6918,1.7587,1.7721,1.8559,1.9189,1.9323,2.0118,2.0641,2.0713,2.1384,2.1893,2.213,2.2821,2.3505,2.4121,2.3183,2.255,2.2319,2.1773,2.14,2.1202,2.1334,2.1774,2.252,2.3289,2.3299,-0.1926,-0.1655,-0.1431,-0.1736,-0.1981,-0.214,-0.2117,0.0,0.0,0.0,0.0,0.0,0.0,0.0,0.0,0.0,0.0,0.0,0.0,0.0,0.0,0.0,0.0,0.0,0.0,0.0,0.0,0.0,0.0,0.0,0.0,0.0,-0.5115,-0.5643,-0.5763,-0.6013,-0.6392,-0.5246,-0.4329,-0.3673,-0.4026,-0.4287,-0.4479,-0.4649,-0.4603,-0.4356,0.0,-0.4475,-0.4599,-0.4532,-0.4635,-0.4835,-0.4943,-0.4903,-0.4817,-0.4839,-0.4865,-0.4852,-0.472,-0.4753,-0.4849,-0.4636,-0.4474,-0.4224,-0.35,-0.3481,-0.3556,-0.2886,-0.0227,0.2533,0.3072,0.3195,0.3301,0.3792,0.3835,0.3732,0.3671,0.3607,0.3441,0.3066,0.3641,0.4296,0.4631,0.5685,0.6647,0.7172,0.7779,0.8145,0.8147,0.9623,1.1082,1.2092,1.4253,1.6121,1.7423,1.8536,2.0018,2.2026,2.2479,2.2601,2.24,2.2286,2.1765,2.0742,2.1127,2.093,2.0084,2.0933,2.1368,2.1465,2.2305,2.2522,-0.1117,-0.0865,-0.055,-0.0569,-0.0958,-0.133,-0.1286,0.0,0.0,0.0,0.0,0.0,0.0,0.0,0.0,0.0,0.0,0.0,0.0,0.0,0.0,0.0,0.0,0.0,0.0,0.0,0.0,0.0,0.0,0.0,0.0,0.0,-0.7446,-0.7685,-0.7957,-0.8149,-0.829,-0.9134,-0.8496,-0.6379,-0.7286,-0.7916,-0.8259,-0.8712,-0.8926,-0.8957,-0.9111,-0.9015,-0.8815,-0.9198,-0.93,-0.9213,-0.9396,-0.9332,-0.9072,-0.8681,-0.8667,-0.8822,-0.8581,-0.8387,-0.8281,-0.8368,-0.8181,-0.7807,-0.7318,-0.7424,-0.7632,-0.7134,-0.5618,-0.3736,-0.1838,-0.1511,-0.1568,-0.1036,-0.0987,-0.1109,-0.1282,-0.1507,-0.1764,-0.2084,-0.1981,-0.1867,-0.1927,-0.1481,-0.1113,-0.1061,-0.0755,-0.0461,-0.0273,0.135,0.3106,0.4732,0.7315,1.0096,1.294,1.4433,1.6857,2.0754,2.1249,2.1202,2.0816,2.104,2.0682,1.9684,2.0598,2.0473,1.9261,2.0525,2.0882,2.04,2.1309,2.1663,0.0231,0.0452,0.0663,0.0239,-0.0364,0.0,-0.0382,-0.0353,0.0,0.0912,0.0,0.0,0.0,0.0,0.0,0.0,0.0,0.0,0.0,0.0,0.0,0.0,0.0,0.0,0.0,0.0,0.0,0.0,0.0,0.0,0.0,0.0,0.0,-0.9768,-1.0576,-1.1348,-1.2107,-1.2916,-1.1846,-0.8951,-0.9568,-1.0714,-1.2267,-1.2017,-1.1969,-1.2121,-1.2922,-1.3117,-1.2904,-1.3235,-1.3807,-1.4385,-1.3817,-1.3482,-1.3258,-1.2422,-1.2457,-1.2855,-1.2707,-1.2505,-1.2318,-1.2506,-1.2041,-1.133,-1.0801,-1.0836,-1.1156,-1.1596,-1.2014,-1.1263,-0.6514,-0.5267,-0.5211,-0.5098,-0.5401,-0.5778,-0.6059,-0.6828,-0.7753,-0.8635,-0.8146,-0.7681,-0.792,-0.6023,-0.438,-0.4203,-0.3324,-0.2407,-0.1659,-0.1312,-0.0787,0.0092,0.0525,0.2505,0.6848,0.8675,1.1396,1.5668,1.71,1.8407,1.9837,1.8928,1.9022,2.0388,1.9608,1.9162,1.9104,1.9179,1.9263,1.943,2.0286,2.0363,0.0814,0.1242,0.1667,0.1239,0.1032,0.0,0.0,0.0488,0.0846,0.1501,0.0,0.0,0.0,0.0,0.0,0.0,0.0,0.0,0.0,0.0,0.0,0.0,0.0,0.0,0.0,0.0,0.0,0.0,0.0,0.0,0.0,0.0,0.0,-1.2401,-1.2741,-1.3328,-1.4162,-1.5016,-1.4852,-1.3671,-1.3738,-1.4144,-1.4825,-1.5195,-1.5417,-1.554,-1.5848,-1.5903,-1.5741,-1.5905,-1.6079,-1.6222,-1.596,-1.5728,-1.5516,-1.5224,-1.5221,-1.5333,-1.5241,-1.5145,-1.5079,-1.5146,-1.5,-1.476,-1.4641,-1.4681,-1.4805,-1.4998,-1.5186,-1.4555,-1.1231,-1.0539,-1.0474,-0.9632,-1.0004,-1.0632,-1.0962,-1.1827,-1.2874,-1.3854,-1.3919,-1.3831,-1.3995,-1.335,-1.2807,-1.2776,-1.2419,-1.2046,-1.1681,-1.0802,-0.9637,-0.8162,-0.468,-0.1405,0.1213,0.3447,0.6393,1.0361,1.4878,1.7637,1.8159,1.7646,1.7577,1.8081,1.8036,1.8004,1.7968,1.8449,1.8771,1.893,1.939,1.9502,0.2201,0.2645,0.3087,0.2719,0.0,0.0,0.1568,0.1389,0.1468,0.185,0.0,0.0,0.0,0.0,0.0,0.0,0.0,0.0,0.0,0.0,0.0,0.0,0.0,0.0,0.0,0.0,0.0,0.0,0.0,0.0,0.0,0.0,0.0,0.0,-1.4987,-1.5427,-1.6043,-1.6897,-1.7298,-1.7266,-1.7579,-1.7444,-1.6971,-1.8048,-1.8436,-1.8269,-1.8515,-1.86,-1.852,-1.8556,-1.8621,-1.8672,-1.8335,-1.8259,-1.828,-1.7766,-1.7719,-1.7859,-1.7559,-1.7275,-1.706,-1.7096,-1.6958,-1.6794,-1.6872,-1.6912,-1.7017,-1.7495,-1.7355,-1.6838,-1.5761,-1.5056,-1.4412,-1.3511,-1.3795,-1.4335,-1.4677,-1.5478,-1.6387,-1.7187,-1.7696,-1.8024,-1.8115,-1.8338,-1.8513,-1.8586,-1.8632,-1.8546,-1.8247,-1.7305,-1.6064,-1.4506,-1.0678,-0.7345,-0.5176,-0.2569,0.064,0.4632,0.9603,1.3691,1.6608,1.6515,1.6421,1.6481,1.6747,1.6971,1.7105,1.7668,1.815,1.8528,1.8771,1.8964,0.4634,0.4853,0.5022,0.0,0.0,0.0,0.3197,0.2335,0.1613,0.0,0.0,0.0,0.0,0.0,0.0,0.0,0.0,0.0,0.0,0.0,0.0,0.0,0.0,0.0,0.0,0.0,0.0,0.0,0.0,0.0,0.0,0.0,0.0,0.0,-1.7362,-1.7849,-1.7912,-1.8709,-1.9116,-1.9122,-2.0727,-2.0534,-1.8783,-2.0446,-2.0798,-2.0164,-2.0969,-2.1355,-2.1417,-2.1333,-2.1741,-2.2294,-2.1226,-2.1334,-2.188,-2.0163,-2.0026,-2.06,-1.981,-1.9003,-1.8347,-1.8397,-1.7876,-1.7221,-1.7157,-1.7188,-1.7541,-1.9003,-1.8798,-1.8482,-2.0019,-1.8441,-1.6469,-1.6592,-1.6574,-1.6619,-1.693,-1.7527,-1.8111,-1.8454,-1.9163,-1.9743,-1.9892,-2.0079,-2.0229,-2.0284,-2.0412,-2.0201,-1.9412,-1.9258,-1.8886,-1.8019,-1.7734,-1.6129,-1.2477,-0.9577,-0.6046,-0.1543,0.0441,0.5707,1.5247,1.5361,1.5528,1.6148,1.5904,1.6079,1.6689,1.6751,1.723,1.809,1.8432,1.868,0.5929,0.5797,0.0,0.0,0.0,0.0,0.0,0.3144,0.0,0.0,0.0,0.0,0.0,0.0,0.0,0.0,0.0,0.0,0.0,0.0,0.0,0.0,0.0,0.0,0.0,0.0,0.0,0.0,0.0,0.0,0.0,0.0,0.0,0.0,-1.8589,-1.9018,-1.966,-1.9908,-2.0012,-2.0031,-2.1597,-2.1731,-2.0633,-2.1701,-2.207,-2.1877,-2.2119,-2.2225,-2.2236,-2.2223,-2.2342,-2.2498,-2.2129,-2.2123,-2.2246,-2.1736,-2.163,-2.1712,-2.1421,-2.1179,-2.0881,-2.0233,-1.9917,-1.9798,-1.9772,-1.9817,-2.0087,-2.1078,-2.1083,-2.0883,-2.1387,-2.0868,-1.9747,-1.7944,-1.7962,-1.831,-1.7982,-1.8586,-1.9202,-1.9261,-1.957,-1.9828,-1.9821,-2.005,-2.0222,-2.0293,-2.0412,-2.0414,-2.0173,-2.0136,-2.0,-1.9683,-1.9058,-1.8067,-1.6598,-1.4011,-1.0603,-0.6183,-0.3867,0.1299,1.0125,0.9876,1.0843,1.361,1.4057,1.4574,1.5222,1.5299,1.605,1.7452,1.7335,1.7755,0.7349,0.0,0.0,0.0,0.0,0.0,0.0,0.0,0.0,0.0,0.0,0.0,0.0,0.0,0.0,0.0,0.0,0.0,0.0,0.0,0.0,0.0,0.0,0.0,0.0,0.0,0.0,0.0,0.0,0.0,0.0,0.0,0.0,0.0,-1.9574,-1.9825,-2.036,-2.0701,-2.0875,-2.0901,-2.25,-2.2967,-2.246,-2.3263,-2.3438,-2.3145,-2.3479,-2.3433,-2.3144,-2.3498,-2.3629,-2.3587,-2.3187,-2.3183,-2.3379,-2.2978,-2.2778,-2.2722,-2.2664,-2.2443,-2.2054,-2.1477,-2.1357,-2.1419,-2.139,-2.1405,-2.1601,-2.241,-2.2346,-2.2099,-2.2407,-2.2191,-2.1463,-1.9831,-1.9614,-1.9675,-1.9355,-1.9503,-1.9686,-1.9668,-1.9794,-1.9889,-1.9839,-1.9992,-2.0161,-2.0274,-2.0408,-2.0505,-2.0546,-2.0527,-2.0481,-2.0432,-1.9915,-1.9406,-1.9011,-1.7018,-1.45,-1.1512,-0.9747,-0.5595,0.1609,0.4732,0.7633,1.0435,1.1474,1.2471,1.3519,1.3836,1.4669,1.6016,1.606,1.657,0.8787,0.0,0.0,0.0,0.0,0.0,0.0,0.0,0.0,0.0,0.0,0.0,0.0,0.0,0.0,0.0,0.0,0.0,0.0,0.0,0.0,0.0,0.0,0.0,0.0,0.0,0.0,0.0,0.0,0.0,0.0,0.0,0.0,-2.0292,-2.0373,-2.0415,-2.0417,-2.128,-2.1705,0.0,-2.3334,-2.4061,-2.4024,-2.4823,-2.4759,-2.4045,-2.4847,-2.4736,-2.4066,-2.4851,-2.5195,-2.5103,-2.4257,-2.436,-2.4885,-2.3973,-2.3634,-2.3634,-2.3629,-2.3107,-2.2436,-2.2322,-2.2289,-2.2293,-2.2219,-2.22,-2.238,-2.317,-2.2936,-2.2559,-2.3147,-2.2776,-2.22,-2.2053,-2.1301,-2.067,-2.076,-2.0197,-1.9718,-1.9763,-1.9856,-1.9896,-1.9889,-1.9958,-2.0078,-2.027,-2.0482,-2.0604,-2.0585,-2.0549,-2.0497,-2.0483,-2.0371,-2.0222,-2.0003,-1.8795,-1.7647,-1.6694,-1.597,-1.3398,-0.8507,-0.0468,0.4781,0.6713,0.8244,0.9873,1.1649,1.2358,1.3206,1.4186,1.4751,1.5261,0.0,0.8645,0.0,0.0,0.0,0.0,0.0,0.0,0.0,0.0,0.0,0.0,0.0,0.0,0.0,0.0,0.0,0.0,0.0,0.0,0.0,0.0,0.0,0.0,0.0,0.0,0.0,0.0,0.0,0.0,0.0,0.0,0.0,-2.0296,-2.0954,-2.1324,-2.1326,-2.2126,-2.2535,0.0,-2.3544,-2.3995,-2.3954,-2.4807,-2.5069,-2.4846,-2.5049,-2.501,-2.4858,-2.503,-2.5149,-2.516,-2.4854,-2.4841,-2.4974,-2.4769,-2.4652,-2.4592,-2.4538,-2.4392,-2.411,-2.3322,-2.3086,-2.3116,-2.2989,-2.3042,-2.3276,-2.4027,-2.412,-2.4029,-2.4115,-2.4039,-2.3927,-2.3786,-2.226,-2.0807,-2.0733,-2.0125,-1.9638,-1.963,-1.9775,-1.9873,-1.9825,-1.9915,-2.0078,-2.0263,-2.0993,-2.128,-2.0605,-2.0542,-2.0533,-2.0437,-2.04,-2.023,-1.9867,-1.9359,-1.8692,-1.7815,-1.6834,-1.5055,-1.2307,-0.789,-0.2941,0.2483,0.4443,0.6797,0.9632,1.0715,1.2187,1.3962,1.3787,1.4335,0.0,0.0,0.0,0.0,0.0,0.0,0.0,0.0,0.0,0.0,0.0,0.0,0.0,0.0,0.0,0.0,0.0,0.0,0.0,0.0,0.0,0.0,0.0,0.0,0.0,0.0,0.0,0.0,0.0,0.0,0.0,-2.0125,-2.037,-2.0861,-2.1309,-2.1756,-2.2177,-2.299,-2.3416,-2.3389,-2.4265,-2.461,-2.4528,-2.4954,-2.5118,-2.5101,-2.5082,-2.5051,-2.5038,-2.5044,-2.5076,-2.5088,-2.5038,-2.4993,-2.5012,-2.4959,-2.4931,-2.4884,-2.4813,-2.4787,-2.4666,-2.4142,-2.3931,-2.3882,-2.3797,-2.3849,-2.4011,-2.4385,-2.4513,-2.453,-2.4481,-2.4464,-2.4482,-2.4376,-2.3047,-2.1789,-2.1729,-2.0529,-1.9475,-1.9569,-1.9694,-1.9776,-1.9782,-1.9952,-2.0129,-2.0236,-2.0778,-2.1011,-2.056,-2.0527,-2.0527,-2.046,-2.043,-2.0296,-2.0054,-1.9783,-1.9465,-1.9042,-1.8324,-1.7325,-1.5962,-1.3441,-0.909,-0.2699,-0.0033,0.2858,0.6027,0.7949,1.0066,1.2313,1.2576,1.3183,0.0,0.0,0.0,0.0,0.0,0.0,0.0,0.0,0.0,0.0,0.0,0.0,0.0,0.0,0.0,0.0,0.0,0.0,0.0,0.0,0.0,0.0,0.0,0.0,0.0,0.0,0.0,0.0,0.0,0.0,-1.996,-2.006,-2.047,-2.1242,-2.1564,-2.209,-2.281,-2.3801,-2.4283,-2.4236,-2.5005,-2.5302,-2.5179,-2.5101,-2.5095,-2.5088,-2.5031,-2.5012,-2.5013,-2.4993,-2.5012,-2.5025,-2.498,-2.498,-2.498,-2.4945,-2.4931,-2.4898,-2.4842,-2.4787,-2.4729,-2.4682,-2.4568,-2.4411,-2.4394,-2.443,-2.4482,-2.4482,-2.4515,-2.4566,-2.4513,-2.4386,-2.4279,-2.4375,-2.3503,-2.2739,-2.2987,-2.106,-1.9338,-1.9512,-1.9592,-1.9649,-1.9763,-2.0097,-2.0307,-2.0184,-2.0452,-2.0633,-2.0504,-2.0487,-2.05,-2.0497,-2.0456,-2.0388,-2.0321,-2.0118,-2.0012,-2.0031,-1.9755,-1.9295,-1.8631,-1.71,-1.3698,-0.8212,-0.4601,-0.1124,0.2285,0.5152,0.78,1.0271,1.1382,1.2109,0.0,0.0,0.0,0.0,0.0,0.0,0.0,0.0,0.0,0.0,0.0,0.0,0.0,0.0,0.0,0.0,0.0,0.0,0.0,0.0,0.0,0.0,0.0,0.0,0.0,0.0,0.0,0.0,0.0,0.0,-1.9991,-2.0069,-2.0183,-2.0376,-2.1842,-2.2722,-2.2871,-2.4369,-2.5139,-2.513,-2.5182,-2.518,-2.5107,-2.5038,-2.5057,-2.5101,-2.5089,-2.5057,-2.4993,-2.5004,-2.5031,-2.5089,-2.4959,-2.494,-2.5012,-2.4991,-2.4991,-2.4966,-2.4912,-2.487,-2.4842,-2.4679,-2.4547,-2.4444,-2.4284,-2.4303,-2.4412,-2.4339,-2.4411,-2.45,-2.4447,-2.3892,-2.354,-2.4155,-2.3172,-2.2465,-2.375,-2.1477,-1.9235,-1.9319,-1.9532,-1.9682,-1.9713,-2.041,-2.0762,-2.0117,-2.0785,-2.115,-2.0495,-2.0453,-2.0508,-2.0501,-2.0499,-2.0457,-2.0394,-2.0355,-2.0289,-2.0184,-2.0069,-1.9599,-1.8639,-1.7487,-1.579,-1.3428,-0.8523,-0.3941,0.0206,0.3716,0.6603,0.8919,1.0655,1.1661,0.0,0.0,0.0,0.0,0.0,0.0,0.0,0.0,0.0,0.0,0.0,0.0,0.0,0.0,0.0,0.0,0.0,0.0,0.0,0.0,0.0,0.0,0.0,0.0,0.0,0.0,0.0,0.0,0.0,-2.0564,-2.0671,-2.0774,-2.0852,-2.0924,-2.2151,-2.3043,-2.3578,-2.4716,-2.5302,-2.5302,-2.5195,-2.5156,-2.5144,-2.5051,-2.4999,-2.5004,-2.4945,-2.4917,-2.4889,-2.4894,-2.4875,-2.4889,-2.4884,-2.4898,-2.4898,-2.4931,-2.4945,-2.4926,-2.4875,-2.4817,-2.4757,-2.4596,-2.4497,-2.441,-2.4247,-2.4266,-2.4321,-2.4228,-2.3971,-2.3708,-2.3637,-2.3046,-2.2545,-2.2879,-2.2434,-2.1877,-2.1662,-2.0254,-1.9067,-1.9168,-1.9328,-1.9494,-1.9536,-1.9963,-2.0224,-1.9936,-2.0317,-2.0593,-2.0357,-2.0371,-2.0423,-2.0485,-2.0506,-2.0492,-2.0455,-2.0419,-2.0367,-2.0313,-2.0139,-1.9602,-1.8639,-1.7146,-1.5624,-1.4143,-1.0798,-0.7017,-0.2887,0.1046,0.5028,0.903,1.0221,1.0956,0.0,0.0,0.0,0.0,0.0,0.0,0.0,0.0,0.0,0.0,0.0,0.0,0.0,0.0,0.0,0.0,0.0,0.0,0.0,0.0,0.0,0.0,0.0,0.0,0.0,0.0,0.0,0.0,0.0,-2.1387,-2.1509,-2.1649,-2.1732,-2.1836,-2.2661,-2.3429,-2.4091,-2.4908,-2.5282,-2.528,-2.516,-2.5144,-2.5156,-2.5051,-2.494,-2.487,-2.4842,-2.4832,-2.4806,-2.4791,-2.4742,-2.4707,-2.4798,-2.4827,-2.4813,-2.4861,-2.487,-2.487,-2.4817,-2.476,-2.4645,-2.4321,-2.4312,-2.432,-2.3769,-2.3768,-2.3879,-2.3583,-2.3125,-2.2718,-2.2682,-2.211,-2.1592,-2.1828,-2.1553,-2.091,-1.9756,-1.915,-1.8878,-1.9049,-1.9191,-1.928,-1.9316,-1.9467,-1.9636,-1.9707,-1.9809,-1.9955,-2.0181,-2.0018,-2.0036,-2.0419,-2.0263,-2.0234,-2.0469,-2.0247,-2.017,-2.0392,-1.9761,-1.9143,-1.8564,-1.6656,-1.4899,-1.3319,-1.1406,-0.8526,-0.4634,-0.0539,0.3932,0.8687,0.9746,1.04,0.0,0.0,0.0,0.0,0.0,0.0,0.0,0.0,0.0,0.0,0.0,0.0,0.0,0.0,0.0,0.0,0.0,0.0,0.0,0.0,0.0,0.0,0.0,0.0,0.0,0.0,0.0,0.0,0.0,-2.228,-2.2436,-2.2502,-2.2609,-2.2738,-2.3515,-2.3995,-2.4109,-2.4908,-2.5269,-2.5191,-2.5125,-2.5088,-2.5101,-2.5037,-2.4917,-2.4808,-2.487,-2.4861,-2.4791,-2.4723,-2.4707,-2.4707,-2.4714,-2.4745,-2.4806,-2.4806,-2.4802,-2.4794,-2.4794,-2.4768,-2.4561,-2.3733,-2.3934,-2.4168,-2.2458,-2.2427,-2.2813,-2.2044,-2.1752,-2.1679,-2.1751,-2.1164,-2.0794,-2.1683,-2.059,-1.931,-1.9253,-1.8913,-1.8715,-1.9036,-1.9104,-1.9102,-1.9115,-1.9227,-1.938,-1.9485,-1.9516,-1.965,-1.9974,-1.9298,-1.9186,-2.0197,-1.962,-1.9514,-2.0332,-1.9705,-1.9588,-2.0352,-1.8721,-1.793,-1.8393,-1.6292,-1.4025,-1.1665,-0.9828,-0.7193,-0.3674,0.0252,0.3798,0.6984,0.9108,1.0184,0.0,0.0,0.0,0.0,0.0,0.0,0.0,0.0,0.0,0.0,0.0,0.0,0.0,0.0,0.0,0.0,0.0,0.0,0.0,0.0,0.0,0.0,0.0,0.0,0.0,0.0,0.0,0.0,0.0,0.0,-2.2512,-2.3088,-2.3223,-2.2748,-2.3554,-2.4255,-2.4812,-2.5088,-2.5228,-2.5195,-2.5137,-2.5107,-2.5101,-2.5037,-2.4936,-2.4794,-2.4832,-2.4806,-2.4729,-2.4711,-2.466,-2.4578,-2.4679,-2.4695,-2.4679,-2.4726,-2.4738,-2.4738,-2.4692,-2.4323,-2.379,-2.3363,-2.3039,-2.2693,-2.1914,-2.1916,-2.2117,-2.1698,-2.1206,-2.0823,-2.0806,-2.0188,-1.9514,-1.9111,-1.81,-1.7114,-1.6775,-1.6852,-1.7029,-1.7135,-1.7099,-1.7099,-1.7218,-1.7315,-1.7457,-1.7672,-1.778,-1.7918,-1.8161,-1.7922,-1.7937,-1.8452,-1.8255,-1.8233,-1.8639,-1.8487,-1.8506,-1.8847,-1.7946,-1.7179,-1.6687,-1.4488,-1.2913,-1.2085,-0.7597,-0.4487,-0.2878,0.0407,0.3746,0.7092,0.8096,0.8745,0.0,0.0,0.0,0.0,0.0,0.0,0.0,0.0,0.0,0.0,0.0,0.0,0.0,0.0,0.0,0.0,0.0,0.0,0.0,0.0,0.0,0.0,0.0,0.0,0.0,0.0,0.0,0.0,0.0,0.0,-2.3379,-2.3957,-2.4064,-2.3572,-2.411,-2.4666,-2.519,-2.5206,-2.5195,-2.5172,-2.5113,-2.5076,-2.5101,-2.5004,-2.4903,-2.4794,-2.4802,-2.476,-2.4701,-2.4695,-2.4629,-2.4512,-2.4596,-2.4615,-2.4564,-2.4629,-2.4645,-2.4623,-2.4345,-2.3864,-2.3294,-2.2588,-2.2171,-2.1789,-2.1106,-2.1092,-2.124,-2.0826,-2.0318,-1.9882,-1.9813,-1.9128,-1.8265,-1.7479,-1.62,-1.5072,-1.4708,-1.5193,-1.5749,-1.5993,-1.5904,-1.5833,-1.5976,-1.6045,-1.6198,-1.646,-1.6562,-1.6747,-1.7041,-1.6822,-1.6827,-1.7321,-1.7158,-1.7194,-1.76,-1.7491,-1.753,-1.7849,-1.6635,-1.5521,-1.4627,-1.2406,-1.0674,-0.9598,-0.5112,-0.2124,-0.0777,0.1834,0.4711,0.7741,0.7871,0.7924,0.0,0.0,0.0,0.0,0.0,0.0,0.0,0.0,0.0,0.0,0.0,0.0,0.0,0.0,0.0,0.0,0.0,0.0,0.0,0.0,0.0,0.0,0.0,0.0,0.0,0.0,0.0,0.0,0.0,-2.4985,-2.4936,-2.5019,-2.5099,-2.5149,-2.5201,-2.5209,-2.5191,-2.521,-2.5168,-2.5101,-2.5019,-2.5025,-2.5101,-2.4959,-2.487,-2.4794,-2.4802,-2.476,-2.4701,-2.4701,-2.4615,-2.4495,-2.4498,-2.4498,-2.4495,-2.4495,-2.4528,-2.4465,-2.3739,-2.3409,-2.3052,-2.1409,-2.1351,-2.1628,-1.9978,-1.9911,-2.0186,-1.9338,-1.9,-1.8878,-1.8789,-1.7986,-1.7169,-1.7064,-1.5124,-1.3312,-1.3295,-1.4107,-1.5029,-1.5676,-1.5651,-1.552,-1.5505,-1.5579,-1.5708,-1.5959,-1.601,-1.6194,-1.6646,-1.6019,-1.5905,-1.6853,-1.6407,-1.6413,-1.7318,-1.6759,-1.6689,-1.7461,-1.476,-1.2901,-1.2376,-1.0097,-0.7319,-0.4057,-0.2448,-0.0221,0.2704,0.4601,0.6631,0.8736,0.8469,0.7857,0.4585,0.0,0.0,0.0,0.0,0.0,0.0,0.0,0.0,0.0,0.0,0.0,0.0,0.0,0.0,0.0,0.0,0.0,0.0,0.0,0.0,0.0,0.0,0.0,0.0,0.0,0.0,0.0,-2.4176,-2.4428,-2.332,-2.3866,-2.4258,-2.433,-2.4911,-2.5203,-2.5191,-2.5163,-2.5126,-2.5095,-2.507,-2.5057,-2.5025,-2.4945,-2.487,-2.4794,-2.4753,-2.4726,-2.4711,-2.4698,-2.4615,-2.4495,-2.4498,-2.45,-2.4498,-2.4446,-2.4091,-2.3633,-2.3375,-2.2551,-2.1492,-2.0938,-2.0474,-2.0025,-1.9507,-1.9447,-1.9476,-1.9193,-1.9,-1.8735,-1.7968,-1.7523,-1.694,-1.561,-1.4638,-1.3845,-1.3168,-1.3088,-1.3279,-1.3671,-1.3522,-1.3371,-1.341,-1.3445,-1.3522,-1.374,-1.3904,-1.4059,-1.4177,-1.4099,-1.3953,-1.3788,-1.4289,-1.4659,-1.469,-1.5165,-1.5446,-1.5438,-1.3336,-1.178,-1.1049,-0.7615,-0.5084,-0.3676,-0.0239,0.2714,0.5131,0.5721,0.6476,0.7355,0.7034,0.67,0.0,0.0,0.0,0.0,0.0,0.0,-0.181,-0.2561,0.0,0.0,0.0,0.0,0.0,0.0,0.0,0.0,0.0,0.0,0.0,0.0,0.0,0.0,0.0,0.0,0.0,0.0,0.0,-2.2867,-2.4187,-2.4436,-2.3217,-2.3624,-2.3924,-2.3955,-2.4774,-2.5199,-2.5163,-2.5126,-2.5089,-2.5057,-2.5063,-2.5044,-2.4993,-2.4898,-2.4842,-2.4794,-2.4738,-2.4707,-2.4707,-2.4698,-2.465,-2.4547,-2.4498,-2.45,-2.4462,-2.4023,-2.3596,-2.3161,-2.2439,-2.16,-2.0778,-2.037,-1.9867,-1.9416,-1.9326,-1.9232,-1.9152,-1.9104,-1.8697,-1.7986,-1.6677,-1.6291,-1.5834,-1.4314,-1.3862,-1.3557,-1.284,-1.2498,-1.2416,-1.2719,-1.2642,-1.2491,-1.2372,-1.2376,-1.2416,-1.2514,-1.2638,-1.2673,-1.2465,-1.2607,-1.2513,-1.1982,-1.259,-1.2989,-1.2935,-1.3567,-1.371,-1.3105,-1.1068,-0.9233,-0.7737,-0.4371,-0.1925,-0.0601,0.2281,0.4755,0.6763,0.6639,0.6578,0.6586,0.6385,0.6255,0.0,0.0,0.0,0.0,0.0,0.0,-0.2705,-0.3108,-0.3724,0.0,0.0,0.0,0.0,0.0,0.0,0.0,0.0,0.0,0.0,0.0,0.0,0.0,0.0,0.0,0.0,-2.1848,-2.2702,-2.3518,-2.4353,-2.4484,-2.3665,-2.3703,-2.376,-2.376,-2.4694,-2.5163,-2.5101,-2.5089,-2.5057,-2.5012,-2.4991,-2.4991,-2.498,-2.487,-2.4813,-2.4798,-2.4738,-2.4707,-2.4692,-2.4698,-2.4666,-2.4599,-2.4534,-2.45,-2.4389,-2.345,-2.3063,-2.2836,-2.1313,-2.0719,-2.0548,-1.981,-1.9536,-1.9471,-1.9338,-1.9212,-1.9099,-1.8978,-1.811,-1.6888,-1.5295,-1.4779,-1.44,-1.3225,-1.294,-1.2793,-1.2325,-1.2133,-1.2107,-1.2399,-1.2475,-1.2379,-1.2054,-1.2003,-1.203,-1.1942,-1.201,-1.1854,-1.1325,-1.1494,-1.1448,-1.0888,-1.117,-1.1511,-1.1799,-1.2067,-1.179,-1.0752,-0.849,-0.6099,-0.3692,-0.1133,0.118,0.322,0.438,0.5797,0.7529,0.7187,0.6769,0.6307,0.6198,0.626,0.0,0.0,0.0,0.0,0.0,0.0,-0.4328,-0.5008,-0.5959,0.0,0.0,0.0,0.0,0.0,0.0,0.0,0.0,0.0,0.0,0.0,0.0,0.0,0.0,0.0,0.0,-2.105,-2.1888,-2.2748,-2.304,-2.2793,-2.1924,-2.2546,-2.2929,-2.2929,-2.4362,-2.5114,-2.5101,-2.505,-2.5004,-2.4991,-2.4945,-2.4931,-2.4912,-2.4832,-2.4787,-2.4806,-2.4723,-2.4711,-2.4698,-2.4701,-2.4666,-2.4599,-2.4534,-2.4465,-2.4319,-2.3362,-2.2642,-2.2011,-2.1,-2.0255,-1.9707,-1.9505,-1.9468,-1.9483,-1.9344,-1.9232,-1.899,-1.8142,-1.7117,-1.6045,-1.5003,-1.4641,-1.4124,-1.2455,-1.2239,-1.2225,-1.1439,-1.1401,-1.1564,-1.1623,-1.1666,-1.1768,-1.197,-1.1833,-1.1666,-1.1623,-1.1695,-1.1457,-1.055,-1.0574,-1.0305,-0.9264,-1.0132,-1.0741,-1.0631,-1.098,-1.0663,-0.9444,-0.7114,-0.4921,-0.2975,-0.0804,0.0796,0.1712,0.3257,0.4834,0.6403,0.6503,0.646,0.6286,0.5637,0.6032,0.0,0.0,0.0,-0.3936,0.0,0.0,0.0,-0.6645,-0.7379,0.0,0.0,0.0,0.0,0.0,0.0,0.0,0.0,0.0,0.0,0.0,0.0,0.0,0.0,0.0,0.0,-2.0881,-2.1703,-2.2574,-2.2307,-2.1913,-2.1472,-2.224,-2.269,-2.269,-2.4282,-2.5139,-2.5101,-2.5063,-2.5023,-2.4964,-2.4917,-2.4884,-2.4856,-2.4836,-2.4806,-2.4791,-2.4742,-2.4692,-2.4695,-2.4695,-2.4679,-2.465,-2.4584,-2.4517,-2.4299,-2.297,-2.2218,-2.1668,-2.0383,-1.9687,-1.9357,-1.9357,-1.9375,-1.9378,-1.9232,-1.8828,-1.812,-1.6689,-1.587,-1.5193,-1.4332,-1.3973,-1.3492,-1.2037,-1.1835,-1.1668,-1.0625,-1.0611,-1.0785,-1.0785,-1.086,-1.1048,-1.1474,-1.1549,-1.1388,-1.093,-1.085,-1.0406,-0.917,-0.8945,-0.8637,-0.7938,-0.8515,-0.9097,-0.9416,-0.9581,-0.8847,-0.6927,-0.4889,-0.2652,-0.0213,0.1436,0.262,0.3333,0.3937,0.4813,0.5955,0.5741,0.5659,0.5683,0.5289,0.5762,0.0,0.0,0.0,0.0,0.0,-0.7676,0.0,0.0,0.0,0.0,0.0,0.0,0.0,0.0,0.0,0.0,0.0,0.0,0.0,0.0,0.0,0.0,0.0,0.0,0.0,-2.0962,-2.1655,-2.2192,-2.1784,-2.1529,-2.1517,-2.2275,-2.2786,-2.2949,-2.4402,-2.5175,-2.5101,-2.5089,-2.5031,-2.4917,-2.4884,-2.4856,-2.4827,-2.4787,-2.4791,-2.4791,-2.4742,-2.4692,-2.4692,-2.4707,-2.4695,-2.4682,-2.4615,-2.4456,-2.4072,-2.2555,-2.181,-2.1342,-1.9822,-1.9264,-1.9182,-1.9078,-1.8916,-1.876,-1.8645,-1.7922,-1.683,-1.5425,-1.4774,-1.4349,-1.3666,-1.3311,-1.2849,-1.169,-1.1462,-1.1147,-0.9866,-0.9817,-1.0016,-1.0087,-1.011,-1.0303,-1.0926,-1.1096,-1.0907,-1.0142,-0.9882,-0.9254,-0.7822,-0.7446,-0.7205,-0.6868,-0.7095,-0.7562,-0.8351,-0.7879,-0.6621,-0.4419,-0.2459,-0.0187,0.2491,0.341,0.4256,0.5075,0.4684,0.4848,0.5613,0.5123,0.4954,0.5087,0.5095,0.5561,0.0,0.0,0.0,0.0,-0.9589,0.0,0.0,0.0,0.0,0.0,0.0,0.0,0.0,0.0,0.0,0.0,0.0,0.0,0.0,0.0,0.0,0.0,0.0,0.0,0.0,0.0,-2.1292,-2.0627,-2.1196,-2.1584,-2.1589,-2.2357,-2.3112,-2.3823,-2.4728,-2.5175,-2.5101,-2.5038,-2.4999,-2.4996,-2.4856,-2.4842,-2.4884,-2.4768,-2.4742,-2.4791,-2.4742,-2.4711,-2.4698,-2.4711,-2.4695,-2.4682,-2.4615,-2.4083,-2.3219,-2.2266,-2.1373,-2.0503,-1.9543,-1.9219,-1.9075,-1.8315,-1.7542,-1.6899,-1.6887,-1.6179,-1.5335,-1.5143,-1.4311,-1.3464,-1.3413,-1.3173,-1.2559,-1.1075,-1.094,-1.0731,-0.9169,-0.9087,-0.938,-0.9611,-0.9566,-0.9778,-1.0613,-1.0317,-0.9872,-0.9478,-0.9194,-0.8538,-0.7175,-0.7075,-0.689,-0.6266,-0.6753,-0.7281,-0.7674,-0.573,-0.409,-0.3157,-0.0406,0.1709,0.2895,0.2776,0.3103,0.3955,0.3812,0.411,0.4921,0.4848,0.4887,0.5004,0.5075,0.5542,0.0,0.0,0.0,0.0,0.0,0.0,0.0,0.0,-1.0987,0.0,0.0,0.0,0.0,0.0,0.0,0.0,0.0,0.0,0.0,0.0,0.0,0.0,0.0,0.0,0.0,0.0,0.0,0.0,0.0,-2.0898,-2.0907,-2.2144,-2.2987,-2.3284,-2.453,-2.516,-2.5107,-2.5025,-2.4959,-2.4889,-2.4827,-2.4779,-2.4783,-2.4768,-2.4753,-2.4742,-2.4753,-2.4772,-2.476,-2.4753,-2.4753,-2.47,-2.4166,-2.3712,-2.3207,-2.229,-2.1332,-2.0395,-1.9508,-1.9135,-1.889,-1.8044,-1.7511,-1.6998,-1.6072,-1.5416,-1.4889,-1.442,-1.3816,-1.3295,-1.3278,-1.3033,-1.2401,-1.0847,-1.0486,-1.0036,-0.8449,-0.8304,-0.8456,-0.8498,-0.8603,-0.874,-0.8884,-0.9227,-0.9324,-0.8799,-0.8334,-0.7559,-0.6314,-0.6165,-0.6086,-0.5834,-0.6293,-0.6706,-0.6898,-0.5189,-0.3422,-0.1782,0.1402,0.3307,0.3518,0.3342,0.3338,0.3514,0.3799,0.4145,0.4558,0.4646,0.4765,0.4935,0.4978,0.5197,-0.5316,0.0,0.0,0.0,0.0,0.0,0.0,0.0,0.0,0.0,0.0,0.0,0.0,0.0,0.0,0.0,0.0,0.0,0.0,0.0,0.0,0.0,0.0,0.0,0.0,0.0,0.0,0.0,0.0,0.0,-2.0755,-2.2132,-2.2977,-2.3144,-2.4484,-2.5164,-2.5101,-2.5025,-2.4945,-2.4856,-2.4842,-2.4813,-2.4768,-2.4779,-2.4779,-2.4753,-2.4798,-2.4813,-2.4836,-2.4827,-2.4691,-2.4441,-2.3795,-2.3234,-2.2678,-2.1924,-2.1047,-2.0101,-1.9435,-1.8906,-1.843,-1.7841,-1.7291,-1.6638,-1.5475,-1.4837,-1.4396,-1.3795,-1.3412,-1.3174,-1.3088,-1.2689,-1.1978,-1.0599,-0.9922,-0.9195,-0.79,-0.7634,-0.7646,-0.7645,-0.7809,-0.7882,-0.762,-0.8146,-0.8415,-0.7824,-0.7271,-0.6547,-0.5595,-0.5472,-0.5425,-0.526,-0.5844,-0.6179,-0.6063,-0.4399,-0.2167,0.0617,0.2967,0.42,0.4067,0.3884,0.3708,0.3516,0.4029,0.4337,0.4434,0.4531,0.4659,0.4849,0.486,0.494,0.0,0.0,0.0,-0.9243,0.0,0.0,0.0,0.0,-1.1601,0.0,0.0,0.0,0.0,0.0,0.0,0.0,0.0,0.0,0.0,0.0,0.0,0.0,0.0,0.0,0.0,0.0,0.0,0.0,0.0,0.0,-2.1664,-2.2469,-2.3263,-2.4033,-2.4793,-2.5168,-2.5101,-2.5019,-2.4999,-2.4996,-2.4931,-2.4931,-2.4996,-2.4856,-2.4823,-2.4884,-2.4842,-2.4842,-2.4903,-2.4884,-2.4433,-2.3727,-2.3695,-2.2653,-2.1155,-2.0919,-2.0241,-1.9412,-1.9251,-1.8512,-1.763,-1.7542,-1.636,-1.4981,-1.493,-1.4261,-1.3529,-1.3446,-1.3175,-1.2889,-1.2746,-1.2024,-1.1119,-1.0231,-0.9222,-0.8261,-0.7562,-0.7207,-0.7136,-0.7452,-0.742,-0.7356,-0.7473,-0.7162,-0.6758,-0.6424,-0.5972,-0.5526,-0.5166,-0.5282,-0.5127,-0.4406,-0.5409,-0.5854,-0.5189,-0.2726,0.052,0.4549,0.4239,0.4085,0.4462,0.4042,0.3881,0.4075,0.4344,0.4485,0.4493,0.4494,0.4579,0.4701,0.4769,0.4867,0.0,0.0,-1.0802,-1.0078,0.0,0.0,0.0,0.0,0.0,0.0,0.0,0.0,0.0,0.0,0.0,0.0,0.0,0.0,0.0,0.0,0.0,0.0,0.0,0.0,0.0,0.0,0.0,0.0,0.0,0.0,0.0,-2.2236,-2.3067,-2.3308,-2.458,-2.5212,-2.5091,-2.5038,-2.4964,-2.4875,-2.4842,-2.4827,-2.4798,-2.4842,-2.4842,-2.4832,-2.4889,-2.495,-2.4907,-2.4384,-2.4024,-2.365,-2.2531,-2.1725,-2.1142,-2.0931,-2.0247,-1.936,-1.9087,-1.8359,-1.7436,-1.6818,-1.5836,-1.4726,-1.4206,-1.3766,-1.3413,-1.3312,-1.3053,-1.2799,-1.2614,-1.2199,-1.1488,-1.0191,-0.9424,-0.8655,-0.7462,-0.699,-0.6813,-0.6831,-0.6742,-0.6568,-0.6354,-0.6094,-0.5995,-0.6139,-0.5724,-0.5233,-0.4765,-0.4834,-0.4774,-0.4354,-0.5221,-0.537,-0.4202,-0.2255,0.0095,0.291,0.2766,0.2949,0.3806,0.3768,0.3617,0.3381,0.3896,0.4219,0.4304,0.4339,0.4478,0.4702,0.4624,0.4715,-0.8593,-0.9891,0.0,-1.0417,-1.1127,0.0,-1.0991,0.0,0.0,0.0,0.0,0.0,0.0,0.0,0.0,0.0,0.0,0.0,0.0,-1.5126,0.0,0.0,0.0,0.0,0.0,0.0,0.0,0.0,0.0,0.0,0.0,0.0,-2.2999,-2.2937,-2.4477,-2.5253,-2.5145,-2.5038,-2.4917,-2.4794,-2.4798,-2.4768,-2.4742,-2.4798,-2.4813,-2.4802,-2.4889,-2.4774,-2.4492,-2.403,-2.3477,-2.2844,-2.1765,-2.1113,-2.0748,-2.0552,-1.9987,-1.9298,-1.9001,-1.8467,-1.7736,-1.6852,-1.5888,-1.4933,-1.4093,-1.3549,-1.3191,-1.3034,-1.2818,-1.2572,-1.2356,-1.1754,-1.0952,-0.9891,-0.9001,-0.8136,-0.7256,-0.6825,-0.6569,-0.646,-0.6337,-0.6141,-0.5767,-0.5579,-0.5519,-0.5673,-0.5432,-0.5069,-0.4626,-0.4646,-0.4547,-0.4163,-0.4943,-0.4807,-0.3099,-0.1842,-0.0291,0.1683,0.1801,0.2169,0.3001,0.333,0.3434,0.3313,0.3365,0.362,0.4091,0.4308,0.4477,0.4599,0.4485,0.458]},{"header":{"parameterUnit":"m.s-1","parameterCategory":1,"la1":30.6,"la2":29.2853,"lo1":-89.7004,"lo2":-87.6739,"dy":0.0162,"dx":0.0183,"nx":112,"ny":82,"refTime":"2024-03-17T12:00:00:Z","depth":0,"parameterNumber":3,"parameterNumberName":"V-component_of_WINDS"},"data":[0.0,0.0,0.0,0.0,0.0,0.0,0.0,0.0,0.0,0.0,0.0,0.0,0.0,0.0,0.0,0.0,0.0,0.0,0.0,0.0,0.0,0.0,0.0,0.0,0.0,0.0,0.0,0.0,0.0,0.0,0.0,0.0,0.0,0.0,0.0,0.0,0.0,0.0,0.0,0.0,0.0,0.0,0.0,0.0,0.0,0.0,0.0,0.0,0.0,0.0,0.0,0.0,0.0,0.0,0.0,0.0,0.0,0.0,0.0,0.0,0.0,0.0,0.0,0.0,0.0,0.0,0.0,0.0,0.0,0.0,0.0,0.0,0.0,0.0,0.0,0.0,0.0,0.0,0.0,0.0,0.0,0.0,0.0,0.0,0.0,0.0,0.0,0.0,0.0,0.0,0.0,-0.0444,0.0141,0.0519,0.0469,0.0953,0.1283,0.1346,0.0,0.0,0.0,0.0,0.0,0.0,0.0,0.0,0.0,0.0,0.0,0.0,0.0,0.0,0.0,0.0,0.0,0.0,0.0,0.0,0.0,0.0,0.0,0.0,0.0,0.0,0.0,0.0,0.0,0.0,0.0,0.0,0.0,0.0,0.0,0.0,0.0,0.0,0.0,0.0,0.0,0.0,0.0,0.0,0.0,0.0,0.0,0.0,0.0,0.0,0.0,0.0,0.0,0.0,0.0,0.0,0.0,0.0,0.0,0.0,0.0,0.0,0.0,0.0,0.0,0.0,0.0,0.0,0.0,0.0,0.0,0.0,0.0,0.0,0.0,0.0,0.0,0.0,0.0,0.0,0.0,0.0,0.0,0.0,0.0,0.0,0.0,0.0,0.0,0.0,0.0,0.0,0.0,0.0,0.0,0.0,0.0,0.0,0.0,0.0,0.0,0.0,0.0,0.0,-0.1921,-0.0769,-0.0113,0.0275,0.032,0.1011,0.1362,0.1166,0.0,0.0,0.0,0.0,0.0,0.0,0.0,0.0,0.0,0.0,0.0,0.0,0.0,0.0,0.0,0.0,0.0,0.0,0.0,0.0,0.0,0.0,0.0,0.0,0.0,0.0,0.0,0.0,0.0,0.0,0.0,0.0,0.0,0.0,0.0,0.0,0.0,0.0,0.0,0.0,0.0,0.0,0.0,0.0,0.0,0.0,0.0,0.0,0.0,0.0,0.0,0.0,0.0,0.0,0.0,0.0,0.0,0.0,0.0,0.0,0.0,0.0,0.0,0.0,0.0,0.0,0.0,0.0,0.0,0.0,0.0,0.0,0.0,0.0,0.0,0.0,0.0,0.0,0.0,0.0,0.0,0.0,0.0,0.0,0.0,0.0,0.0,0.0,0.0,0.0,0.0,0.0,0.0,0.0,0.0,0.0,0.0,0.0,0.0,0.0,0.0,0.0,0.0,-0.2593,-0.2034,-0.1018,-0.0448,-0.0045,0.0112,0.0871,0.1283,0.1169,0.1534,0.0,0.0,0.0,0.0,0.0,0.0,0.0,0.0,0.0,0.0,0.0,0.0,0.0,0.0,0.0,0.0,0.0,0.0,0.0,0.0,0.0,0.0,0.0,0.0,0.0,0.0,0.0,0.0,0.0,0.0,0.0,0.0,0.0,0.0,0.0,0.0,0.0,0.0,0.0,0.0,0.0,0.0,0.0,0.0,0.0,0.0,0.0,0.0,0.0,0.0,0.0,0.0,0.0,0.0,0.0,0.0,0.0,0.0,0.0,0.0,0.0,0.0,0.0,0.0,0.0,0.0,0.0,0.0,0.0,0.0,0.0,0.0,0.0,0.0,0.0,0.0,0.0,0.0,0.0,0.0,0.0,0.0,0.0,0.0,0.0,0.0,0.0,0.0,0.0,0.0,0.0,0.0,0.0,0.0,0.0,0.0,0.0,0.0,0.0,0.0,0.0,0.0,-0.2235,-0.1897,-0.1255,-0.0672,-0.0225,0.0067,0.0813,0.1254,0.125,0.1671,0.0,0.0,0.0,0.0,0.0,0.0,0.0,0.0,0.0,0.0,0.0,0.0,0.0,0.0,0.0,0.0,0.0,0.0,0.0,0.0,0.0,0.0,0.0,0.0,0.0,0.0,0.0,0.0,0.0,0.0,0.0,0.0,0.0,0.0,0.0,0.0,0.0,0.0,0.0,0.0,0.0,0.0,0.0,0.0,0.0,0.0,0.0,0.0,0.0,0.0,0.0,0.0,0.0,0.0,0.0,0.0,0.0,0.0,0.0,0.0,0.0,0.0,0.0,0.0,0.0,0.0,0.0,0.0,0.0,0.0,0.0,0.0,0.0,0.0,0.0,0.0,0.0,0.0,0.0,0.0,0.0,0.0,0.0,0.0,0.0,0.0,0.0,0.0,0.0,0.0,0.0,0.0,0.0,0.0,0.0,0.0,0.0,0.0,0.0,0.0,0.0,0.0,-0.2527,-0.2066,-0.1541,-0.0672,0.0022,0.0337,0.0992,0.1385,0.1386,0.1775,0.0,0.0,0.0,0.0,0.0,0.0,0.0,0.0,0.0,0.0,0.0,0.0,0.0,0.0,0.0,0.0,0.0,0.0,0.0,0.0,0.0,0.0,0.0,0.0,0.0,0.0,0.0,0.0,0.0,0.0,0.0,0.0,0.0,0.0,0.0,0.0,0.0,0.0,0.0,0.0,0.0,0.0,0.0,0.0,0.0,0.0,0.0,0.0,0.0,0.0,0.0,0.0,0.0,0.0,0.0,0.0,0.0,0.0,0.0,0.0,0.0,0.0,0.0,0.0,0.0,0.0,0.0,0.0,0.0,0.0,0.0,0.0,0.0,0.0,0.0,0.0,0.0,0.0,0.0,0.0,0.0,0.0,0.0,0.0,0.0,0.0,0.0,0.0,0.0,0.0,0.0,0.0,0.0,0.0,0.0,0.0,0.0,0.0,0.0,0.0,0.0,0.0,-0.2433,-0.2002,0.0,-0.0357,0.0153,0.0437,0.1033,0.1368,0.1279,0.0,0.0,0.0,0.0,0.0,0.0,0.0,0.0,0.0,0.0,0.0,0.0,0.0,0.0,0.0,0.0,0.0,0.0,0.0,0.0,0.0,0.0,0.0,0.0,0.0,0.0,0.0,0.0,0.0,0.0,0.0,0.0,0.0,0.0,0.0,0.0,0.0,0.0,0.0,0.0,0.0,0.0,0.0,0.0,0.0,0.0,0.0,0.0,0.0,0.0,0.0,0.0,0.0,0.0,0.0,0.0,0.0,0.0,0.0,0.0,0.0,0.0,0.0,0.0,0.0,0.0,0.0,0.0,0.0,0.0,0.0,0.0,0.0,0.0,0.0,0.0,0.0,0.0,0.0,0.0,0.0,0.0,0.0,0.0,0.0,0.0,0.0,0.0,0.0,0.0,0.0,0.0,0.0,0.0,0.0,0.0,0.0,0.0,0.0,0.0,0.0,0.0,-0.2088,-0.2039,-0.1601,0.0,0.0022,0.0474,0.0811,0.1272,0.1477,0.1327,0.0,0.0,0.0,0.0,0.0,0.0,0.0,0.0,0.0,0.0,0.0,0.0,0.0,0.0,0.0,0.0,0.0,0.0,0.0,0.0,0.0,0.0,0.0,0.0,0.0,0.0,0.0,0.0,0.0,0.0,0.0,0.0,0.0,0.0,0.0,0.0,0.0,0.0,0.0,0.0,0.0,0.0,0.0,0.0,0.0,0.0,0.0,0.0,0.0,0.0,0.0,0.0,0.0,0.0,0.0,0.0,0.0,0.0,0.0,0.0,0.0,0.0,0.0,0.0,0.0,0.0,0.0,0.0,0.0,0.0,0.0,0.0,0.0,0.0,0.0,0.0,0.0,0.0,0.0,0.0,0.0,0.0,0.0,0.0,0.0,0.0,0.0,0.0,0.0,0.0,0.0,0.0,0.0,0.0,0.0,0.0,0.0,0.0,0.0,0.0,0.0,0.0,-0.1517,-0.1317,-0.0887,-0.0067,0.0489,0.1033,0.1561,0.1733,0.1742,0.0,0.0,0.0,0.0,0.0,0.0,0.0,0.0,0.0,0.0,0.0,0.0,0.0,0.0,0.0,0.0,0.0,0.0,0.0,0.0,0.0,0.0,0.0,0.0,0.0,0.0,0.0,0.0,0.0,0.0,0.0,0.0,0.0,0.0,0.0,0.0,0.0,0.0,0.0,0.0,0.0,0.0,0.0,0.0,0.0,0.0,0.0,0.0,0.0,0.0,0.0,0.0,0.0,0.0,0.0,0.0,0.0,0.0,0.0,0.0,0.0,0.0,0.0,0.0,0.0,0.0,0.0,0.0,0.0,0.0,0.0,0.0,0.0,0.0,0.0,0.0,0.0,0.0,0.0,0.0,0.0,0.0,0.0,0.0,0.0,0.0,0.0,0.0,0.0,0.0,0.0,0.0,0.0,0.0,0.0,0.0,0.0,0.0,0.0,0.0,0.0,0.0,0.0,-0.0714,-0.0542,-0.0088,0.0753,0.1202,0.147,0.1589,0.1638,0.1397,0.0791,0.0,0.0,0.0,0.0,0.0,0.0,0.0,0.0,0.0,0.0,0.0,0.0,0.0,0.0,0.0,0.0,0.0,0.0,0.0,0.0,0.0,0.0,0.0,0.0,0.0,0.0,0.0,0.0,0.0,0.0,0.0,0.0,0.0,0.0,0.0,0.0,0.0,0.0,0.0,0.0,0.0,0.0,0.0,0.0,0.0,0.0,0.0,0.0,0.0,0.0,0.0,0.0,0.0,0.0,0.0,0.0,0.0,0.0,0.0,0.0,0.0,0.0,0.0,0.0,0.0,0.0,0.0,0.0,0.0,0.0,0.0,0.0,0.0,0.0,0.0,0.0,0.0,0.0,0.0,0.0,0.0,0.0,0.0,0.0,0.0,0.0,0.0,0.0,0.0,0.0,0.0,0.0,0.0,0.0,0.0,0.0,0.0,0.0,0.0,0.0,0.0,0.0,0.0154,0.0385,0.0777,0.1419,0.1801,0.2022,0.1999,0.1784,0.15,0.1174,0.0,0.0,0.0,0.0,0.0,0.0,0.0,0.0,0.0,0.0,0.0,0.0,0.0,0.0,0.0,0.0,0.0,0.0,0.0,0.0,0.0,0.0,0.0,0.0,0.0,0.0,0.0,0.0,0.0,0.0,0.0,0.0,0.0,0.0,0.0,0.0,0.0,0.0,0.0,0.0,0.0,0.0,0.0,0.0,0.0,0.0,0.0,0.0,0.0,0.0,0.0,0.0,0.0,0.0,0.0,0.0,0.0,0.0,0.0,0.0,0.0,0.0,0.0,0.0,0.0,0.0,0.0,0.0,0.0,0.0,0.0,0.0,0.0,0.0,0.0,0.0,0.0,0.0,0.0,0.0,0.0,0.0,0.0,0.0,0.0,0.0,0.0,0.0,0.0,0.0,0.0,0.0,0.0,0.0,0.0,0.0,0.0,0.0,0.0,0.0,0.0,0.0,0.1094,0.1396,0.1709,0.196,0.2297,0.2533,0.2625,0.2084,0.1904,0.2245,0.0,0.0,0.0,0.0,0.0,0.0,0.0,0.0,0.0,0.0,0.0,0.0,0.0,0.0,0.0,0.0,0.0,0.0,0.0,0.0,0.0,0.0,0.0,0.0,0.0,0.0,0.0,0.0,0.0,0.0,0.0,0.0,0.0,0.0,0.0,0.0,0.0,0.0,0.0,0.0,0.0,0.0,0.0,0.0,0.0,0.0,0.0,0.0,0.0,0.0,0.0,0.0,0.0,0.0,0.0,0.0,0.0,0.0,0.0,0.0,0.4746,0.0,0.0,0.0,0.0,0.0,0.0,0.0,0.0,0.0,0.0,0.0,0.0,0.0,0.0,0.0,0.0,0.0,0.0,0.0,0.0,0.0,0.0,0.0,0.0,0.0,0.0,0.0,0.0,0.0,0.0,0.0,0.0,0.0,0.0,0.0,0.0,0.0,0.0,0.0,0.0,0.0,0.1946,0.2231,0.2509,0.2664,0.2614,0.2646,0.282,0.2429,0.2116,0.1996,0.0,0.0,0.0,0.0,0.0,0.0,0.0,0.0,0.0,0.0,0.0,0.0,0.0,0.0,0.0,0.0,0.0,0.0,0.0,0.0,0.0,0.0,0.0,0.0,0.0,0.0,0.0,0.0,0.0,0.0,0.0,0.0,0.0,0.0,0.0,0.0,0.0,0.0,0.0,0.0,0.0,0.0,0.0,0.0,0.0,0.0,0.0,0.0,0.0,0.0,0.0,0.0,0.0,0.0,0.0,0.0,0.0,0.0,0.0,0.0,0.0,0.4841,0.0,0.0,0.0,0.0,0.0,0.0,0.0,0.0,0.0,0.0,0.0,0.0,0.0,0.0,0.0,0.0,0.0,0.0,0.0,0.0,0.0,0.0,0.0,0.0,0.0,0.0,0.0,0.0,0.0,0.0,0.0,0.0,0.0,0.0,0.0,0.0,0.0,0.0,0.0,0.0,0.2914,0.3118,0.3325,0.3429,0.3253,0.3163,0.3269,0.2799,0.2497,0.252,0.2463,0.0,0.0,0.0,0.0,0.0,0.0,0.0,0.0,0.0,0.0,0.0,0.0,0.0,0.0,0.0,0.0,0.0,0.0,0.0,0.0,0.0,0.0,0.0,0.0,0.0,0.0,0.0,0.0,0.0,0.0,0.0,0.0,0.0,0.0,0.0,0.0,0.0,0.0,0.0,0.0,0.0,0.0,0.0,0.0,0.0,0.0,0.0,0.0,0.0,0.0,0.0,0.0,0.0,0.5149,0.5295,0.5346,0.6165,0.6547,0.656,0.5839,0.5429,0.5234,0.0,0.0,0.0,0.0,0.0,0.0,0.0,0.0,0.0,0.0,0.0,0.0,0.0,0.0,0.0,0.0,0.0,0.0,0.0,0.0,0.0,0.0,0.0,0.0,0.0,0.9099,0.8082,0.0,0.0,0.0,0.0,0.0,0.0,0.0,0.0,0.0,0.0,0.0,0.0,0.3736,0.3861,0.3951,0.3969,0.3829,0.3682,0.3639,0.3069,0.2831,0.3098,0.2443,0.2264,0.0,0.0,0.0,0.0,0.0,0.0,0.0,0.0,0.0,0.0,0.0,0.0,0.0,0.0,0.0,0.0,0.0,0.0,0.0,0.0,0.0,0.0,0.0,0.0,0.0,0.0,0.0,0.0,0.0,0.0,0.0,0.0,0.7459,0.8137,0.0,0.0,0.0,0.0,0.0,0.0,0.0,0.0,0.0,0.0,0.0,0.0,0.0,0.0,0.459,0.4794,0.492,0.4978,0.5707,0.6122,0.6264,0.7066,0.7431,0.7433,0.7323,0.0,0.6146,0.5343,0.0,0.0,0.0,0.0,0.0,0.0,0.0,0.0,0.0,0.0,0.0,0.0,0.0,0.0,0.0,0.0,0.0,0.0,0.0,0.0,0.0,0.0,0.9894,0.9899,0.9514,0.9096,0.0,0.7565,0.643,0.6551,0.6189,0.0,0.0,0.0,0.0,0.0,0.0,0.0,0.3969,0.4025,0.4032,0.3936,0.3835,0.3678,0.3379,0.3012,0.2785,0.2763,0.2712,0.264,0.2549,0.2721,0.0,0.0,0.0,0.0,0.0,0.0,0.0,0.0,0.0,0.0,0.0,0.0,0.0,0.0,0.0,0.0,0.0,0.0,0.0,0.0,0.0,0.0,0.0,0.0,0.0,0.0,0.0,0.0,0.0,0.6873,0.7775,0.8364,0.7807,0.7163,0.0,0.0,0.0,0.0,0.0,0.0,0.0,0.0,0.0,0.3847,0.5155,0.5797,0.5628,0.6147,0.6429,0.6465,0.6855,0.7049,0.7106,0.7948,0.8334,0.8321,0.8329,0.8145,0.7784,0.6839,0.6478,0.6493,0.0,0.0,0.0,0.0,0.6499,0.6359,0.6456,0.6629,0.0,0.0,0.0,0.0,0.0,0.0,0.0,0.0,0.0,0.0,0.0,0.0,0.0,1.0113,0.9741,0.9381,0.9451,0.8564,0.7704,0.0,0.7234,0.6792,0.61,0.0,0.0,0.0,0.0,0.0,0.4689,0.4593,0.4465,0.4219,0.3986,0.3727,0.3382,0.2869,0.2595,0.2633,0.2462,0.2368,0.2396,0.2384,0.2139,0.0,0.0,0.0,0.0,0.0,0.0,0.0,0.0,0.0,0.0,0.0,0.0,0.0,0.0,0.0,0.0,0.0,0.0,0.0,0.0,0.0,0.0,0.0,0.0,0.0,0.0,0.0,0.0,0.7539,0.8033,0.8406,0.8255,0.7859,0.0,0.0,0.0,0.0,0.0,0.0,0.5644,0.5708,0.5704,0.5628,0.6465,0.6817,0.6553,0.7253,0.7608,0.7598,0.7881,0.7974,0.7931,0.8814,0.9201,0.9211,0.9198,0.925,0.9218,0.8097,0.7617,0.7592,0.7538,0.7455,0.7375,0.7383,0.7196,0.7029,0.7478,0.7718,0.7831,0.7862,0.0,0.8487,0.7774,0.0,0.0,0.0,0.0,0.9585,0.9562,0.9705,0.9892,1.001,0.9686,0.9385,0.9553,0.9215,0.8786,0.0,0.815,0.768,0.6854,0.0,0.0,0.0,0.0,0.5371,0.5156,0.4953,0.4702,0.4351,0.3995,0.3621,0.3234,0.2717,0.244,0.2465,0.2199,0.2109,0.2268,0.2108,0.1863,0.156,0.0,0.0,0.0,0.0,0.0,0.0,0.0,0.0,0.0,0.0,0.0,0.0,0.0,0.0,0.0,0.0,0.0,0.0,0.0,0.0,0.0,0.0,0.0,0.0,0.0,0.0,0.0,0.0,0.0,0.86,0.8033,0.0,0.0,0.0,0.0,0.7053,0.7181,0.7314,0.746,0.7479,0.7496,0.7552,0.7559,0.7556,0.7535,0.7578,0.7591,0.7609,0.8437,0.8806,0.8773,0.9633,1.0044,1.0033,1.0033,1.0083,1.0016,0.8375,0.7656,0.7603,0.7592,0.7477,0.7369,0.7937,0.7935,0.7785,0.8763,0.8942,0.8857,0.9679,0.971,0.9391,0.9153,0.8987,0.0,0.0,0.9377,0.9616,0.9663,0.9607,0.9478,0.9359,0.9279,0.9222,0.9293,0.9244,0.9131,0.0,0.8537,0.8174,0.7887,0.0,0.6911,0.6259,0.5825,0.5435,0.5071,0.4769,0.4499,0.4143,0.3703,0.3205,0.2679,0.2551,0.24,0.2149,0.2171,0.2197,0.2197,0.2076,0.1807,0.1409,0.1276,0.0,0.0,0.0,0.0,0.0,0.0,0.0,0.0,0.0,0.0,0.0,0.0,0.0,0.0,0.0,0.0,0.0,0.0,0.0,0.0,0.0,0.0,0.0,0.0,0.0,0.0,0.0,0.0,0.8812,0.8616,0.0,0.0,0.8488,0.8363,0.8,0.813,0.7825,0.6876,0.7356,0.7418,0.6873,0.7934,0.8473,0.8437,0.8954,0.918,0.914,0.9467,0.9839,1.0268,1.0066,1.029,1.0785,1.03,1.0145,1.0163,0.9594,0.9336,0.9264,0.9179,0.9049,0.8899,0.8858,0.8659,0.8482,0.9016,0.9309,0.9545,1.0201,1.0068,0.9688,1.0062,0.9914,0.9701,1.0159,1.0109,0.9887,0.9785,0.9457,0.9177,0.9217,0.9047,0.8926,0.9088,0.8926,0.8797,0.9044,0.8956,0.8568,0.7609,0.7671,0.7521,0.6603,0.6196,0.5786,0.5256,0.5007,0.4624,0.4092,0.3775,0.3388,0.2909,0.2414,0.2125,0.2154,0.1819,0.174,0.1993,0.1833,0.1625,0.1415,0.1221,0.1019,0.0,0.0,0.0,0.0,0.0,0.0,0.0,0.0,0.0,0.0,0.0,0.0,0.0,0.0,0.0,0.0,0.0,0.0,0.0,0.0,0.0,0.0,0.0,0.0,0.0,0.0,0.9196,0.9033,0.9061,0.9094,0.9077,0.9347,0.936,0.8975,0.9107,0.8777,0.7759,0.8255,0.8297,0.7692,0.8809,0.9369,0.9307,1.0061,1.0398,1.0311,1.0563,1.0934,1.1389,1.0885,1.0964,1.1501,1.1068,1.0767,1.0576,1.0649,1.0485,1.0186,1.0086,0.9939,0.9769,0.9423,0.9119,0.8914,0.9323,0.9861,1.041,1.0588,1.0286,0.9897,1.0374,1.0267,1.0068,1.0443,1.0309,0.9942,0.949,0.9081,0.882,0.8703,0.8561,0.848,0.8643,0.8439,0.8305,0.8617,0.8896,0.8749,0.7847,0.7959,0.7839,0.6924,0.6428,0.6007,0.5484,0.5023,0.4539,0.4033,0.3632,0.3246,0.2843,0.2237,0.1955,0.2134,0.1618,0.1451,0.1688,0.1419,0.1243,0.1226,0.0938,0.0734,0.0627,0.0,0.0,0.0,0.0,0.0,0.0,0.0,0.0,0.0,0.0,0.0,0.0,0.0,0.0,0.0,0.0,0.0,0.0,0.0,0.0,0.0,0.0,0.0,0.8306,0.8976,0.9367,0.9228,0.9277,0.9332,0.9411,0.9647,0.9851,0.9993,1.0125,1.0211,1.0242,1.0273,1.0272,1.0194,1.0229,1.0219,1.0159,1.0801,1.106,1.0933,1.1645,1.1994,1.2031,1.2059,1.2141,1.2228,1.2331,1.1977,1.1297,1.1395,1.0955,1.0229,1.0122,0.9974,0.9782,0.9562,0.9304,0.9134,0.9812,1.0673,1.1423,1.0968,1.0422,1.0019,1.0169,1.0057,0.9894,0.9874,0.9912,0.9731,0.8756,0.8465,0.8319,0.7811,0.7792,0.7897,0.7979,0.7829,0.7677,0.7685,0.8205,0.8654,0.8543,0.8287,0.7862,0.717,0.6486,0.0,0.5692,0.4875,0.4188,0.3928,0.3318,0.2765,0.2436,0.2104,0.1928,0.1993,0.1601,0.1363,0.1296,0.0845,0.0706,0.0903,0.0441,0.018,0.0102,0.0,0.0,0.0,0.0,0.0,0.0,0.0,0.0,0.0,0.0,0.0,0.0,0.0,0.0,0.0,0.0,0.0,0.0,0.0,0.0,0.0,0.0,0.8415,0.8464,0.9129,0.9586,0.9496,0.9588,0.9675,0.9679,0.9849,0.9997,1.0135,1.0176,0.9935,0.9316,0.9937,1.0254,1.0139,1.0698,1.1173,1.1559,1.1634,1.159,1.1406,1.1555,1.1972,1.2556,1.2057,1.2191,1.2837,1.2382,1.179,1.1219,1.1954,1.1796,1.0993,1.0306,0.9938,0.9757,0.9458,0.9635,1.0107,1.0667,1.1066,1.1293,1.0968,1.0398,0.9901,1.0056,0.9777,0.9403,0.9507,0.9223,0.8802,0.8335,0.7862,0.7522,0.7609,0.7405,0.7299,0.7694,0.7621,0.7525,0.765,0.7769,0.7739,0.7439,0.7583,0.7342,0.6231,0.5853,0.0,0.4888,0.4525,0.4144,0.3711,0.3271,0.289,0.2686,0.2116,0.1796,0.1933,0.1406,0.1113,0.1145,0.1043,0.0903,0.0747,0.0618,0.0408,0.0,0.0,0.0,0.0,0.0,0.0,0.0,0.0,0.0,0.0,0.0,0.0,0.0,0.0,0.0,0.0,0.0,0.0,0.0,0.0,0.0,0.0,0.8207,0.8926,0.9144,0.9531,0.9781,0.9769,0.983,0.9887,0.9934,1.002,1.0115,1.0187,1.0202,0.998,0.9479,1.0282,1.0704,1.0573,1.1318,1.1798,1.1976,1.2149,1.2103,1.1855,1.2176,1.2603,1.3078,1.2692,1.2842,0.0,1.3117,1.2622,1.2079,1.28,1.2653,0.0,0.0,0.0,0.0,0.0,1.0101,1.0624,1.1028,1.1277,1.1362,1.092,1.0348,0.9849,0.9942,0.9597,0.918,0.9233,0.878,0.8235,0.7903,0.7416,0.7036,0.7061,0.7031,0.7004,0.7153,0.7203,0.725,0.7298,0.7255,0.0,0.6618,0.7024,0.7085,0.6145,0.5641,0.5231,0.4822,0.4343,0.3893,0.3621,0.3161,0.2811,0.2694,0.214,0.0,0.0,0.0,0.1044,0.1085,0.1017,0.0,0.0,0.0,0.0489,0.0142,0.0,0.0,0.0,0.1426,0.1816,0.0,0.0,0.0,0.0,0.0,0.0,0.0,0.0,0.0,0.0,0.0,0.0,0.0,0.0,0.0,0.0,0.8982,0.9298,1.0008,1.0016,0.9954,1.001,1.0019,1.0059,1.0105,1.0169,1.025,1.0337,1.0351,1.0383,1.0477,0.0,0.0,0.0,0.0,1.228,1.2036,1.2606,1.2724,1.2416,1.3192,1.3582,1.3615,1.3577,1.368,1.3899,1.4082,1.3821,1.3318,1.3724,1.3479,1.2746,1.1764,1.1286,1.1061,1.0657,1.0642,1.0844,1.1142,0.0,0.0,1.0787,1.0248,0.9824,0.9729,0.934,0.8952,0.8882,0.84,0.7834,0.7412,0.7035,0.6677,0.6373,0.6621,0.6894,0.6567,0.673,0.6859,0.6623,0.6599,0.646,0.5967,0.6498,0.6811,0.6278,0.56,0.5122,0.5046,0.4223,0.357,0.3573,0.0,0.0,0.2537,0.2145,0.1935,0.1877,0.1403,0.1094,0.1117,0.0921,0.0803,0.0753,0.0689,0.0525,0.0283,0.0354,0.0585,0.0993,0.1888,0.2253,0.0,0.0,0.0,0.0,0.0,0.0,0.0,0.0,0.0,0.0,0.0,0.0,0.0,0.0,0.0,0.8925,0.9524,1.0005,1.0158,1.0162,1.0137,1.0096,1.0138,1.0172,1.0178,1.0183,1.0499,1.1191,1.1257,1.1533,1.2187,1.2252,0.0,1.3131,1.3002,1.3116,1.3489,1.3881,1.3971,1.3809,0.0,0.0,1.4294,1.365,1.3527,1.3821,1.3856,1.363,1.3285,1.4158,1.4181,1.3515,1.1932,1.0775,1.0105,1.0909,1.1071,1.0983,1.179,1.1782,1.1318,1.0664,1.0072,0.9567,0.9078,0.8521,0.0,0.79,0.7341,0.6773,0.6636,0.6198,0.5842,0.6151,0.6159,0.6188,0.6365,0.6459,0.641,0.5981,0.5745,0.5494,0.5236,0.5715,0.5846,0.505,0.482,0.4542,0.4143,0.3787,0.3503,0.332,0.2886,0.2611,0.2578,0.2291,0.2034,0.1758,0.134,0.1153,0.1245,0.1131,0.1067,0.1116,0.0934,0.0853,0.0831,0.0919,0.1099,0.139,0.1585,0.1971,0.0,0.0,0.0,0.0,0.0,0.0,0.0,0.0,0.0,0.0,0.0,0.7261,0.8144,0.0,0.9111,0.9568,0.998,1.0254,1.0253,1.025,1.0243,1.0203,1.0232,1.0258,1.0257,1.0226,1.0547,1.1388,1.146,1.177,1.2506,1.2846,1.3107,1.3345,1.3447,1.3556,1.3646,1.3718,1.3874,1.4103,1.3628,1.39,1.4752,1.3582,1.3427,1.4075,1.3775,1.3627,1.366,1.4503,1.4468,1.3767,1.2508,1.132,1.0435,1.1212,1.1257,1.1016,1.1857,1.1751,1.1136,1.0421,0.9855,0.9343,0.869,0.8156,0.7695,0.7373,0.6807,0.6268,0.6145,0.5703,0.5345,0.5503,0.5596,0.5661,0.5657,0.58,0.5798,0.5356,0.5009,0.4732,0.4512,0.4563,0.4578,0.454,0.4256,0.3989,0.3757,0.3405,0.3089,0.2892,0.2505,0.2274,0.2267,0.2168,0.2019,0.1765,0.1513,0.1422,0.1432,0.1316,0.1247,0.122,0.1122,0.1114,0.1158,0.1319,0.1514,0.1701,0.1871,0.2182,0.0,0.0,0.0,0.0,0.0,0.0,0.0,0.0,0.6651,0.7645,0.7857,0.8126,0.8997,0.9161,0.9404,1.0164,1.0305,1.0307,1.0291,1.0293,1.0292,1.031,1.0303,1.0303,1.0291,1.0371,1.0771,1.1594,1.1796,1.2156,1.2849,1.3427,1.3607,1.3336,1.372,1.3748,1.3427,1.3379,1.365,1.4255,1.3606,1.3916,1.5096,1.3704,1.3495,1.4189,1.3798,1.381,1.4111,1.4384,1.4342,1.3992,1.2691,1.1903,1.1476,1.1559,1.1365,1.1184,1.1773,1.1556,1.0912,1.0172,0.9607,0.9085,0.8421,0.7927,0.7511,0.7047,0.6496,0.5944,0.5742,0.5327,0.4958,0.4865,0.5021,0.5099,0.4822,0.5017,0.5096,0.4604,0.4244,0.3961,0.3761,0.336,0.3348,0.412,0.3732,0.3409,0.3481,0.299,0.2613,0.2525,0.2189,0.1944,0.1907,0.1947,0.1915,0.1808,0.1694,0.1615,0.1609,0.1511,0.1398,0.1269,0.1367,0.1409,0.1374,0.1636,0.1805,0.1972,0.2309,0.2541,0.5771,0.6106,0.0,0.6597,0.6674,0.6833,0.0,0.0,0.7608,0.8559,0.8762,0.9012,0.9894,1.0047,1.0102,1.0269,1.0302,1.0308,1.0306,1.0293,1.0293,1.0291,1.0293,1.0293,1.0293,1.0898,1.1616,1.2493,1.3166,1.3844,1.4579,1.4588,1.4439,1.4168,1.4056,1.3845,1.3589,1.404,1.4584,1.5241,1.5019,1.5085,1.5334,1.4446,1.3842,1.3531,1.3941,1.4239,1.4349,1.3183,1.36,1.4667,1.1599,1.1504,1.2996,1.1917,1.1637,1.1794,1.1809,1.1343,1.0634,0.9957,0.9345,0.8734,0.8117,0.7637,0.7166,0.6777,0.616,0.5595,0.5408,0.4915,0.4526,0.4687,0.4517,0.4343,0.4384,0.4295,0.4132,0.3642,0.3303,0.3017,0.2887,0.2561,0.2519,0.3094,0.3061,0.2953,0.283,0.2657,0.2531,0.2498,0.2268,0.1981,0.1821,0.1834,0.1799,0.1739,0.1533,0.1501,0.1595,0.1689,0.1685,0.1535,0.1702,0.1723,0.1636,0.1788,0.2014,0.2266,0.2484,0.2782,0.6118,0.0,0.0,0.0,0.7428,0.7475,0.8604,0.8555,0.8516,0.9407,0.9636,0.977,1.0122,1.0207,1.0222,0.0,1.0302,1.0306,1.0307,1.0292,1.0293,1.0307,1.0266,1.0438,1.0956,1.1704,1.2498,1.3281,1.3633,1.4095,1.4803,1.4699,1.4548,1.4314,1.402,1.383,1.3715,1.3785,1.4191,1.4934,1.4843,1.502,1.5378,1.4687,1.411,1.3648,1.4024,1.4356,1.4546,1.3565,1.3658,1.4159,1.1734,1.1848,1.3187,1.1967,1.1576,1.1658,1.1729,1.1207,1.0419,0.9791,0.9158,0.8529,0.7945,0.7432,0.6936,0.6435,0.5882,0.5336,0.4943,0.4482,0.4135,0.4168,0.3848,0.3518,0.3633,0.3388,0.3075,0.2719,0.2445,0.2238,0.2196,0.192,0.1883,0.2235,0.2411,0.2477,0.2404,0.2215,0.2003,0.1783,0.1624,0.1502,0.1438,0.1568,0.1663,0.1696,0.1645,0.1682,0.1768,0.1811,0.1773,0.1669,0.1927,0.197,0.1877,0.2185,0.2346,0.2464,0.2617,0.2864,0.7092,0.0,0.0,0.8397,0.8278,0.8315,0.9604,0.951,0.9337,0.9959,1.0147,1.0199,1.0194,1.0205,0.0,1.0254,1.0285,1.0309,1.031,1.0292,1.0291,1.0263,1.0425,1.0874,1.176,1.2358,1.3012,1.3749,1.4029,1.4358,1.4776,1.469,1.454,1.4331,1.4087,1.3945,1.388,1.3698,1.3968,1.471,1.4658,1.4826,1.5182,1.4569,1.4106,1.3827,1.4105,1.4414,1.4635,1.3743,1.359,1.3733,1.1749,1.1791,1.2845,1.1804,1.1596,1.1809,1.1667,1.1033,1.0197,0.9557,0.8915,0.8287,0.7811,0.7308,0.6769,0.6222,0.5635,0.5098,0.4513,0.4009,0.3666,0.3621,0.3238,0.2884,0.2936,0.2637,0.2281,0.1966,0.1763,0.1633,0.1447,0.1272,0.1204,0.1391,0.1682,0.1905,0.2074,0.1908,0.1587,0.1276,0.1196,0.1137,0.1117,0.1326,0.15,0.161,0.1637,0.1691,0.1787,0.1883,0.1883,0.1701,0.2138,0.2245,0.205,0.2405,0.26,0.258,0.2645,0.2859,0.0,0.0,0.9801,0.9372,0.9508,0.9762,0.9875,0.9986,1.007,1.0087,1.014,1.0196,1.0205,1.0202,1.0208,1.0201,1.0251,1.0293,1.0293,1.0293,1.0271,1.0208,1.0889,1.1712,0.0,1.269,1.3015,1.3748,1.4582,1.4981,1.4813,1.4738,1.4612,1.44,1.4386,1.4282,1.4096,1.4078,1.4378,1.4992,1.4992,1.4896,1.4693,1.4035,1.3746,1.3827,1.4141,1.4456,1.4597,1.3123,1.3113,1.3744,1.1159,1.0957,1.2057,1.1447,1.1829,1.2536,1.1707,1.08,0.9894,0.9242,0.8612,0.8052,0.7627,0.7231,0.6762,0.6105,0.5464,0.4842,0.4186,0.3569,0.3128,0.3131,0.2856,0.2569,0.2369,0.2235,0.1966,0.1432,0.1342,0.1155,0.0651,0.0467,0.0431,0.0446,0.0729,0.1178,0.1741,0.1685,0.1517,0.1293,0.1292,0.1194,0.0941,0.1001,0.1074,0.1293,0.1233,0.1294,0.1419,0.1907,0.1999,0.1589,0.2406,0.2556,0.2123,0.2442,0.2575,0.2615,0.261,0.2632,0.9637,0.0,0.9369,0.9525,0.9647,0.9773,0.9942,0.9998,1.0039,1.0024,1.0052,1.0078,1.0122,1.0127,1.0157,1.0198,1.0267,1.031,1.0291,1.025,1.0221,1.0205,1.0445,0.0,0.0,0.0,0.0,1.4594,1.4933,1.5057,1.4928,1.4876,1.4776,1.4672,1.4587,1.4485,1.4375,1.4277,1.4293,1.4403,1.4269,1.4546,1.5142,1.432,1.4078,1.4282,1.4523,1.4757,1.4835,1.3277,1.2853,1.3008,1.0919,1.0565,1.1187,1.0702,1.0838,1.1245,1.1275,1.0647,0.9751,0.9078,0.8501,0.7917,0.7294,0.6819,0.6364,0.5732,0.5113,0.4554,0.4261,0.3717,0.3252,0.3286,0.293,0.254,0.2341,0.2012,0.1657,0.1344,0.1223,0.102,0.058,0.0652,0.0787,0.0723,0.0954,0.1234,0.1459,0.1403,0.1358,0.1273,0.1102,0.0999,0.0971,0.0547,0.037,0.0635,0.0812,0.0997,0.1143,0.1434,0.1597,0.164,0.2125,0.2319,0.2221,0.2563,0.2732,0.2677,0.276,0.2777,1.0105,0.9963,0.9778,0.9682,0.9717,0.9811,0.9942,0.9965,0.9963,0.9991,0.9996,1.0016,1.0067,1.0063,1.0083,1.0158,1.0191,1.0239,1.0268,1.024,1.0197,1.0197,1.018,0.0,0.0,0.0,0.0,1.4551,1.4667,1.4775,1.5026,1.4981,1.4942,1.4873,1.4785,1.4718,1.4645,1.4482,1.432,1.4132,1.3998,1.4293,1.4908,1.4387,1.4247,1.4422,1.4303,1.4392,1.4482,1.2897,1.2278,1.2186,1.0693,1.02,1.0389,1.0421,1.0366,1.0308,1.0625,1.0181,0.939,0.8842,0.8287,0.7686,0.7056,0.6542,0.6086,0.5519,0.4967,0.445,0.4255,0.3823,0.3411,0.3327,0.308,0.2713,0.2392,0.2012,0.1701,0.1478,0.1208,0.0954,0.0711,0.0746,0.084,0.089,0.0954,0.1066,0.1234,0.1234,0.1244,0.1214,0.1043,0.0939,0.0969,0.0307,-0.0125,-0.0193,0.0,0.0321,0.0785,0.1094,0.1331,0.1565,0.2151,0.2432,0.2451,0.2713,0.2832,0.2695,0.2836,0.2893,1.0798,1.0936,1.0977,0.9941,0.9812,0.9963,0.9968,0.9931,0.9923,0.9974,0.9987,0.9982,0.0,0.0,1.0008,1.0089,1.011,1.0129,1.0198,1.0199,1.0202,0.0,0.0,0.0,0.0,0.0,0.0,1.3557,0.0,1.4161,1.4922,1.498,1.496,1.4931,1.4935,1.4914,1.4902,1.471,1.4475,1.4201,1.4195,1.4172,1.4127,1.4172,1.4234,1.4222,1.3587,1.3453,1.3532,1.2034,1.1432,1.1397,1.0467,0.9917,0.9748,1.0544,1.0412,0.983,0.9868,0.9457,0.8863,0.8524,0.7994,0.7421,0.6927,0.6395,0.5867,0.5422,0.5004,0.4563,0.4142,0.3878,0.3641,0.332,0.3233,0.3058,0.248,0.2233,0.2055,0.1701,0.1299,0.0999,0.0948,0.071,0.0591,0.0837,0.0561,0.0561,0.1122,0.1122,0.1122,0.1178,0.1011,0.0911,0.0882,0.0304,-0.0376,-0.1032,-0.1126,-0.0673,0.0337,0.0808,0.1128,0.1356,0.232,0.281,0.2651,0.2894,0.2871,0.2713,0.2943,0.3056,1.1332,1.1421,1.1499,1.0862,1.0756,1.0829,1.0922,1.0406,0.99,0.9857,0.9773,0.9705,0.0,0.0,0.0,0.9933,1.0083,0.0,1.0201,1.0205,0.0,0.0,0.0,1.0167,1.0335,1.0396,0.0,0.0,1.2584,1.3024,1.3223,1.3244,1.3481,1.4005,1.4027,1.4281,1.4823,1.4635,1.4462,1.4338,1.425,1.4242,1.4313,1.4344,1.4105,1.3688,1.3628,1.3354,1.2888,1.1885,1.1464,1.1324,1.0336,1.0106,1.0321,1.0156,1.0023,0.9907,0.9689,0.9493,0.9245,0.8607,0.7994,0.7362,0.6717,0.6106,0.5563,0.517,0.4768,0.4428,0.4507,0.4238,0.3906,0.3738,0.364,0.343,0.2937,0.2812,0.2635,0.219,0.1657,0.1283,0.1278,0.0808,0.0366,0.0222,-0.0,0.0112,0.0898,0.1122,0.1234,0.129,0.1033,0.0876,0.0883,0.031,-0.032,-0.1033,-0.1128,-0.0876,-0.0269,0.0067,0.047,0.0931,0.1675,0.218,0.2421,0.2688,0.2847,0.2897,0.3026,0.3309,1.2235,1.2175,1.2233,1.1719,1.1603,1.1546,1.1232,1.0766,1.0261,0.9769,0.9625,0.0,0.0,0.0,0.0,0.0,0.0,0.0,1.0195,1.0207,1.0183,0.0,1.0136,0.0,1.0044,1.0102,1.0359,0.0,1.1631,1.2238,1.2622,1.2636,1.281,1.3207,1.3595,1.4126,1.4841,1.4264,1.4125,1.4392,1.3938,1.3751,1.3816,1.3527,1.3249,1.2961,0.0,1.2411,1.209,1.164,1.1394,1.1246,1.0627,1.0671,1.102,1.0378,1.0255,1.0361,1.0082,0.979,0.941,0.8501,0.7811,0.7184,0.6474,0.5952,0.5491,0.5081,0.4749,0.4524,0.4552,0.4371,0.4115,0.3896,0.3845,0.3766,0.3298,0.3215,0.3123,0.2632,0.2146,0.1691,0.1363,0.0898,0.0463,0.0217,-0.0167,-0.028,0.0056,0.0561,0.0842,0.0729,0.0856,0.0754,0.0294,0.0,-0.0437,-0.1013,-0.1107,-0.1057,-0.0792,-0.0602,-0.0067,0.0739,0.1344,0.1868,0.2363,0.269,0.301,0.3257,0.3077,0.3272,1.3343,1.3136,1.3167,1.2556,1.2365,1.2119,1.1367,1.0986,1.0568,0.9684,0.0,0.9607,0.9657,0.0,0.9763,0.9949,0.0,1.0128,1.0191,1.0194,1.0208,1.0206,1.0199,1.018,1.0125,1.0173,1.0208,1.0205,1.0847,1.157,1.2322,1.2363,1.238,1.2408,1.3254,1.4035,1.4725,1.3812,1.3666,1.4281,1.3511,1.3088,1.2972,1.239,1.2138,1.2132,0.0,0.0,1.1244,1.1222,1.115,1.1038,1.0884,1.1178,1.1588,1.0896,1.0764,1.0935,1.0745,1.0182,0.9343,0.8338,0.7637,0.7047,0.6348,0.5937,0.5609,0.5106,0.4883,0.4743,0.4498,0.4447,0.4352,0.3966,0.4014,0.4049,0.3625,0.3562,0.3473,0.2987,0.2588,0.2088,0.1428,0.1085,0.0767,0.0533,0.0055,-0.0393,-0.0842,-0.0224,0.0224,0.0112,0.0561,0.0568,-0.0292,-0.047,-0.0597,-0.0801,-0.1074,-0.1158,-0.1039,-0.1059,-0.0536,0.0605,0.121,0.1814,0.2417,0.2753,0.3159,0.3565,0.3159,0.3281,1.4499,1.4333,1.4251,1.3594,1.29,1.2338,1.2196,1.0953,0.0,0.0,0.0,0.9518,0.9525,0.9669,0.0,0.9901,0.0,0.0,0.0,0.0,1.0202,0.0,0.0,0.0,0.0,0.0,0.0,0.0,0.0,0.0,1.064,1.0632,1.0882,1.1433,1.228,1.3097,1.3816,1.3649,1.3587,1.3644,1.3505,1.3049,1.2354,1.229,1.1987,1.1471,1.1338,0.0,1.0409,1.0341,1.0276,1.0197,1.0069,1.0631,1.1487,1.1028,1.1011,1.1222,1.1241,1.0294,0.8972,0.824,0.7835,0.7415,0.6532,0.6081,0.5765,0.5334,0.5049,0.4836,0.4702,0.4593,0.451,0.4333,0.4396,0.4459,0.4195,0.3898,0.3565,0.3078,0.2724,0.2338,0.1927,0.1507,0.1136,0.0881,0.0614,0.0112,-0.0785,-0.0336,0.0224,0.0673,0.0842,0.0731,0.0283,-0.0522,-0.0657,0.0,-0.0558,-0.0827,-0.0534,-0.092,-0.0723,0.0134,0.1412,0.2153,0.2423,0.2824,0.3159,0.3498,0.3295,0.3439,1.5496,1.5022,1.4672,1.4305,1.3566,1.2784,1.2294,0.0,0.0,0.0,0.0,0.9492,0.9456,0.0,0.0,0.0,0.0,0.0,0.0,0.0,0.0,0.0,0.0,0.0,0.0,0.0,0.0,0.0,0.0,0.0,1.0203,1.0191,1.0543,1.1286,1.1685,1.2471,1.369,1.3622,1.3607,1.3599,1.3142,1.2508,1.1717,1.1325,1.0991,1.0733,1.0731,0.0,1.0232,1.061,1.094,1.1188,1.1042,1.1504,1.2159,1.1661,1.1434,1.1401,1.1442,1.0804,0.9791,0.865,0.8076,0.7723,0.6997,0.6525,0.6168,0.5734,0.5454,0.5195,0.497,0.4768,0.4575,0.4553,0.4626,0.4684,0.4674,0.4364,0.4012,0.3656,0.317,0.2718,0.2311,0.1964,0.1632,0.1322,0.1042,0.0673,0.0112,-0.0112,0.0,0.0561,0.0785,0.0621,-0.0,-0.0057,-0.0176,-0.0369,-0.037,-0.0378,-0.0395,-0.0594,-0.0531,-0.0,0.1076,0.1817,0.2288,0.2757,0.3224,0.3627,0.3627,0.3859,1.6452,1.5664,1.5057,1.4813,1.3943,1.2937,1.216,1.1214,0.0,0.0,0.9357,0.9483,0.9455,0.0,0.0,0.0,0.0,0.0,0.0,0.0,0.0,0.0,0.0,0.0,0.0,0.0,0.0,0.0,0.0,0.0,1.0192,1.0214,1.0498,1.1118,1.1266,1.2046,1.3537,1.3443,1.3411,1.3443,1.2604,1.1774,1.1013,1.0398,1.0153,1.0193,1.0203,0.0,0.0,1.0878,1.1374,1.1775,1.1645,1.1925,1.2327,1.1815,1.1512,1.1356,1.1449,1.1191,1.0633,0.943,0.8693,0.814,0.7375,0.7002,0.6708,0.6183,0.5875,0.5626,0.5257,0.4947,0.4743,0.4848,0.493,0.4973,0.5067,0.4849,0.4499,0.4152,0.3615,0.309,0.2625,0.2357,0.2121,0.1734,0.151,0.1289,0.101,0.028,-0.0056,0.0449,0.0729,0.0567,-0.0233,0.0455,0.0403,-0.0731,-0.0245,-0.0,-0.0194,-0.0132,0.0,0.0202,0.1009,0.1681,0.222,0.2824,0.3426,0.3961,0.4028,0.4276,1.742,1.6678,1.5891,1.5153,1.362,1.2261,1.204,0.0,0.0,0.9249,0.9358,0.9514,0.9581,0.9102,0.0,0.0,0.0,0.0,0.0,0.0,0.0,0.0,0.0,0.0,0.0,0.0,0.0,0.0,0.0,0.0,1.0209,1.0254,1.0301,1.0308,1.1011,1.1822,1.2704,1.2708,1.2708,1.2685,1.1885,1.1038,1.0202,1.0207,1.0193,1.0205,1.0195,0.0,0.0,1.0212,1.0183,1.0107,1.0049,1.031,1.0695,1.0511,1.0632,1.0911,1.1286,1.1035,1.0562,1.0717,1.0044,0.8919,0.7463,0.7246,0.7373,0.6713,0.6297,0.5937,0.5477,0.5226,0.5144,0.5432,0.5436,0.5378,0.5444,0.5231,0.484,0.4056,0.3615,0.3212,0.2679,0.2449,0.2243,0.19,0.1916,0.1736,0.1234,0.0673,0.0449,0.0842,0.0898,0.073,0.0338,0.0674,0.0627,-0.0059,-0.0,0.0122,0.0387,0.0777,0.0984,0.1008,0.1884,0.2287,0.2214,0.3025,0.3832,0.4506,0.4359,0.4431,1.7089,1.6064,1.5376,1.4972,1.3522,1.216,1.2039,0.0,0.9356,0.9229,0.9338,0.9295,0.8842,0.863,0.8692,0.0,0.0,0.0,0.0,0.0,0.0,0.0,0.0,0.0,0.0,0.0,0.0,0.0,0.0,0.0,1.0202,1.0254,1.0518,1.0964,1.1803,1.2648,1.3483,1.3497,1.3237,1.2719,1.2348,1.1477,1.0172,1.0683,1.0662,1.0193,1.0204,0.0,0.0,1.0821,1.0977,1.1224,1.1193,1.1196,1.125,1.1511,1.1562,1.1532,1.1933,1.1712,1.1203,1.0727,1.0332,0.9755,0.8345,0.774,0.7383,0.6637,0.653,0.6498,0.5872,0.5672,0.5625,0.5516,0.5643,0.5745,0.5608,0.5439,0.5145,0.4539,0.4056,0.3529,0.3067,0.28,0.2552,0.2331,0.2193,0.2073,0.1962,0.1402,0.101,0.0898,0.0561,0.0393,0.0393,0.0393,0.0114,-0.0529,0.024,0.0742,0.0839,0.0985,0.1265,0.1546,0.2018,0.249,0.282,0.3625,0.4295,0.4897,0.502,0.5153,1.6565,1.5686,1.517,1.4598,1.3291,1.205,0.0,0.0,0.9354,0.9199,0.931,0.9188,0.8372,0.8394,0.8596,0.8781,0.0,0.9198,0.0,0.0,0.0,0.0,0.0,0.0,0.0,0.0,0.0,0.0,0.0,0.0,0.0,1.0464,1.0781,1.1136,1.2207,1.2949,1.3323,1.3782,1.3573,1.2732,1.264,1.2,1.0872,1.1438,1.1391,1.0845,0.0,0.0,0.0,1.1534,1.176,1.2078,1.2022,1.1864,1.1677,1.194,1.1814,1.1547,1.1898,1.1759,1.1334,1.0714,1.0413,1.0116,0.9069,0.8344,0.7755,0.7107,0.7007,0.6919,0.6163,0.6059,0.6105,0.5794,0.5881,0.6009,0.5752,0.564,0.5429,0.4881,0.437,0.3873,0.3385,0.3085,0.2851,0.2671,0.2521,0.2428,0.2318,0.1949,0.1514,0.1122,0.0449,0.0056,0.028,0.0113,-0.0172,-0.058,0.0244,0.0755,0.0829,0.1057,0.1407,0.1853,0.2124,0.2573,0.3249,0.3881,0.4501,0.5098,0.5463,0.5683,1.606,1.5943,1.5608,1.4008,1.2845,1.1819,0.0,0.0,0.9345,0.914,0.932,0.9247,0.8442,0.8462,0.8642,0.8777,0.8856,0.0,0.0,0.0,0.0,0.0,0.0,0.0,0.0,0.0,0.0,0.0,0.0,0.0,0.0,1.0969,1.1068,1.033,1.1875,1.2324,1.1523,1.3032,1.3396,1.2601,1.2478,1.24,1.2391,1.2383,1.2393,0.0,0.0,0.0,0.0,1.2122,1.2068,1.1991,1.1843,1.168,1.1456,1.1141,1.0801,1.0543,1.0813,1.0728,1.0575,1.0897,1.0496,0.9823,0.9426,0.9056,0.8723,0.8456,0.7849,0.7115,0.6295,0.6348,0.6572,0.6515,0.6331,0.6144,0.5946,0.588,0.5665,0.4867,0.4537,0.4232,0.3697,0.337,0.3089,0.286,0.29,0.277,0.2181,0.2083,0.1961,0.1515,0.0617,0.0,0.0,0.0,-0.0,-0.0,0.0,0.0064,0.0124,0.1044,0.1718,0.191,0.2183,0.2643,0.3406,0.3768,0.431,0.5088,0.5418,0.5815,1.3204,1.2981,1.2733,1.251,1.1754,1.0974,1.0593,0.0,0.9259,0.9243,0.9339,0.9061,0.7842,0.7677,0.7735,0.7832,0.7828,0.0,0.0,0.0,0.0,0.0,0.0,0.0,0.0,0.0,0.0,0.0,0.0,0.0,0.0,1.0266,1.0802,1.1776,1.2829,1.3499,1.3752,1.3696,1.3501,1.3221,1.3133,1.2806,1.2277,1.2831,0.0,0.0,0.0,0.0,0.0,1.2611,1.2555,1.2409,1.2366,1.2151,1.1821,1.1765,1.1777,1.1822,1.1951,1.1653,1.1205,1.132,1.0945,1.042,1.0302,0.9503,0.8624,0.8381,0.79,0.7385,0.7111,0.7046,0.6924,0.6568,0.6422,0.6244,0.5908,0.5713,0.5496,0.504,0.4638,0.4213,0.3869,0.3479,0.3114,0.2862,0.2627,0.2379,0.2119,0.1934,0.1804,0.1736,0.1291,0.0673,-0.0224,-0.0113,0.0,0.0,0.0,0.0121,0.0299,0.107,0.1662,0.2118,0.2525,0.3119,0.3901,0.4206,0.4735,0.5417,0.5575,0.5649,1.1737,1.1509,1.1163,1.1392,1.1019,0.0,0.0,0.0,0.9279,0.9293,0.9153,0.8661,0.7518,0.7334,0.7285,0.7025,0.75,0.0,0.0,0.0,0.0,0.0,0.0,0.0,0.0,0.0,0.0,0.0,0.0,0.0,0.0,1.0216,1.0856,1.1931,1.2425,1.2769,1.2951,1.3332,1.3206,1.2563,1.3095,1.3058,1.253,1.2996,0.0,0.0,0.0,0.0,0.0,1.3156,1.3133,1.3117,1.2924,1.2742,1.2537,1.239,1.2209,1.2049,1.2242,1.182,1.1234,1.1417,1.1127,1.0705,1.0594,0.9854,0.8943,0.8434,0.8139,0.7887,0.7637,0.7521,0.7344,0.6855,0.6592,0.6365,0.5963,0.5767,0.5555,0.5225,0.4895,0.4568,0.418,0.3802,0.342,0.3077,0.2784,0.2548,0.2385,0.2163,0.1999,0.1956,0.1794,0.1345,0.0336,0.0113,0.0057,0.0168,0.0176,0.0298,0.0707,0.1351,0.1926,0.2303,0.2868,0.35,0.4154,0.4677,0.5273,0.582,0.5871,0.5856,0.0,1.123,1.0695,1.0619,1.0546,1.0289,0.9392,0.0,0.0,0.9223,0.8738,0.8096,0.737,0.7334,0.7163,0.6411,0.0,0.0,0.0,0.0,0.0,0.0,0.0,0.0,0.0,0.0,0.0,0.0,0.0,0.0,0.0,1.0645,1.0986,1.092,1.0904,1.0646,1.0055,1.2207,1.2548,1.1084,1.2519,1.3139,1.2998,1.2938,0.0,0.0,0.0,0.0,0.0,1.3665,1.3696,1.392,1.3424,1.3293,1.3325,1.2778,1.205,1.1388,1.1774,1.1419,1.0827,1.1234,1.1125,1.0766,1.0403,1.0084,0.9639,0.8675,0.8574,0.8618,0.7977,0.7873,0.7811,0.7264,0.6876,0.6502,0.6087,0.5934,0.5726,0.533,0.5235,0.5053,0.4561,0.4264,0.3917,0.3483,0.3278,0.3072,0.2799,0.2646,0.2471,0.2223,0.2179,0.1905,0.1402,0.0577,0.0232,0.0449,0.0416,0.0727,0.1353,0.1932,0.2357,0.2581,0.3384,0.3954,0.4275,0.5148,0.5781,0.6079,0.628,0.6289,0.9967,0.0,0.9767,0.9586,0.9588,0.9525,0.0,0.0,0.0,0.0,0.0,0.7278,0.6659,0.6513,0.6421,0.0,0.0,0.0,0.0,0.0,0.0,0.0,0.0,0.0,0.0,0.0,0.0,0.0,0.0,0.0,0.0,1.0116,0.9858,0.9136,0.9744,1.0535,1.1497,1.2059,1.2112,1.1679,1.2048,1.2495,1.2998,1.2992,0.0,0.0,0.0,0.0,1.3698,1.3608,1.3592,1.3553,1.2829,1.2418,1.219,1.1609,1.1107,1.0751,1.1059,1.1232,1.1302,1.1189,1.1182,1.107,1.0477,1.0238,1.0097,0.9589,0.9496,0.9425,0.8859,0.8536,0.8231,0.7686,0.7145,0.6637,0.6176,0.5676,0.5217,0.4972,0.4635,0.4366,0.4354,0.3985,0.369,0.3548,0.3152,0.2766,0.264,0.2544,0.2433,0.2414,0.2261,0.2128,0.2017,0.1639,0.1188,0.0783,0.0796,0.1258,0.2326,0.2687,0.3028,0.3334,0.4235,0.4752,0.482,0.55,0.5892,0.6034,0.6191,0.6147,0.9568,0.9542,0.952,0.9368,0.9359,0.9377,0.9349,0.0,0.0,0.0,0.0,0.0,0.6274,0.0,0.0,0.0,0.0,0.0,0.0,0.0,0.0,0.0,0.0,0.0,0.0,0.0,0.0,0.0,0.0,0.0,0.0,0.8434,0.8154,0.764,0.8026,0.8944,1.042,1.1168,1.1357,1.0986,1.1323,1.1659,1.1981,1.1967,1.2284,0.0,0.0,0.0,1.2902,1.2741,1.2747,1.2794,1.2149,1.1883,1.1807,1.1311,1.1065,1.0974,1.1053,1.1201,1.1318,1.1085,1.1058,1.1018,1.0503,1.0382,1.0342,0.988,0.9449,0.9019,0.8645,0.8284,0.7914,0.7445,0.6975,0.6553,0.6332,0.5875,0.5455,0.5298,0.4976,0.4661,0.4401,0.4037,0.371,0.3517,0.2989,0.2612,0.264,0.2379,0.2283,0.2469,0.2405,0.2404,0.2404,0.2353,0.2115,0.1507,0.1511,0.1903,0.2856,0.3199,0.3735,0.4456,0.5312,0.5688,0.5613,0.6162,0.638,0.6245,0.6294,0.622,0.9184,0.9202,0.9318,0.9497,0.9552,0.9518,0.9375,0.0,0.0,0.0,0.0,0.0,0.0,0.0,0.0,0.0,0.0,0.0,0.0,0.0,0.0,0.0,0.0,0.0,0.0,0.0,0.0,0.0,0.0,0.0,0.0,0.6544,0.6437,0.6351,0.6374,0.6954,0.8123,0.9584,1.0034,0.9511,1.018,1.0501,1.0531,1.0525,1.0948,0.0,0.0,0.0,1.1962,1.1557,1.1591,1.1844,1.1247,1.1122,1.1258,1.0876,1.081,1.0936,1.1081,1.1044,1.0936,1.0832,1.0802,1.0738,1.0301,1.0324,1.0412,0.9879,0.918,0.8537,0.8366,0.8072,0.7715,0.7304,0.6965,0.678,0.6942,0.6688,0.6453,0.6443,0.6239,0.5881,0.524,0.4739,0.4299,0.3931,0.3225,0.2772,0.2888,0.2504,0.2384,0.265,0.2706,0.2721,0.2724,0.2889,0.2873,0.245,0.2471,0.276,0.3437,0.38,0.4492,0.5531,0.6211,0.6463,0.6283,0.6781,0.6842,0.6493,0.6501,0.6372,0.7173,0.7424,0.8126,0.9432,0.9761,0.9556,0.8817,0.0,0.0,0.0,0.0,0.0,0.0,0.0,0.0,0.0,0.0,0.0,0.0,0.0,0.0,0.0,0.0,0.0,0.0,0.0,0.0,0.0,0.0,0.0,0.0,0.0,0.5717,0.5262,0.5937,0.6233,0.6069,0.6814,0.7369,0.7693,0.7994,0.8563,0.9378,0.9647,1.0077,0.0,0.0,1.0937,1.145,1.0723,1.0659,1.0885,0.9679,0.9117,0.8932,0.8372,0.8213,0.8482,0.9878,1.0132,0.9912,1.0277,1.0391,1.0228,0.9316,0.9578,1.0123,0.9925,0.9887,0.9875,0.9732,0.9438,0.9102,0.8759,0.8464,0.8404,0.8921,0.8776,0.8701,0.9254,0.9015,0.8657,0.8489,0.7196,0.6196,0.6117,0.4771,0.3778,0.3807,0.3607,0.3427,0.3451,0.3322,0.3269,0.3188,0.3196,0.3223,0.3357,0.3614,0.4144,0.5072,0.5246,0.5466,0.5824,0.6192,0.6288,0.613,0.6574,0.6605,0.6351,0.6788,0.6681,0.7066,0.7315,0.772,0.8437,0.8583,0.8585,0.8651,0.0,0.0,0.0,0.0,0.0,0.0,0.0,0.0,0.0,0.0,0.0,0.0,0.0,0.0,0.0,0.0,0.0,0.0,0.0,0.0,0.0,0.0,0.0,0.0,0.0,0.4142,0.3718,0.413,0.425,0.4033,0.4383,0.5466,0.7247,0.7415,0.7695,0.808,0.8387,0.8612,0.8784,0.0,0.9074,0.9535,0.9089,0.9146,0.9439,0.8827,0.8536,0.8428,0.8257,0.8219,0.8362,0.9213,0.9328,0.9168,0.9452,0.9486,0.9322,0.8718,0.8894,0.9263,0.9084,0.945,0.9795,0.9455,0.9021,0.8545,0.7994,0.7691,0.7611,0.7964,0.7779,0.764,0.7986,0.759,0.708,0.6676,0.5611,0.4807,0.477,0.3921,0.3353,0.35,0.4641,0.5256,0.4794,0.5543,0.5788,0.4996,0.4365,0.3982,0.3983,0.4319,0.4804,0.5585,0.6024,0.6292,0.644,0.6967,0.7003,0.6574,0.7055,0.7046,0.6614,0.6873,0.6832,0.6764,0.6919,0.699,0.7224,0.7399,0.7639,0.8121,0.0,0.0,0.0,0.0,0.0,0.0,0.0,0.0,0.0,0.0,0.0,0.0,0.0,0.0,0.0,0.0,0.0,0.0,0.0,0.0,0.0,0.0,0.0,0.0,0.0,0.2728,0.2515,0.2624,0.2667,0.2674,0.2858,0.4144,0.6492,0.6706,0.6791,0.6838,0.7118,0.7164,0.6998,0.7087,0.7333,0.7663,0.7449,0.7633,0.8009,0.7884,0.79,0.7991,0.8131,0.826,0.8409,0.8544,0.8572,0.8538,0.859,0.8472,0.8262,0.7917,0.8032,0.8292,0.8316,0.8903,0.9423,0.8934,0.846,0.7972,0.7369,0.7139,0.7101,0.7271,0.7247,0.7209,0.7327,0.6909,0.6353,0.5719,0.4735,0.3948,0.3699,0.3113,0.2755,0.2897,0.4631,0.5603,0.4987,0.6111,0.6651,0.6034,0.469,0.4164,0.4744,0.4857,0.5139,0.5626,0.6332,0.682,0.7019,0.765,0.7705,0.7154,0.7623,0.7498,0.6925,0.6975,0.683,0.5034,0.5038,0.5212,0.6089,0.6944,0.0,0.6727,0.6475,0.0,0.5174,0.0,0.0,0.0,0.0,0.0,0.0,0.0,0.0,0.0,0.0,0.0,0.0,0.0,0.0,0.0,0.0,0.0,0.0,0.0,0.0,0.0,0.0,0.0,0.2233,0.2466,0.2594,0.2601,0.2923,0.3537,0.4414,0.4797,0.5255,0.572,0.6057,0.6066,0.5846,0.6163,0.6433,0.6682,0.6277,0.6438,0.6861,0.637,0.6395,0.6719,0.6675,0.6976,0.7422,0.7635,0.7852,0.7999,0.7777,0.7488,0.7114,0.6522,0.6837,0.7525,0.8195,0.885,0.9243,0.8883,0.8638,0.842,0.8238,0.8277,0.8447,0.8775,0.9355,0.9879,1.0065,1.0015,0.9787,0.9314,0.7538,0.5919,0.5167,0.3708,0.2616,0.2391,0.2576,0.27,0.2635,0.2524,0.3149,0.4862,0.2881,0.2894,0.6054,0.5392,0.5105,0.5501,0.615,0.6783,0.737,0.7724,0.7839,0.767,0.7797,0.7588,0.6976,0.7134,0.6912,0.4735,0.4297,0.4024,0.4925,0.5072,0.0,0.0,0.5878,0.5344,0.4872,0.0,0.0,0.0,0.0,0.0,0.0,0.0,0.0,0.0,0.0,0.0,0.0,0.0,0.0,0.0,0.0,0.0,0.0,0.0,0.0,0.0,0.0,0.0,0.2326,0.2419,0.247,0.2465,0.2682,0.3022,0.3536,0.4233,0.463,0.4746,0.5121,0.5196,0.5012,0.5073,0.5283,0.5574,0.5399,0.5615,0.6025,0.5888,0.6116,0.6586,0.6423,0.6579,0.6907,0.7107,0.7264,0.7355,0.7306,0.7114,0.6844,0.6442,0.6498,0.6747,0.7073,0.7448,0.7944,0.8815,0.8922,0.8634,0.7905,0.7816,0.7796,0.7499,0.7607,0.7774,0.7878,0.7479,0.6971,0.6452,0.5225,0.4069,0.3483,0.2725,0.2205,0.2244,0.4012,0.4963,0.4159,0.3841,0.3413,0.2774,0.0585,0.0405,0.3118,0.4161,0.4809,0.5121,0.5861,0.6528,0.7122,0.7795,0.8157,0.8141,0.8359,0.8259,0.7938,0.7638,0.7291,0.4227,0.3607,0.3128,0.3625,0.0,0.0,0.4789,0.4966,0.48,0.4666,0.0,0.0,0.0,0.0,0.0,0.0,0.0,0.0,0.0,0.0,0.0,0.0,0.0,0.0,0.0,0.0,0.0,0.0,0.0,0.0,0.0,0.0,0.0,0.0,0.2508,0.2478,0.2326,0.2563,0.2778,0.2967,0.3817,0.4228,0.4271,0.471,0.4768,0.4555,0.4616,0.4681,0.4833,0.4929,0.5208,0.5664,0.5825,0.6243,0.6653,0.6466,0.6537,0.6722,0.674,0.6718,0.6677,0.6691,0.6509,0.6279,0.6182,0.6072,0.6068,0.6411,0.6619,0.7018,0.8424,0.8649,0.8279,0.7451,0.7296,0.7186,0.6458,0.6372,0.6414,0.6171,0.5707,0.5168,0.4685,0.3814,0.2974,0.2323,0.1917,0.1582,0.1396,0.3403,0.4417,0.3416,0.2786,0.2089,0.1195,-0.1144,-0.1679,0.0385,0.1543,0.3035,0.4998,0.5848,0.6593,0.7209,0.7988,0.8508,0.8762,0.8905,0.8901,0.8837,0.8259,0.7807,0.329,0.2844,0.249,0.0,0.0,0.0,0.2442,0.363,0.465,0.0,0.0,0.0,0.0,0.0,0.0,0.0,0.0,0.0,0.0,0.0,0.0,0.0,0.0,0.0,0.0,0.0,0.0,0.0,0.0,0.0,0.0,0.0,0.0,0.0,0.275,0.2667,0.2199,0.2588,0.2772,0.273,0.3469,0.3991,0.4423,0.4861,0.4897,0.4517,0.4938,0.4832,0.4455,0.4925,0.532,0.5766,0.6187,0.6574,0.6794,0.6649,0.6749,0.6943,0.6532,0.6174,0.5917,0.5889,0.5593,0.5265,0.5533,0.5502,0.5615,0.6543,0.6657,0.6727,0.7635,0.7639,0.7332,0.7,0.6992,0.6884,0.6079,0.6379,0.6547,0.5774,0.5586,0.5475,0.5145,0.4268,0.3249,0.2266,0.1517,0.075,-0.0254,-0.0084,-0.0082,-0.0551,-0.1669,-0.1624,0.0299,-0.2189,-0.3147,-0.1523,-0.2381,-0.0424,0.5213,0.6245,0.6995,0.7702,0.8235,0.8821,0.9491,0.9381,0.9404,0.9619,0.899,0.8464,0.2624,0.1814,0.0,0.0,0.0,0.0,0.0,0.2603,0.0,0.0,0.0,0.0,0.0,0.0,0.0,0.0,0.0,0.0,0.0,0.0,0.0,0.0,0.0,0.0,0.0,0.0,0.0,0.0,0.0,0.0,0.0,0.0,0.0,0.0,0.2737,0.2631,0.2545,0.2754,0.2857,0.286,0.3711,0.4175,0.4292,0.4712,0.4943,0.5,0.4904,0.4876,0.4828,0.4978,0.5158,0.5349,0.562,0.5876,0.6169,0.6181,0.6407,0.6742,0.6754,0.6678,0.6584,0.6623,0.6328,0.6053,0.6139,0.6059,0.6045,0.6545,0.685,0.714,0.7416,0.7595,0.758,0.7204,0.7212,0.7074,0.6148,0.6129,0.6193,0.6073,0.5658,0.5313,0.5265,0.4308,0.3293,0.2357,0.1517,0.0802,0.0308,0.0176,0.0,-0.0429,-0.1291,-0.2218,-0.3151,-0.5519,-0.5969,-0.3588,-0.5446,-0.3911,0.2152,0.3353,0.5259,0.8218,0.8869,0.951,1.0123,0.9935,1.0176,1.0695,0.9658,0.8949,0.1495,0.0,0.0,0.0,0.0,0.0,0.0,0.0,0.0,0.0,0.0,0.0,0.0,0.0,0.0,0.0,0.0,0.0,0.0,0.0,0.0,0.0,0.0,0.0,0.0,0.0,0.0,0.0,0.0,0.0,0.0,0.0,0.0,0.0,0.3013,0.2919,0.2907,0.3002,0.3027,0.3124,0.3765,0.4153,0.4315,0.4786,0.5089,0.5237,0.4991,0.4927,0.4972,0.4995,0.513,0.5229,0.5406,0.5673,0.5937,0.6157,0.6371,0.6569,0.6767,0.6755,0.669,0.6772,0.6632,0.6497,0.6591,0.6544,0.6501,0.6798,0.6939,0.7074,0.7389,0.7479,0.7495,0.7415,0.7382,0.7161,0.6476,0.6149,0.6019,0.6013,0.5583,0.5236,0.527,0.457,0.3646,0.2669,0.1293,0.0358,0.0224,-0.0179,-0.0536,-0.0847,-0.1611,-0.2814,-0.4477,-0.6405,-0.7072,-0.5929,-0.7446,-0.6026,-0.0708,0.1948,0.4318,0.652,0.8884,1.0326,1.0802,1.0426,1.0512,1.1007,0.9938,0.9185,0.0192,0.0,0.0,0.0,0.0,0.0,0.0,0.0,0.0,0.0,0.0,0.0,0.0,0.0,0.0,0.0,0.0,0.0,0.0,0.0,0.0,0.0,0.0,0.0,0.0,0.0,0.0,0.0,0.0,0.0,0.0,0.0,0.0,0.3578,0.3455,0.3325,0.3188,0.3228,0.3292,0.0,0.3748,0.4134,0.4561,0.505,0.5263,0.5331,0.5225,0.5089,0.4951,0.5112,0.5183,0.5336,0.5544,0.5792,0.6032,0.6368,0.6499,0.6499,0.6664,0.6571,0.6433,0.6612,0.6655,0.671,0.6952,0.6947,0.6896,0.725,0.7012,0.6843,0.7577,0.7455,0.7267,0.7701,0.7543,0.7218,0.6896,0.6416,0.5981,0.5761,0.5507,0.5285,0.5236,0.4884,0.4176,0.2984,0.1029,-0.0225,-0.018,-0.0852,-0.1433,-0.1612,-0.2366,-0.3293,-0.4343,-0.5523,-0.673,-0.7963,-0.8447,-0.7086,-0.3502,0.1243,0.3872,0.4034,0.8574,1.111,1.1497,1.079,1.0599,1.0836,0.995,0.9261,0.0,-0.068,0.0,0.0,0.0,0.0,0.0,0.0,0.0,0.0,0.0,0.0,0.0,0.0,0.0,0.0,0.0,0.0,0.0,0.0,0.0,0.0,0.0,0.0,0.0,0.0,0.0,0.0,0.0,0.0,0.0,0.0,0.0,0.3442,0.3413,0.333,0.3187,0.3504,0.367,0.0,0.4257,0.461,0.4819,0.4934,0.5214,0.5508,0.5496,0.5487,0.5454,0.5492,0.5403,0.5348,0.5738,0.5964,0.5996,0.6176,0.6318,0.6474,0.6747,0.6764,0.6686,0.7019,0.7058,0.6957,0.7304,0.7265,0.7172,0.7518,0.7547,0.7576,0.801,0.7927,0.7832,0.8248,0.7937,0.7419,0.7038,0.6636,0.6239,0.6002,0.5577,0.5371,0.5545,0.5058,0.4176,0.2893,0.1606,0.0604,0.018,-0.0448,-0.1166,-0.1923,-0.2279,-0.3114,-0.4678,-0.4782,-0.5316,-0.6616,-0.785,-0.8047,-0.6963,-0.2022,0.2803,0.7366,0.9263,1.093,1.2328,1.1291,1.0925,1.1155,1.0295,0.9624,0.0,0.0,0.0,0.0,0.0,0.0,0.0,0.0,0.0,0.0,0.0,0.0,0.0,0.0,0.0,0.0,0.0,0.0,0.0,0.0,0.0,0.0,0.0,0.0,0.0,0.0,0.0,0.0,0.0,0.0,0.0,0.414,0.3913,0.3725,0.3662,0.3592,0.3562,0.3796,0.3971,0.4124,0.4333,0.4617,0.4935,0.519,0.5454,0.5622,0.5791,0.5841,0.5723,0.5782,0.5732,0.5677,0.5896,0.6,0.6005,0.6223,0.6332,0.6436,0.6707,0.6874,0.7015,0.7209,0.7431,0.7587,0.7789,0.7692,0.757,0.7747,0.7729,0.7676,0.7895,0.7949,0.7955,0.8275,0.7936,0.7449,0.7323,0.6969,0.6611,0.6264,0.5927,0.5717,0.5626,0.4744,0.3822,0.3205,0.2046,0.1009,0.0494,-0.0179,-0.0896,-0.1655,-0.2192,-0.2943,-0.3898,-0.4341,-0.4763,-0.537,-0.676,-0.7221,-0.653,-0.3791,-0.0457,0.3393,0.7617,1.0132,1.0929,1.1196,1.1278,1.1135,1.0229,0.9534,0.0,0.0,0.0,0.0,0.0,0.0,0.0,0.0,0.0,0.0,0.0,0.0,0.0,0.0,0.0,0.0,0.0,0.0,0.0,0.0,0.0,0.0,0.0,0.0,0.0,0.0,0.0,0.0,0.0,0.0,0.4792,0.4447,0.4211,0.4033,0.3899,0.3845,0.392,0.4036,0.4227,0.4492,0.4409,0.4632,0.5066,0.5622,0.5736,0.5677,0.6009,0.6005,0.5832,0.6,0.6005,0.595,0.6055,0.6055,0.6055,0.6277,0.6332,0.6381,0.6598,0.6874,0.7149,0.7311,0.7687,0.8109,0.8221,0.8115,0.7955,0.7955,0.7788,0.7628,0.7729,0.7806,0.7947,0.8156,0.7807,0.7443,0.7747,0.7406,0.6943,0.6623,0.6319,0.6007,0.562,0.4548,0.3718,0.3741,0.2511,0.1443,0.0985,0.0179,-0.0582,-0.1119,-0.1925,-0.2549,-0.2901,-0.3774,-0.4299,-0.4303,-0.5432,-0.5761,-0.4949,-0.4702,-0.4025,-0.2787,0.4143,0.7751,0.7838,0.9537,1.0165,0.9747,0.9467,0.9083,0.0,0.0,0.0,0.0,0.0,0.0,0.0,0.0,0.0,0.0,0.0,0.0,0.0,0.0,0.0,0.0,0.0,0.0,0.0,0.0,0.0,0.0,0.0,0.0,0.0,0.0,0.0,0.0,0.0,0.0,0.4661,0.4403,0.4152,0.3776,0.39,0.3853,0.3674,0.4187,0.4433,0.4488,0.4952,0.5352,0.5681,0.5896,0.59,0.5795,0.585,0.59,0.6,0.6119,0.6009,0.585,0.6223,0.6218,0.6005,0.6173,0.6173,0.6109,0.6327,0.649,0.6598,0.7252,0.7622,0.7883,0.8362,0.8368,0.8168,0.8321,0.8109,0.7901,0.8062,0.7936,0.7819,0.8258,0.781,0.7462,0.841,0.7976,0.7335,0.7223,0.6441,0.583,0.5793,0.5326,0.4793,0.4368,0.3478,0.2597,0.1928,0.0804,-0.0089,-0.0537,-0.1074,-0.17,-0.2504,-0.2499,-0.2851,-0.3741,-0.4312,-0.4705,-0.4994,-0.5263,-0.5553,-0.5804,-0.1599,0.1271,0.2687,0.3985,0.4667,0.4817,0.7255,0.8203,0.0,0.0,0.0,0.0,0.0,0.0,0.0,0.0,0.0,0.0,0.0,0.0,0.0,0.0,0.0,0.0,0.0,0.0,0.0,0.0,0.0,0.0,0.0,0.0,0.0,0.0,0.0,0.0,0.0,0.551,0.501,0.4653,0.429,0.3925,0.4056,0.4063,0.3946,0.4358,0.4632,0.4632,0.5183,0.5462,0.5517,0.5841,0.6059,0.6119,0.6277,0.6386,0.6495,0.6554,0.6549,0.6495,0.6436,0.6381,0.6381,0.6332,0.6277,0.6273,0.6549,0.6766,0.6982,0.7461,0.7783,0.8049,0.8586,0.8533,0.8374,0.8639,0.8312,0.7933,0.8081,0.7879,0.7653,0.7822,0.7615,0.7373,0.7459,0.7623,0.7655,0.7454,0.6797,0.624,0.6301,0.5913,0.5419,0.4971,0.4272,0.3446,0.2635,0.1782,0.1026,0.0358,-0.0268,-0.0805,-0.1162,-0.1428,-0.1827,-0.2359,-0.3551,-0.4346,-0.4604,-0.6114,-0.7162,-0.7639,-0.3613,-0.1556,-0.16,0.1339,0.2932,0.3287,0.5406,0.6681,0.0,0.0,0.0,0.0,0.0,0.0,0.0,0.0,0.0,0.0,0.0,0.0,0.0,0.0,0.0,0.0,0.0,0.0,0.0,0.0,0.0,0.0,0.0,0.0,0.0,0.0,0.0,0.0,0.0,0.5831,0.5363,0.4948,0.457,0.4146,0.42,0.4237,0.4194,0.4504,0.4743,0.4857,0.5348,0.5517,0.5462,0.5841,0.6218,0.649,0.6598,0.6712,0.6879,0.6933,0.7036,0.7085,0.6761,0.6652,0.6707,0.6603,0.649,0.649,0.6766,0.7041,0.73,0.7494,0.7782,0.8196,0.8417,0.8475,0.8456,0.87,0.836,0.7989,0.8032,0.7775,0.754,0.7516,0.7474,0.7302,0.6754,0.7447,0.8062,0.7648,0.7175,0.6875,0.6888,0.6513,0.605,0.5604,0.5077,0.4378,0.3422,0.2813,0.2194,0.1428,0.0663,0.0177,0.0089,-0.053,-0.1013,-0.1247,-0.2953,-0.4069,-0.4329,-0.6477,-0.8089,-0.9069,-0.5749,-0.4557,-0.5672,-0.1979,0.0318,0.1337,0.3547,0.5185,0.0,0.0,0.0,0.0,0.0,0.0,0.0,0.0,0.0,0.0,0.0,0.0,0.0,0.0,0.0,0.0,0.0,0.0,0.0,0.0,0.0,0.0,0.0,0.0,0.0,0.0,0.0,0.0,0.0,0.597,0.5438,0.5247,0.4857,0.4214,0.4305,0.4285,0.4089,0.4504,0.4912,0.5297,0.5513,0.5677,0.5795,0.6069,0.6386,0.6647,0.649,0.6603,0.6933,0.7031,0.7085,0.7085,0.7203,0.7095,0.6879,0.6879,0.682,0.6701,0.6701,0.6869,0.7101,0.7143,0.7489,0.7911,0.7788,0.8107,0.8416,0.8132,0.8133,0.816,0.8024,0.7808,0.7569,0.7519,0.7443,0.7412,0.7342,0.8028,0.848,0.7836,0.767,0.7621,0.7482,0.7189,0.6768,0.6331,0.6107,0.5588,0.4474,0.3795,0.3211,0.2659,0.1846,0.1194,0.0888,0.0301,-0.0299,-0.0889,-0.234,-0.3566,-0.4458,-0.589,-0.7854,-1.0366,-0.9616,-0.9375,-0.9698,-0.7691,-0.5399,-0.2786,0.1422,0.3935,0.0,0.0,0.0,0.0,0.0,0.0,0.0,0.0,0.0,0.0,0.0,0.0,0.0,0.0,0.0,0.0,0.0,0.0,0.0,0.0,0.0,0.0,0.0,0.0,0.0,0.0,0.0,0.0,0.0,0.0,0.5457,0.5224,0.4883,0.437,0.4419,0.4495,0.4599,0.482,0.5018,0.5183,0.5458,0.5681,0.5795,0.6069,0.6391,0.6701,0.6712,0.6879,0.7149,0.7144,0.7246,0.7456,0.7252,0.7198,0.7252,0.709,0.6977,0.6977,0.7139,0.7147,0.716,0.7479,0.7653,0.7703,0.7976,0.8085,0.8159,0.8384,0.8194,0.7993,0.8091,0.7902,0.7589,0.7384,0.7544,0.7754,0.7557,0.7858,0.8123,0.7944,0.7974,0.7928,0.7666,0.7395,0.7053,0.6607,0.6253,0.5909,0.5596,0.5097,0.4431,0.3545,0.3096,0.2603,0.2041,0.1333,0.0606,-0.0082,-0.2084,-0.3534,-0.4277,-0.6451,-0.8266,-0.9656,-1.022,-1.1037,-1.2104,-0.9327,-0.69,-0.4784,-0.1319,0.1346,0.0,0.0,0.0,0.0,0.0,0.0,0.0,0.0,0.0,0.0,0.0,0.0,0.0,0.0,0.0,0.0,0.0,0.0,0.0,0.0,0.0,0.0,0.0,0.0,0.0,0.0,0.0,0.0,0.0,0.0,0.5613,0.5366,0.506,0.4635,0.4632,0.4739,0.5011,0.5128,0.5183,0.5293,0.5567,0.5732,0.5795,0.6119,0.644,0.6701,0.682,0.7041,0.7317,0.7198,0.7354,0.767,0.7461,0.7467,0.7568,0.7354,0.73,0.7235,0.7211,0.7182,0.7177,0.7339,0.7418,0.7449,0.7682,0.7834,0.7941,0.8256,0.8106,0.7932,0.8207,0.8021,0.7706,0.7509,0.7684,0.7846,0.7657,0.7867,0.8111,0.8105,0.8279,0.833,0.8096,0.7869,0.7596,0.7157,0.6818,0.6513,0.6287,0.5916,0.5346,0.4479,0.408,0.3655,0.3103,0.2264,0.1303,0.0273,-0.1859,-0.3619,-0.4788,-0.6948,-0.8605,-0.9682,-1.0197,-1.0928,-1.185,-0.9433,-0.7117,-0.4861,-0.2239,0.0294,0.0,0.0,0.0,0.0,0.0,0.0,0.0,0.0,0.0,0.0,0.0,0.0,0.0,0.0,0.0,0.0,0.0,0.0,0.0,0.0,0.0,0.0,0.0,0.0,0.0,0.0,0.0,0.0,0.0,0.6114,0.5987,0.5719,0.5449,0.5117,0.4956,0.5014,0.5297,0.5301,0.5407,0.5622,0.5891,0.595,0.5795,0.6223,0.649,0.6701,0.682,0.7041,0.7317,0.7317,0.7467,0.7723,0.7842,0.7842,0.7723,0.7723,0.7616,0.7422,0.6919,0.6934,0.7103,0.6597,0.6783,0.7132,0.683,0.7198,0.7799,0.7715,0.7821,0.8062,0.8316,0.8102,0.787,0.7957,0.7873,0.7724,0.7715,0.8145,0.846,0.8335,0.8586,0.8781,0.8728,0.8636,0.844,0.8,0.7852,0.7466,0.6557,0.6229,0.5868,0.5395,0.4782,0.4321,0.3998,0.3031,0.1717,0.0038,-0.1747,-0.376,-0.6036,-0.7302,-0.88,-1.0639,-0.9817,-0.9216,-0.8915,-0.8258,-0.632,-0.318,-0.1209,0.0913,0.4389,0.0,0.0,0.0,0.0,0.0,0.0,0.0,0.0,0.0,0.0,0.0,0.0,0.0,0.0,0.0,0.0,0.0,0.0,0.0,0.0,0.0,0.0,0.0,0.0,0.0,0.0,0.0,0.6365,0.6091,0.5437,0.5236,0.499,0.4729,0.5012,0.5242,0.5297,0.5521,0.5686,0.5736,0.5845,0.59,0.595,0.6277,0.649,0.6701,0.6923,0.709,0.7144,0.7257,0.7467,0.7723,0.7842,0.7901,0.7842,0.8002,0.7769,0.7338,0.7314,0.7002,0.6725,0.6854,0.695,0.6993,0.7052,0.7271,0.7525,0.7657,0.7821,0.8049,0.8283,0.8311,0.8262,0.804,0.8198,0.8319,0.8228,0.8499,0.8706,0.8418,0.8656,0.885,0.8792,0.8773,0.8656,0.8379,0.8027,0.7753,0.7658,0.7262,0.6768,0.6103,0.5665,0.494,0.3731,0.3051,0.1589,-0.0978,-0.2532,-0.4463,-0.6938,-0.8201,-0.9219,-1.0031,-0.9137,-0.8113,-0.6966,-0.6698,-0.5679,-0.3931,-0.1161,0.0882,0.0,0.0,0.0,0.0,0.0,0.0,0.4451,0.4019,0.0,0.0,0.0,0.0,0.0,0.0,0.0,0.0,0.0,0.0,0.0,0.0,0.0,0.0,0.0,0.0,0.0,0.0,0.0,0.5967,0.6087,0.581,0.5094,0.4968,0.4867,0.4711,0.5097,0.5356,0.5521,0.5686,0.585,0.59,0.5959,0.5955,0.6,0.6381,0.6598,0.6701,0.6977,0.7085,0.7085,0.7257,0.7419,0.7622,0.7842,0.7901,0.7889,0.8038,0.7838,0.747,0.7291,0.6966,0.6651,0.6766,0.6792,0.6781,0.7034,0.7286,0.7496,0.767,0.7888,0.8055,0.7999,0.8122,0.8243,0.8057,0.8329,0.8637,0.8661,0.8915,0.9062,0.8701,0.8811,0.8992,0.9155,0.9116,0.9062,0.8926,0.8646,0.8348,0.8095,0.7688,0.7116,0.6337,0.5905,0.5182,0.3986,0.3226,0.1471,-0.1609,-0.2991,-0.4935,-0.7703,-0.8579,-0.9155,-0.9493,-0.8589,-0.7017,-0.4779,-0.5048,-0.4251,-0.2462,-0.0517,0.0823,0.0,0.0,0.0,0.0,0.0,0.0,0.4708,0.4163,0.3924,0.0,0.0,0.0,0.0,0.0,0.0,0.0,0.0,0.0,0.0,0.0,0.0,0.0,0.0,0.0,0.0,0.5296,0.5503,0.5864,0.5734,0.5428,0.4868,0.4876,0.4888,0.4888,0.5193,0.5521,0.5795,0.585,0.59,0.6005,0.6173,0.6173,0.6055,0.649,0.6707,0.6761,0.6977,0.7085,0.7139,0.7257,0.7365,0.7521,0.7794,0.7901,0.7925,0.7903,0.7829,0.7585,0.7028,0.6832,0.6726,0.6532,0.6489,0.6562,0.6943,0.7231,0.7523,0.7668,0.7968,0.8101,0.7668,0.7775,0.8023,0.7986,0.8404,0.8834,0.8955,0.931,0.9502,0.9217,0.9147,0.9244,0.9632,0.9633,0.9569,0.9584,0.9468,0.9096,0.8304,0.7863,0.7293,0.6414,0.5908,0.5307,0.447,0.3262,0.1239,-0.1896,-0.328,-0.5279,-0.8148,-0.846,-0.867,-0.8908,-0.7822,-0.5721,-0.2611,-0.3257,-0.2298,0.0124,0.0393,0.0782,0.0,0.0,0.0,0.0,0.0,0.0,0.5957,0.5635,0.5437,0.0,0.0,0.0,0.0,0.0,0.0,0.0,0.0,0.0,0.0,0.0,0.0,0.0,0.0,0.0,0.0,0.4763,0.4953,0.5043,0.4897,0.4741,0.451,0.4587,0.4665,0.4665,0.5345,0.574,0.5795,0.6014,0.6119,0.6173,0.6277,0.6332,0.6327,0.6712,0.6874,0.6879,0.7031,0.7144,0.7257,0.7317,0.7365,0.7521,0.7794,0.8008,0.8137,0.8101,0.7852,0.7525,0.7282,0.6925,0.6594,0.6764,0.6751,0.6708,0.7041,0.7286,0.748,0.7795,0.8027,0.8132,0.7894,0.8032,0.8154,0.7821,0.857,0.9254,0.8897,0.9566,1.0186,1.0059,1.0008,0.9919,0.9736,0.9841,1.0008,1.0059,0.9945,0.9742,0.9416,0.9152,0.8533,0.7303,0.6738,0.5923,0.4595,0.2359,0.0163,-0.1879,-0.4005,-0.5865,-0.7456,-0.7653,-0.7733,-0.7723,-0.5585,-0.3448,-0.1346,-0.1015,-0.0254,0.0883,0.073,0.0996,0.0,0.0,0.0,0.7683,0.0,0.0,0.0,0.6389,0.6247,0.0,0.0,0.0,0.0,0.0,0.0,0.0,0.0,0.0,0.0,0.0,0.0,0.0,0.0,0.0,0.0,0.4343,0.4613,0.4644,0.4387,0.416,0.4077,0.4323,0.4462,0.4462,0.5161,0.5631,0.5795,0.5959,0.6123,0.6282,0.6386,0.6436,0.6544,0.6771,0.6879,0.6933,0.7036,0.7139,0.7198,0.7198,0.7252,0.7419,0.7634,0.7848,0.8013,0.7797,0.7704,0.762,0.7268,0.7069,0.695,0.695,0.6956,0.7005,0.7286,0.7464,0.7598,0.7605,0.7783,0.7909,0.7741,0.7986,0.8187,0.7929,0.8364,0.8792,0.8604,0.9347,1.0057,1.0057,1.0488,1.0715,1.0286,1.0173,1.0119,1.0015,0.9986,0.9747,0.917,0.9063,0.8599,0.7467,0.7019,0.6281,0.5006,0.2344,0.0135,-0.1315,-0.3735,-0.553,-0.652,-0.6683,-0.6609,-0.6302,-0.4651,-0.2949,-0.1198,-0.049,0.0235,0.0951,0.0814,0.0951,0.0,0.0,0.0,0.0,0.0,0.8304,0.0,0.0,0.0,0.0,0.0,0.0,0.0,0.0,0.0,0.0,0.0,0.0,0.0,0.0,0.0,0.0,0.0,0.0,0.0,0.3932,0.416,0.4263,0.389,0.3651,0.3601,0.4028,0.4275,0.4357,0.4965,0.5466,0.5795,0.585,0.6009,0.6386,0.6436,0.6544,0.6652,0.6874,0.6933,0.6933,0.7036,0.7139,0.7139,0.7085,0.7198,0.7311,0.7467,0.7652,0.7763,0.7438,0.751,0.7663,0.7214,0.7202,0.7363,0.7086,0.7073,0.7154,0.7344,0.7515,0.7625,0.7357,0.7487,0.771,0.7575,0.788,0.8185,0.7922,0.8214,0.8476,0.8205,0.88,0.9505,0.9826,1.0654,1.1195,1.0784,1.0438,1.0126,0.9966,0.9839,0.9499,0.8726,0.8718,0.8436,0.7561,0.7157,0.6573,0.5606,0.2674,0.0507,-0.0357,-0.301,-0.4762,-0.5282,-0.5538,-0.5374,-0.4753,-0.4019,-0.2813,-0.1116,-0.0381,0.027,0.084,0.0796,0.0844,0.0,0.0,0.0,0.0,1.0419,0.0,0.0,0.0,0.0,0.0,0.0,0.0,0.0,0.0,0.0,0.0,0.0,0.0,0.0,0.0,0.0,0.0,0.0,0.0,0.0,0.0,0.3277,0.3359,0.3262,0.3178,0.3275,0.3791,0.4231,0.4469,0.5031,0.5466,0.5795,0.5896,0.6059,0.6232,0.6544,0.6598,0.6436,0.6869,0.7036,0.6933,0.7036,0.7144,0.7257,0.7144,0.7198,0.7311,0.7467,0.7536,0.7544,0.7504,0.7516,0.7513,0.7404,0.7377,0.737,0.7168,0.6999,0.6871,0.6952,0.7119,0.7273,0.7223,0.749,0.7773,0.7705,0.8072,0.8273,0.7541,0.8585,0.9328,0.797,0.8004,0.8671,0.9996,1.044,1.067,1.0847,1.0453,1.0178,1.0389,0.9773,0.9236,0.9142,0.9096,0.8819,0.8166,0.7533,0.694,0.6411,0.2951,0.086,0.0965,-0.209,-0.3772,-0.3511,-0.4135,-0.4044,-0.309,-0.286,-0.1862,-0.0064,0.0382,0.073,0.0973,0.0792,0.0841,0.0,0.0,0.0,0.0,0.0,0.0,0.0,0.0,0.9178,0.0,0.0,0.0,0.0,0.0,0.0,0.0,0.0,0.0,0.0,0.0,0.0,0.0,0.0,0.0,0.0,0.0,0.0,0.0,0.0,0.2566,0.2799,0.326,0.3692,0.4158,0.4824,0.5348,0.5681,0.595,0.6223,0.6495,0.6652,0.6756,0.6815,0.6869,0.6923,0.7036,0.6923,0.6928,0.7041,0.6923,0.6923,0.6966,0.6987,0.708,0.7261,0.7243,0.7397,0.7524,0.744,0.7538,0.7728,0.7474,0.7433,0.7391,0.7072,0.7148,0.7343,0.719,0.7463,0.7792,0.7821,0.8223,0.8404,0.7595,0.8119,0.8458,0.728,0.7676,0.831,0.8461,0.9389,1.0233,1.0494,1.043,1.0265,1.0078,0.942,0.8929,0.8811,0.8845,0.8733,0.8409,0.7947,0.7286,0.6349,0.3306,0.1435,0.143,-0.1274,-0.2775,-0.2568,-0.3342,-0.3643,-0.3334,-0.2811,-0.1878,-0.0539,0.0142,0.0755,0.1276,0.1002,0.0893,1.2448,0.0,0.0,0.0,0.0,0.0,0.0,0.0,0.0,0.0,0.0,0.0,0.0,0.0,0.0,0.0,0.0,0.0,0.0,0.0,0.0,0.0,0.0,0.0,0.0,0.0,0.0,0.0,0.0,0.0,0.2273,0.2767,0.3229,0.3821,0.4649,0.5234,0.5622,0.595,0.6277,0.6544,0.6598,0.6707,0.6869,0.6756,0.6756,0.6923,0.6761,0.6707,0.6771,0.6652,0.6558,0.6435,0.6431,0.6553,0.6718,0.6913,0.7144,0.7416,0.7412,0.7638,0.7966,0.7804,0.7789,0.7714,0.7298,0.7317,0.7454,0.7296,0.7588,0.7994,0.806,0.8359,0.8466,0.7807,0.7857,0.7819,0.6928,0.7502,0.8092,0.7712,0.8711,0.9777,1.0251,1.0241,1.0073,0.9749,0.9141,0.8688,0.8616,0.8672,0.8724,0.8711,0.8307,0.7562,0.6417,0.3841,0.1884,0.095,-0.1154,-0.2292,-0.2128,-0.2927,-0.3412,-0.35,-0.2861,-0.1976,-0.0832,0.0079,0.0906,0.1634,0.1257,0.0994,0.0,0.0,0.0,1.2549,0.0,0.0,0.0,0.0,1.0084,0.0,0.0,0.0,0.0,0.0,0.0,0.0,0.0,0.0,0.0,0.0,0.0,0.0,0.0,0.0,0.0,0.0,0.0,0.0,0.0,0.0,0.18,0.2411,0.3011,0.3699,0.4483,0.512,0.5622,0.5891,0.6059,0.6232,0.6332,0.6332,0.6232,0.6544,0.6593,0.6436,0.6598,0.6598,0.644,0.6436,0.6149,0.5751,0.5963,0.5858,0.5718,0.6396,0.6723,0.697,0.7293,0.7621,0.7942,0.8133,0.7891,0.751,0.7566,0.7543,0.7499,0.7569,0.7956,0.841,0.8557,0.8537,0.8417,0.8065,0.8087,0.7978,0.7239,0.7431,0.7925,0.861,0.8842,0.9248,1.0239,0.9813,0.943,0.966,0.9023,0.8591,0.8858,0.8834,0.8925,0.9237,0.8573,0.7768,0.6948,0.4651,0.2065,-0.0741,-0.2091,-0.2603,-0.2213,-0.291,-0.3214,-0.3029,-0.2741,-0.1881,-0.0413,0.0582,0.1389,0.1971,0.1504,0.1146,0.0,0.0,1.4335,1.3193,0.0,0.0,0.0,0.0,0.0,0.0,0.0,0.0,0.0,0.0,0.0,0.0,0.0,0.0,0.0,0.0,0.0,0.0,0.0,0.0,0.0,0.0,0.0,0.0,0.0,0.0,0.0,0.175,0.2323,0.312,0.4113,0.4901,0.5391,0.5896,0.6282,0.6549,0.6598,0.6652,0.6761,0.6598,0.6598,0.6712,0.6495,0.6337,0.6268,0.6023,0.5768,0.5569,0.5461,0.5467,0.5616,0.6151,0.6579,0.6999,0.7712,0.7983,0.8038,0.8022,0.7852,0.7666,0.7395,0.7474,0.7666,0.7763,0.8117,0.8512,0.875,0.9027,0.9057,0.8364,0.8448,0.8469,0.7727,0.7662,0.7872,0.8214,0.8363,0.8599,0.9117,0.9035,0.9101,0.9683,0.916,0.8795,0.9057,0.9043,0.9075,0.9284,0.8689,0.7851,0.6725,0.3772,0.1364,-0.0051,-0.1728,-0.2621,-0.2531,-0.3106,-0.3508,-0.3657,-0.2352,-0.123,-0.0329,0.1163,0.1947,0.2069,0.1903,0.1543,1.6246,1.5906,0.0,1.4013,1.3558,0.0,1.189,0.0,0.0,0.0,0.0,0.0,0.0,0.0,0.0,0.0,0.0,0.0,0.0,0.2735,0.0,0.0,0.0,0.0,0.0,0.0,0.0,0.0,0.0,0.0,0.0,0.0,0.176,0.2613,0.3767,0.468,0.523,0.5896,0.6386,0.6701,0.6761,0.6869,0.7036,0.6761,0.6707,0.682,0.6495,0.6234,0.5993,0.5658,0.5366,0.5064,0.4875,0.4923,0.5269,0.5845,0.6494,0.7167,0.787,0.8222,0.8318,0.8219,0.8183,0.8108,0.7772,0.7822,0.8004,0.8184,0.8484,0.8844,0.9143,0.9224,0.9068,0.8598,0.8504,0.8352,0.7815,0.7783,0.7899,0.8013,0.8111,0.8261,0.8549,0.8673,0.8919,0.9442,0.9131,0.8913,0.9129,0.9119,0.9169,0.935,0.8872,0.7844,0.6115,0.3577,0.1535,0.0236,-0.1439,-0.2462,-0.2621,-0.3244,-0.3634,-0.3745,-0.2345,-0.1185,-0.0295,0.1526,0.2355,0.2243,0.2297,0.1956]}]]